[[{"header":{"parameterUnit":"m.s-1","parameterCategory":1,"la1":30.6,"la2":28.766,"lo1":-90.7593,"lo2":-88.6598,"dy":0.0162,"dx":0.0183,"nx":116,"ny":114,"refTime":"2023-08-07T06:00:00:Z","depth":0,"parameterNumber":2,"parameterNumberName":"U-component_of_WINDS"},"data":[0.0,0.0,0.0,0.0,0.0,0.0,0.0,0.0,0.0,0.0,0.0,0.0,0.0,0.0,0.0,0.0,0.0,0.0,0.0,0.0,0.0,0.0,0.0,0.0,0.0,0.0,0.0,0.0,0.0,0.0,0.0,0.0,0.0,0.0,0.0,0.0,0.0,0.0,0.0,0.0,0.0,0.0,0.0,0.0,0.0,0.0,0.0,0.0,0.0,0.0,0.0,0.0,0.0,0.0,0.0,0.0,0.0,0.0,0.0,0.0,0.0,0.0,0.0,0.0,0.0,0.0,0.0,0.0,0.0,0.0,0.0,0.0,0.0,0.0,0.0,0.0,0.0,0.0,0.0,0.0,0.0,0.0,0.0,0.0,0.0,0.0,0.0,0.0,0.0,0.0,0.0,0.0,0.0,0.0,0.0,0.0,0.0,0.0,0.0,0.0,0.0,0.0,0.0,0.0,0.0,0.0,0.0,0.0,0.0,0.0,0.0,0.0,0.0,0.0,0.0,0.0,0.0,0.0,0.0,0.0,0.0,0.0,0.0,0.0,0.0,0.0,0.0,0.0,0.0,0.0,0.0,0.0,0.0,0.0,0.0,0.0,0.0,0.0,0.0,0.0,0.0,0.0,0.0,0.0,0.0,0.0,0.0,0.0,0.0,0.0,0.0,0.0,0.0,0.0,0.0,0.0,0.0,0.0,0.0,0.0,0.0,0.0,0.0,0.0,0.0,0.0,0.0,0.0,0.0,0.0,0.0,0.0,0.0,0.0,0.0,0.0,0.0,0.0,0.0,0.0,0.0,0.0,0.0,0.0,0.0,0.0,0.0,0.0,0.0,0.0,0.0,0.0,0.0,0.0,0.0,0.0,0.0,0.0,0.0,0.0,0.0,0.0,0.0,0.0,0.0,0.0,0.0,0.0,0.0,0.0,0.0,0.0,0.0,0.0,0.0,0.0,0.0,0.0,0.0,0.0,0.0,0.0,0.0,0.0,0.0,0.0,0.0,0.0,0.0,0.0,0.0,0.0,0.0,0.0,0.0,0.0,0.0,0.0,0.0,0.0,0.0,0.0,0.0,0.0,0.0,0.0,0.0,0.0,0.0,0.0,0.0,0.0,0.0,0.0,0.0,0.0,0.0,0.0,0.0,0.0,0.0,0.0,0.0,0.0,0.0,0.0,0.0,0.0,0.0,0.0,0.0,0.0,0.0,0.0,0.0,0.0,0.0,0.0,0.0,0.0,0.0,0.0,0.0,0.0,0.0,0.0,0.0,0.0,0.0,0.0,0.0,0.0,0.0,0.0,0.0,0.0,0.0,0.0,0.0,0.0,0.0,0.0,0.0,0.0,0.0,0.0,0.0,0.0,0.0,0.0,0.0,0.0,0.0,0.0,0.0,0.0,0.0,0.0,0.0,0.0,0.0,0.0,0.0,0.0,0.0,0.0,0.0,0.0,0.0,0.0,0.0,0.0,0.0,0.0,0.0,0.0,0.0,0.0,0.0,0.0,0.0,0.0,0.0,0.0,0.0,0.0,0.0,0.0,0.0,0.0,0.0,0.0,0.0,0.0,0.0,0.0,0.0,0.0,0.0,0.0,0.0,0.0,0.0,0.0,0.0,0.0,0.0,0.0,0.0,0.0,0.0,0.0,0.0,0.0,0.0,0.0,0.0,0.0,0.0,0.0,0.0,0.0,0.0,0.0,0.0,0.0,0.0,0.0,0.0,0.0,0.0,0.0,0.0,0.0,0.0,0.0,0.0,0.0,0.0,0.0,0.0,0.0,0.0,0.0,0.0,0.0,0.0,0.0,0.0,0.0,0.0,0.0,0.0,0.0,0.0,0.0,0.0,0.0,0.0,0.0,0.0,0.0,0.0,0.0,0.0,0.0,0.0,0.0,0.0,0.0,0.0,0.0,0.0,0.0,0.0,0.0,0.0,0.0,0.0,0.0,0.0,0.0,0.0,0.0,0.0,0.0,0.0,0.0,0.0,0.0,0.0,0.0,0.0,0.0,0.0,0.0,0.0,0.0,0.0,0.0,0.0,0.0,0.0,0.0,0.0,0.0,0.0,0.0,0.0,0.0,0.0,0.0,0.0,0.0,0.0,0.0,0.0,0.0,0.0,0.0,0.0,0.0,0.0,0.0,0.0,0.0,0.0,0.0,0.0,0.0,0.0,0.0,0.0,0.0,0.0,0.0,0.0,0.0,0.0,0.0,0.0,0.0,0.0,0.0,0.0,0.0,0.0,0.0,0.0,0.0,0.0,0.0,0.0,0.0,0.0,0.0,0.0,0.0,0.0,0.0,0.0,0.0,0.0,0.0,0.0,0.0,0.0,0.0,0.0,0.0,0.0,0.0,0.0,0.0,0.0,0.0,0.0,0.0,0.0,0.0,0.0,0.0,0.0,0.0,0.0,0.0,0.0,0.0,0.0,0.0,0.0,0.0,0.0,0.0,0.0,0.0,0.0,0.0,0.0,0.0,0.0,0.0,0.0,0.0,0.0,0.0,0.0,0.0,0.0,0.0,0.0,0.0,0.0,0.0,0.0,0.0,0.0,0.0,0.0,0.0,0.0,0.0,0.0,0.0,0.0,0.0,0.0,0.0,0.0,0.0,0.0,0.0,0.0,0.0,0.0,0.0,0.0,0.0,0.0,0.0,0.0,0.0,0.0,0.0,0.0,0.0,0.0,0.0,0.0,0.0,0.0,0.0,0.0,0.0,0.0,0.0,0.0,0.0,0.0,0.0,0.0,0.0,0.0,0.0,0.0,0.0,0.0,0.0,0.0,0.0,0.0,0.0,0.0,0.0,0.0,0.0,0.0,0.0,0.0,0.0,0.0,0.0,0.0,0.0,0.0,0.0,0.0,0.0,0.0,0.0,0.0,0.0,0.0,0.0,0.0,0.0,0.0,0.0,0.0,0.0,0.0,0.0,0.0,0.0,0.0,0.0,0.0,0.0,0.0,0.0,0.0,0.0,0.0,0.0,0.0,0.0,0.0,0.0,0.0,0.0,0.0,0.0,0.0,0.0,0.0,0.0,0.0,0.0,0.0,0.0,0.0,0.0,0.0,0.0,0.0,0.0,0.0,0.0,0.0,0.0,0.0,0.0,0.0,0.0,0.0,0.0,0.0,0.0,0.0,0.0,0.0,0.0,0.0,0.0,0.0,0.0,0.0,0.0,0.0,0.0,0.0,0.0,0.0,0.0,0.0,0.0,0.0,0.0,0.0,0.0,0.0,0.0,0.0,0.0,0.0,0.0,0.0,0.0,0.0,0.0,0.0,0.0,0.0,0.0,0.0,0.0,0.0,0.0,0.0,0.0,0.0,0.0,0.0,0.0,0.0,0.0,0.0,0.0,0.0,0.0,0.0,0.0,0.0,0.0,0.0,0.0,0.0,0.0,0.0,0.0,0.0,0.0,0.0,0.0,0.0,0.0,0.0,0.0,0.0,0.0,0.0,0.0,0.0,0.0,0.0,0.0,0.0,0.0,0.0,0.0,0.0,0.0,0.0,0.0,0.0,0.0,0.0,0.0,0.0,0.0,0.0,0.0,0.0,0.0,0.0,0.0,0.0,0.0,0.0,0.0,0.0,0.0,0.0,0.0,0.0,0.0,0.0,0.0,0.0,0.0,0.0,0.0,0.0,0.0,0.0,0.0,0.0,0.0,0.0,0.0,0.0,0.0,0.0,0.0,0.0,0.0,0.0,0.0,0.0,0.0,0.0,0.0,0.0,0.0,0.0,0.0,0.0,0.0,0.0,0.0,0.0,0.0,0.0,0.0,0.0,0.0,0.0,0.0,0.0,0.0,0.0,0.0,0.0,0.0,0.0,0.0,0.0,0.0,0.0,0.0,0.0,0.0,0.0,0.0,0.0,0.0,0.0,0.0,0.0,0.0,0.0,0.0,0.0,0.0,0.0,0.0,0.0,0.0,0.0,0.0,0.0,0.0,0.0,0.0,0.0,0.0,0.0,0.0,0.0,0.0,0.0,0.0,0.0,0.0,0.0,0.0,0.0,0.0,0.0,0.0,0.0,0.0,0.0,0.0,0.0,0.0,0.0,0.0,0.0,0.0,0.0,0.0,0.0,0.0,0.0,0.0,0.0,0.0,0.0,0.0,0.0,0.0,0.0,0.0,0.0,0.0,0.0,0.0,0.0,0.0,0.0,0.0,0.0,0.0,0.0,0.0,0.0,0.0,0.0,0.0,0.0,0.0,0.0,0.0,0.0,0.0,0.0,0.0,0.0,0.0,0.0,0.0,0.0,0.0,0.0,0.0,0.0,0.0,0.0,0.0,0.0,0.0,0.0,0.0,0.0,0.0,0.0,0.0,0.0,0.0,0.0,0.0,0.0,0.0,0.0,0.0,0.0,0.0,0.0,0.0,0.0,0.0,0.0,0.0,0.0,0.0,0.0,0.0,0.0,0.0,0.0,0.0,0.0,0.0,0.0,0.0,0.0,0.0,0.0,0.0,0.0,0.0,0.0,0.0,0.0,0.0,0.0,0.0,0.0,0.0,0.0,0.0,0.0,0.0,0.0,0.0,0.0,0.0,0.0,0.0,0.0,0.0,0.0,0.0,0.0,0.0,0.0,0.0,0.0,0.0,0.0,0.0,0.0,0.0,0.0,0.0,0.0,0.0,0.0,0.0,0.0,0.0,0.0,0.0,0.0,0.0,0.0,0.0,0.0,0.0,0.0,0.0,0.0,0.0,0.0,0.0,0.0,0.0,0.0,0.0,0.0,0.0,0.0,0.0,0.0,0.0,0.0,0.0,0.0,0.0,0.0,0.0,0.0,0.0,0.0,0.0,0.0,0.0,0.0,0.0,0.0,0.0,0.0,0.0,0.0,0.0,0.0,0.0,0.0,0.0,0.0,0.0,0.0,0.0,0.0,0.0,0.0,0.0,0.0,0.0,0.0,0.0,0.0,0.0,0.0,0.0,0.0,0.0,0.0,0.0,0.0,0.0,0.0,0.0,0.0,0.0,0.0,0.0,0.0,0.0,0.0,0.0,0.0,0.0,0.0,0.0,0.0,0.0,0.0,0.0,0.0,0.0,0.0,0.0,0.0,0.0,0.0,0.0,0.0,0.0,0.0,0.0,0.0,0.0,0.0,0.0,0.0,0.0,0.0,0.0,0.0,0.0,0.0,0.0,0.0,0.0,0.0,0.0,0.0,0.0,0.0,0.0,0.0,0.0,0.0,0.0,0.0,0.0,0.0,0.0,0.0,0.0,0.0,0.0,0.0,0.0,0.0,0.0,0.0,0.0,0.0,0.0,0.0,0.0,0.0,0.0,0.0,0.0,0.0,0.0,0.0,0.0,0.0,0.0,0.0,0.0,0.0,0.0,0.0,0.0,0.0,0.0,0.0,0.0,0.0,0.0,0.0,0.0,0.0,0.0,0.0,0.0,0.0,0.0,0.0,0.0,0.0,0.0,0.0,0.0,0.0,0.0,0.0,0.0,0.0,0.0,0.0,0.0,0.0,0.0,0.0,0.0,0.0,0.0,0.0,0.0,0.0,0.0,0.0,0.0,0.0,0.0,0.0,0.0,0.0,0.0,0.0,0.0,0.0,0.0,0.0,0.0,0.0,0.0,0.0,0.0,0.0,0.0,0.0,0.0,0.0,0.0,0.0,0.0,0.0,0.0,0.0,0.0,0.0,0.0,0.0,0.0,0.0,0.0,0.0,0.0,0.0,0.0,0.0,0.0,0.0,0.0,0.0,0.0,0.0,0.0,0.0,0.0,0.0,0.0,0.0,0.0,0.0,0.0,0.0,0.0,0.0,0.0,0.0,0.0,0.0,0.0,0.0,0.0,0.0,0.0,0.0,0.0,0.0,0.0,0.0,0.0,0.0,0.0,0.0,0.0,0.0,0.0,0.0,0.0,0.0,0.0,0.0,0.0,0.0,0.0,0.0,0.0,0.0,0.0,0.0,0.0,0.0,0.0,0.0,0.0,0.0,0.0,0.0,0.0,0.0,0.0,0.0,0.0,0.0,0.0,0.0,0.0,0.0,0.0,0.0,0.0,0.0,0.0,0.0,0.0,0.0,0.0,0.0,0.0,0.0,0.0,0.0,0.0,0.0,0.0,0.0,0.0,0.0,0.0,-4.4059,0.0,0.0,0.0,0.0,0.0,0.0,0.0,0.0,0.0,0.0,0.0,0.0,0.0,0.0,0.0,0.0,0.0,0.0,0.0,0.0,0.0,0.0,0.0,0.0,0.0,0.0,0.0,0.0,0.0,0.0,0.0,0.0,0.0,0.0,0.0,0.0,0.0,0.0,0.0,0.0,0.0,0.0,0.0,0.0,0.0,0.0,0.0,0.0,0.0,0.0,0.0,0.0,0.0,0.0,0.0,0.0,0.0,0.0,0.0,0.0,0.0,0.0,0.0,0.0,0.0,0.0,0.0,0.0,0.0,0.0,0.0,0.0,0.0,0.0,0.0,0.0,0.0,0.0,0.0,0.0,0.0,0.0,0.0,0.0,0.0,0.0,0.0,0.0,0.0,0.0,0.0,0.0,0.0,0.0,0.0,0.0,0.0,0.0,0.0,0.0,0.0,0.0,0.0,0.0,0.0,0.0,0.0,0.0,0.0,0.0,0.0,0.0,0.0,0.0,0.0,0.0,-4.4123,0.0,0.0,0.0,0.0,0.0,0.0,0.0,0.0,0.0,0.0,0.0,0.0,0.0,0.0,0.0,0.0,0.0,0.0,0.0,0.0,0.0,0.0,0.0,0.0,0.0,0.0,0.0,0.0,0.0,0.0,0.0,0.0,0.0,0.0,0.0,0.0,0.0,0.0,0.0,0.0,0.0,0.0,0.0,0.0,0.0,0.0,0.0,0.0,0.0,0.0,0.0,0.0,0.0,0.0,0.0,0.0,0.0,0.0,0.0,0.0,0.0,0.0,0.0,0.0,0.0,0.0,0.0,0.0,0.0,0.0,0.0,0.0,0.0,0.0,0.0,0.0,0.0,0.0,0.0,0.0,0.0,0.0,0.0,0.0,0.0,0.0,0.0,0.0,0.0,0.0,0.0,0.0,0.0,0.0,0.0,0.0,0.0,0.0,0.0,0.0,0.0,0.0,0.0,0.0,0.0,0.0,0.0,0.0,0.0,0.0,-4.4548,-4.5342,-4.4825,-4.3379,-4.4345,-4.3753,-4.2085,0.0,0.0,0.0,0.0,0.0,0.0,0.0,0.0,0.0,0.0,0.0,0.0,0.0,0.0,0.0,0.0,0.0,0.0,0.0,0.0,0.0,0.0,0.0,0.0,0.0,0.0,0.0,0.0,0.0,0.0,0.0,0.0,0.0,0.0,0.0,0.0,0.0,0.0,0.0,-5.3293,-5.3227,-5.3185,-5.3185,-5.3185,0.0,0.0,0.0,0.0,0.0,0.0,0.0,0.0,0.0,0.0,0.0,0.0,0.0,0.0,0.0,0.0,0.0,0.0,0.0,0.0,0.0,0.0,0.0,0.0,0.0,0.0,0.0,0.0,0.0,0.0,0.0,0.0,0.0,0.0,0.0,0.0,0.0,0.0,0.0,0.0,0.0,0.0,0.0,-4.6511,-4.6636,0.0,0.0,0.0,0.0,0.0,0.0,0.0,0.0,0.0,0.0,0.0,0.0,0.0,0.0,-4.4983,-4.4983,-4.4548,-4.3693,-4.3693,-4.3615,-4.3512,-4.3615,-4.3551,-4.3329,-4.3446,0.0,-4.3345,-4.2295,0.0,0.0,0.0,0.0,0.0,0.0,0.0,0.0,0.0,0.0,0.0,0.0,0.0,0.0,0.0,0.0,0.0,0.0,0.0,0.0,0.0,0.0,0.0,0.0,0.0,0.0,0.0,0.0,0.0,0.0,0.0,0.0,0.0,0.0,0.0,0.0,-5.4401,-5.3906,-5.3545,-5.3295,-5.3185,-5.3185,-5.3185,-5.3185,-5.3185,-5.3185,0.0,0.0,0.0,0.0,0.0,0.0,0.0,0.0,0.0,0.0,0.0,0.0,0.0,0.0,0.0,0.0,0.0,0.0,0.0,0.0,0.0,0.0,0.0,0.0,0.0,0.0,0.0,0.0,0.0,0.0,0.0,0.0,0.0,0.0,0.0,0.0,0.0,0.0,0.0,-4.7564,-4.7068,-4.7111,-4.6631,-4.6441,0.0,0.0,0.0,0.0,0.0,0.0,0.0,0.0,0.0,-4.5431,-4.4862,-4.4365,-4.3966,-4.3966,-4.3747,-4.329,-4.329,-4.329,-4.329,-4.329,-4.329,-4.329,-4.329,-4.3386,-4.3396,-4.2492,-4.2155,-4.2234,0.0,0.0,0.0,0.0,0.0,-4.1949,0.0,0.0,0.0,0.0,0.0,0.0,0.0,0.0,0.0,0.0,0.0,0.0,0.0,0.0,0.0,-4.3018,0.0,0.0,0.0,0.0,0.0,0.0,0.0,0.0,0.0,0.0,0.0,-5.464,-5.4083,-5.3796,-5.3796,-5.34,-5.3185,-5.3185,-5.3185,-5.3185,-5.3206,-5.3316,-5.3359,0.0,0.0,0.0,0.0,0.0,0.0,0.0,0.0,0.0,0.0,0.0,0.0,0.0,0.0,0.0,0.0,0.0,0.0,0.0,0.0,0.0,0.0,0.0,0.0,0.0,0.0,0.0,0.0,0.0,0.0,0.0,0.0,0.0,0.0,0.0,0.0,0.0,0.0,-4.7505,-4.7138,-4.69,-4.626,-4.5834,0.0,0.0,0.0,0.0,0.0,0.0,-4.5473,-4.4781,-4.4412,-4.4412,-4.3708,-4.329,-4.329,-4.329,-4.329,-4.329,-4.329,-4.329,-4.329,-4.329,-4.329,-4.329,-4.329,-4.329,-4.3245,-4.2626,-4.2198,-4.1863,-4.151,-4.1453,0.0,-4.1392,-4.1313,-4.1313,0.0,0.0,0.0,0.0,0.0,0.0,0.0,0.0,0.0,0.0,0.0,0.0,0.0,0.0,-3.9519,-3.9548,-4.2554,-4.5327,0.0,0.0,0.0,0.0,0.0,0.0,0.0,0.0,0.0,-5.5061,-5.4219,-5.3796,-5.3796,-5.34,-5.3185,-5.3185,-5.3185,-5.3185,-5.3227,-5.3624,-5.3758,-5.3758,0.0,0.0,0.0,0.0,0.0,0.0,0.0,0.0,0.0,0.0,0.0,0.0,0.0,0.0,0.0,0.0,0.0,0.0,0.0,0.0,0.0,0.0,0.0,0.0,0.0,0.0,0.0,0.0,0.0,0.0,0.0,0.0,0.0,0.0,0.0,0.0,0.0,0.0,0.0,-4.5058,-4.4909,0.0,0.0,0.0,0.0,-4.4871,-4.3989,-4.3433,-4.3433,-4.3409,-4.3369,-4.3369,-4.3329,-4.329,-4.329,-4.329,-4.329,-4.329,-4.329,-4.329,-4.329,-4.329,-4.329,-4.329,-4.329,-4.329,-4.3245,-4.2626,-4.2404,-4.2248,-4.095,-4.0477,-4.0409,-3.9778,-3.9553,-3.9553,0.0,0.0,0.0,0.0,0.0,0.0,0.0,0.0,0.0,0.0,0.0,0.0,0.0,-3.7555,-3.6595,-3.7202,-3.9024,-4.1288,-4.3986,0.0,0.0,0.0,0.0,0.0,0.0,0.0,-5.5533,-5.5489,-5.4919,-5.4513,-5.4238,-5.3796,-5.3444,-5.3185,-5.3185,-5.3339,-5.3604,-5.3739,-5.3796,-5.3833,-5.4135,-5.4066,0.0,0.0,0.0,0.0,0.0,0.0,0.0,0.0,0.0,0.0,0.0,0.0,0.0,0.0,0.0,0.0,0.0,0.0,0.0,0.0,0.0,0.0,0.0,0.0,0.0,0.0,0.0,0.0,0.0,0.0,0.0,0.0,0.0,0.0,0.0,0.0,0.0,-4.4849,-4.422,0.0,0.0,-4.3849,-4.3849,-4.3849,-4.3512,-4.329,-4.329,-4.329,-4.329,-4.329,-4.329,-4.329,-4.329,-4.329,-4.329,-4.329,-4.329,-4.329,-4.329,-4.329,-4.329,-4.329,-4.329,-4.329,-4.3275,-4.309,-4.2746,-4.2351,-4.1886,-4.1145,-4.0367,-4.0142,-3.9783,-3.9388,0.0,0.0,0.0,0.0,0.0,0.0,0.0,0.0,0.0,0.0,0.0,-3.9494,-3.7423,-3.5055,-3.4085,-3.5234,-3.6597,-3.9044,-4.2813,0.0,0.0,0.0,0.0,0.0,0.0,-5.5729,-5.5643,-5.5703,-5.516,-5.4819,-5.4686,-5.4065,-5.3739,-5.3623,-5.3464,-5.3643,-5.4048,-5.4185,-5.4253,-5.427,-5.4579,-5.4532,-5.4219,0.0,0.0,0.0,0.0,0.0,0.0,0.0,0.0,0.0,0.0,0.0,0.0,0.0,0.0,0.0,0.0,0.0,0.0,0.0,0.0,0.0,0.0,0.0,0.0,0.0,0.0,0.0,0.0,0.0,0.0,0.0,0.0,0.0,0.0,0.0,-4.4662,-4.432,-4.3708,-4.329,-4.329,-4.329,-4.329,-4.329,-4.329,-4.329,-4.329,-4.329,-4.329,-4.329,-4.329,-4.329,-4.329,-4.329,-4.329,-4.329,-4.329,-4.329,-4.329,-4.329,-4.329,-4.329,-4.329,-4.329,-4.329,-4.329,-4.3075,-4.2671,-4.2485,-4.1871,-4.101,-4.0561,-4.0127,-3.9723,0.0,0.0,0.0,0.0,0.0,0.0,0.0,0.0,0.0,0.0,-3.9144,-3.5835,-3.4258,-3.2501,-3.2071,-3.3546,-3.5477,-3.8899,-4.4142,-4.6931,0.0,0.0,0.0,0.0,-5.6006,-5.572,-5.5648,-5.578,-5.5,-5.4806,-5.5151,-5.4274,-5.4103,-5.4525,-5.4032,-5.4066,-5.4532,-5.4919,-5.5121,-5.5121,-5.5121,-5.5121,-5.5021,0.0,0.0,0.0,0.0,0.0,0.0,0.0,0.0,0.0,0.0,0.0,0.0,0.0,0.0,0.0,0.0,0.0,0.0,0.0,0.0,0.0,0.0,0.0,0.0,0.0,0.0,0.0,0.0,0.0,0.0,0.0,0.0,0.0,-4.4812,-4.4774,-4.4396,-4.3409,-4.329,-4.329,-4.329,-4.329,-4.329,-4.329,-4.325,-4.325,-4.329,-4.325,-4.321,-4.329,-4.325,-4.325,-4.329,-4.329,-4.329,-4.329,-4.329,-4.329,-4.329,-4.329,-4.329,-4.329,-4.329,-4.329,-4.329,-4.329,-4.329,-4.323,-4.2641,-4.2425,-4.2246,-4.0935,-4.0442,-4.0307,0.0,0.0,0.0,0.0,0.0,0.0,0.0,0.0,0.0,0.0,-3.6618,-3.3715,-2.9863,-2.906,-2.9277,-3.0354,-3.3752,-3.7577,-4.1713,0.0,0.0,0.0,0.0,0.0,-5.7633,-5.7563,-5.7556,-5.7588,-5.7369,-5.7149,-5.6881,-5.5712,-5.5235,-5.5314,-5.4275,-5.4219,-5.4952,-5.5048,-5.5269,-5.5543,-5.5543,-5.5356,-5.5075,0.0,0.0,0.0,0.0,0.0,0.0,0.0,0.0,0.0,0.0,0.0,0.0,0.0,0.0,0.0,0.0,0.0,0.0,0.0,0.0,0.0,0.0,0.0,0.0,0.0,0.0,0.0,0.0,0.0,0.0,0.0,0.0,-4.4812,-4.4812,-4.4182,-4.3591,-4.3329,-4.329,-4.329,-4.329,-4.329,-4.329,-4.329,-4.2548,-4.2412,-4.325,-4.174,-4.1574,-4.325,-4.2508,-4.2467,-4.329,-4.329,-4.329,-4.329,-4.329,-4.329,-4.329,-4.329,-4.329,-4.329,-4.329,-4.329,-4.329,-4.329,-4.329,-4.3275,-4.3135,-4.2776,-4.2351,-4.1991,-4.122,-4.0367,0.0,0.0,0.0,0.0,0.0,0.0,0.0,0.0,0.0,0.0,-3.4251,-3.1461,-2.7352,-2.7609,-2.8542,-2.9658,-3.303,-3.6944,-4.1462,0.0,0.0,0.0,0.0,-5.8234,-5.81,-5.833,-5.8481,-5.8475,-5.8475,-5.8308,-5.7962,-5.7059,-5.6673,-5.674,-5.5894,-5.5892,-5.6505,-5.6181,-5.6203,-5.6386,-5.6048,-5.5682,-5.5331,-5.5173,-5.4966,-5.4716,-5.4566,-5.4503,-5.4471,-5.4187,0.0,0.0,0.0,0.0,0.0,0.0,0.0,0.0,0.0,0.0,0.0,0.0,0.0,0.0,0.0,0.0,0.0,0.0,0.0,0.0,0.0,0.0,0.0,0.0,-4.445,-4.4182,-4.4182,-4.3669,-4.329,-4.329,-4.29,-4.2765,-4.325,-4.2441,-4.2263,-4.325,-4.1823,-4.1393,-4.2548,-4.0887,-4.0504,-4.1823,-4.1225,-4.1225,-4.1879,-4.233,-4.2589,-4.2589,-4.3076,-4.329,-4.329,-4.329,-4.329,0.0,-4.329,-4.329,-4.329,-4.329,-4.329,0.0,0.0,0.0,0.0,0.0,-4.1737,-4.0816,0.0,0.0,0.0,0.0,0.0,0.0,0.0,0.0,0.0,0.0,0.0,-2.8786,-2.5518,-2.6574,-2.8107,-2.9383,-3.2274,-3.6441,0.0,0.0,0.0,-5.5895,-5.7689,-5.8429,-5.7956,-5.8529,-5.8882,-5.8944,-5.8944,-5.8885,-5.8773,-5.8269,-5.8188,-5.8475,-5.8079,-5.8143,-5.8486,-5.7818,-5.7545,-5.7486,-5.6664,-5.6093,-5.5719,-5.5358,-5.523,-5.5161,-5.4795,-5.4648,-5.4648,-5.4602,0.0,0.0,0.0,0.0,0.0,0.0,0.0,0.0,0.0,0.0,0.0,0.0,0.0,0.0,0.0,0.0,0.0,0.0,0.0,0.0,0.0,0.0,0.0,0.0,-4.3888,-4.329,-4.329,-4.321,-4.3155,-4.329,-4.229,-4.1988,-4.3036,-4.1141,-4.0802,-4.2941,-4.1014,-4.0275,-4.1545,0.0,0.0,0.0,0.0,-3.9899,-3.9899,-4.1042,-4.1587,-4.1587,-4.2629,-4.317,-4.329,-4.329,-4.329,-4.329,-4.329,-4.329,-4.329,-4.329,-4.329,-4.329,-4.329,-4.329,-4.323,-4.2686,-4.2096,0.0,0.0,0.0,0.0,0.0,0.0,0.0,0.0,0.0,0.0,-3.0219,-2.7762,-2.4903,-2.0422,-2.1415,-2.2572,-2.2853,-2.807,-3.4443,0.0,0.0,-5.1547,-5.3532,-5.5532,-5.7286,-5.8738,-5.947,-5.9999,-6.0383,-6.0383,-6.044,-6.0492,-5.9388,-5.916,-5.9626,-5.8548,-5.8284,-5.8659,-5.8512,-5.8445,-5.8368,-5.7506,-5.6747,-5.6097,-5.6025,-5.5992,-5.5971,-5.5727,-5.5635,-5.5586,-5.5239,-5.5065,-5.4955,-5.4727,0.0,0.0,0.0,0.0,0.0,0.0,0.0,0.0,0.0,0.0,0.0,0.0,0.0,0.0,0.0,0.0,0.0,0.0,0.0,0.0,-4.3732,-4.3448,-4.329,-4.329,-4.2508,-4.229,-4.321,-4.229,-4.1684,-4.1891,-4.0703,-4.0447,-4.1809,-3.977,-3.9376,-4.1504,-3.8725,0.0,-3.9855,-3.9899,-3.9899,-3.9899,-4.1042,-4.1587,-4.1587,0.0,0.0,-4.329,-4.329,-4.329,-4.329,-4.329,-4.329,-4.329,-4.329,-4.329,-4.329,-4.329,-4.329,-4.329,-4.3155,-4.2731,-4.2216,0.0,0.0,0.0,0.0,0.0,0.0,0.0,0.0,0.0,0.0,-2.6816,-2.4246,-2.0233,-2.1288,-2.2333,-2.2333,-2.7232,0.0,0.0,-4.3628,-4.694,-5.0037,-5.2952,-5.548,-5.7601,-5.8966,-5.9977,-6.0709,-6.0935,-6.1028,-6.0996,-6.0347,-6.0175,-6.0375,-5.9817,-5.966,-5.9834,-5.9492,-5.9394,-5.9365,-5.8505,-5.7965,-5.7596,-5.6578,-5.6191,-5.6181,-5.6084,-5.6051,-5.6019,-5.582,-5.5633,-5.5472,-5.5338,-5.5071,-5.4708,0.0,0.0,0.0,0.0,0.0,0.0,0.0,0.0,0.0,0.0,0.0,0.0,0.0,0.0,-4.6326,0.0,0.0,-4.4889,-4.4383,-4.4317,-4.4084,-4.3422,-4.2848,-4.2476,-4.2444,-4.1171,-4.0625,-4.1491,-3.9751,-3.9615,-4.2263,-3.9472,-3.8667,-4.0997,-3.8635,-3.7725,-3.8912,-3.8945,-3.8945,-3.8945,-4.011,-4.068,-4.0694,-4.1299,-4.1866,-4.2395,-4.2395,-4.2265,-4.202,-4.202,-4.1847,-4.1657,-4.2208,-4.2805,-4.329,-4.329,-4.329,-4.329,-4.329,-4.3135,-4.2851,0.0,0.0,0.0,0.0,0.0,0.0,0.0,0.0,0.0,0.0,0.0,-2.4363,-2.1384,-2.2313,-2.3489,0.0,0.0,0.0,0.0,-3.92,-4.1977,-4.5973,-4.9651,-5.2813,-5.5389,-5.749,-5.9096,-6.0151,-6.069,-6.0902,-6.0867,-6.0867,-6.0877,-6.0907,-6.0999,-6.1068,-6.1022,-6.0477,-6.0331,-6.0389,-5.9508,-5.9275,-5.9218,-5.7268,-5.6522,-5.6498,-5.632,-5.6232,-5.6227,-5.6202,-5.6065,-5.5896,-5.5896,-5.5603,-5.513,-5.4629,-5.4129,0.0,0.0,0.0,0.0,0.0,0.0,0.0,0.0,0.0,-4.903,-4.8025,-4.7076,-4.6441,-4.6441,-4.5626,-4.4926,-4.4926,-4.4702,-4.4191,-4.3197,-4.2832,-4.2331,-4.1383,-3.9974,-3.9629,-4.1084,-3.8873,-3.8813,-4.2353,-3.9366,-3.8282,-4.0395,-3.8899,-3.8002,-3.8002,-3.8249,-3.8249,-3.8002,-3.9184,-3.9794,-3.9794,-4.0715,-4.1302,-4.1516,-4.1516,-4.1255,-4.0832,-4.0766,-4.0435,-4.0095,-4.0916,-4.1823,-4.2644,-4.2644,-4.2644,-4.2684,-4.313,-4.329,-4.329,0.0,0.0,0.0,0.0,0.0,0.0,0.0,0.0,0.0,0.0,0.0,0.0,0.0,0.0,0.0,0.0,0.0,0.0,-3.3468,-3.4838,-3.7306,-4.1461,-4.4863,-4.8459,-5.2306,-5.5,-5.7077,-5.8578,-5.9267,-5.9874,-6.0378,-6.0378,-6.0696,-6.1236,-6.1259,-6.1273,-6.1254,-6.1198,-6.1232,-6.1289,-6.0408,-6.0134,-6.0078,-5.8358,-5.7712,-5.7593,-5.6694,-5.6377,-5.6365,-5.6232,-5.6065,-5.5896,-5.5896,-5.5779,-5.5476,-5.4735,0.0,-5.3389,-5.2611,-5.1873,-5.0879,-4.9061,-4.969,-5.0088,0.0,0.0,-4.7785,-4.7021,-4.6112,-4.544,-4.544,-4.4461,-4.3603,-4.3603,-4.2655,-4.1879,-4.1744,-4.0854,-4.014,-4.002,-3.9825,-3.9804,-3.996,-3.8717,-3.8536,-4.0101,-3.8753,-3.8464,-3.9817,-3.8674,-3.8002,-3.8002,-3.9039,-3.9088,-3.8002,-3.9184,-3.9794,-3.9794,-3.9923,-4.0495,-4.1516,-4.1516,-4.1475,-4.1379,-4.09,-4.0669,-4.0573,-4.0237,-4.0159,-4.0289,-4.0289,-4.0289,-4.0546,-4.2563,-4.329,-4.329,0.0,0.0,0.0,0.0,0.0,0.0,0.0,0.0,0.0,0.0,0.0,0.0,0.0,0.0,0.0,0.0,0.0,0.0,-3.1221,-3.1414,-3.3501,-3.8139,-4.2582,-4.6697,-5.0484,-5.3301,-5.5544,-5.7193,-5.7777,-5.8427,-5.9143,-5.9143,-5.9513,-6.0201,-6.0469,-6.0605,-6.0616,-6.0896,-6.1092,-6.1142,-6.0385,-6.0168,-6.0119,-5.8514,-5.789,-5.7792,-5.6985,-5.6684,0.0,0.0,-5.6723,-5.6956,-5.6725,-5.6404,-5.5993,-5.5465,-5.4576,0.0,-5.182,-5.1156,-5.0633,0.0,-4.9415,-4.9582,-4.8246,-4.815,-4.8126,-4.7239,-4.6738,-4.6456,-4.6456,-4.5434,-4.4538,0.0,-4.3515,-4.2403,-4.1658,-4.1156,-4.055,-3.9811,-3.9761,-3.9739,-3.9812,-3.902,-3.9156,-4.0695,-3.9385,-3.9027,-4.0197,-3.9469,-3.8981,-3.8981,-3.9473,-3.9523,-3.8981,-3.9473,-3.9761,-3.9761,-3.9761,-3.9984,-4.0438,-4.0438,-4.0256,-3.9952,-3.9364,-3.9329,-3.9629,-3.9387,-3.954,-3.9899,-3.9899,-4.0332,-4.1,-4.1947,-4.233,-4.2412,0.0,0.0,0.0,0.0,0.0,0.0,0.0,0.0,0.0,0.0,0.0,0.0,0.0,0.0,0.0,0.0,0.0,0.0,0.0,-3.0454,-3.164,-3.5567,-4.0346,-4.4456,-4.777,-5.0683,-5.2946,-5.45,-5.5302,-5.6082,-5.6786,-5.7048,-5.7513,-5.8183,-5.8694,-5.9007,-5.9166,-5.9696,-6.0066,-6.0259,-5.9779,-5.9684,-5.9695,-5.8347,-5.789,-5.7883,-5.7157,-5.6903,0.0,0.0,-5.7176,-5.7503,-5.696,-5.6516,-5.6089,-5.5537,-5.465,-5.3444,-5.1566,0.0,0.0,-4.9499,-4.917,-4.904,-4.8486,-4.8377,-4.8183,-4.7452,-4.7019,-4.6785,-4.6785,-4.5734,0.0,-4.4396,-4.3598,-4.2558,-4.1269,-4.1082,-4.0743,-3.9788,-3.9697,-3.9715,-3.979,-3.9383,-3.9621,-4.091,-3.9842,-3.9474,-4.0322,-3.9956,-3.9697,-3.9697,-3.9697,-3.9697,-3.9697,-3.9697,-3.9697,-3.9697,-3.9697,-3.9697,-3.9697,-3.9697,-3.9484,-3.9069,-3.8492,-3.8481,-3.8899,-3.8574,-3.8741,-3.9146,-3.9339,-3.9915,-4.0718,-4.1378,-4.1809,-4.2193,0.0,0.0,0.0,0.0,0.0,0.0,0.0,0.0,0.0,0.0,0.0,0.0,0.0,0.0,0.0,0.0,0.0,0.0,0.0,-3.2748,-3.251,-3.3843,-3.7565,-4.0832,-4.3358,-4.6555,-4.867,-4.9691,-5.1411,-5.2506,-5.2996,-5.3891,-5.4565,-5.5075,-5.573,-5.6271,-5.6749,-5.7415,-5.8047,-5.8574,-5.8554,-5.8705,-5.8853,-5.8014,-5.7906,-5.8073,-5.722,0.0,0.0,0.0,-5.7106,-5.6962,-5.6031,-5.5731,0.0,-5.4382,-5.3788,-5.3264,0.0,0.0,-5.1382,-4.9345,-4.8835,-4.8579,-4.7566,-4.7337,-4.7352,-4.7309,-4.6299,-4.5448,-4.5448,-4.4396,-4.317,-4.1936,-4.169,-4.1219,-3.9929,-3.9736,-3.9736,-3.9697,-3.9697,-3.9685,0.0,-3.9711,-3.9711,-3.9737,-3.9711,-3.9659,-3.9724,-3.9736,-3.9697,-3.9697,-3.9697,-3.9697,-3.9697,-3.9697,-3.9697,-3.9697,-3.9697,-3.9697,-3.9697,-3.9697,-3.9685,-3.9634,-3.9082,-3.8881,-3.8831,-3.7723,-3.727,-3.7326,-3.7932,-3.8153,-3.8456,-4.076,-4.229,-4.325,0.0,0.0,0.0,0.0,0.0,0.0,0.0,0.0,0.0,0.0,0.0,0.0,0.0,0.0,0.0,0.0,0.0,0.0,0.0,-3.5102,-3.471,-3.5815,-3.8744,-4.1252,-4.3157,-4.5862,-4.7749,-4.8758,-4.9378,-4.9992,-5.0629,-5.0912,-5.1784,-5.3069,-5.3596,-5.4531,-5.5727,-5.6583,-5.7315,-5.7889,-5.7718,-5.7747,-5.7871,-5.7594,-5.7432,-5.7385,0.0,0.0,0.0,0.0,0.0,-5.7234,-5.6174,-5.5637,-5.5193,-5.4009,-5.3078,-5.2205,-5.1155,0.0,-4.952,-4.8157,-4.7792,-4.7722,-4.7381,-4.7309,-4.7309,-4.7309,-4.6975,-4.6638,-4.6638,-4.5629,-4.4349,-4.3074,-4.2168,-4.1169,-3.989,-3.9697,-3.9697,-3.9697,-3.9697,0.0,0.0,0.0,0.0,-3.9697,-3.9697,-3.9697,-3.9697,-3.9697,-3.9697,-3.9697,-3.9697,-3.9697,-3.9697,-3.9697,-3.9697,-3.9697,-3.9697,-3.9697,-3.9697,-3.9697,-3.9697,-3.9685,-3.9496,-3.9207,-3.8856,-3.804,-3.7513,-3.7268,-3.7853,-3.8604,-3.9492,-4.1028,-4.233,-4.329,0.0,0.0,0.0,0.0,0.0,0.0,0.0,0.0,0.0,0.0,0.0,0.0,0.0,0.0,0.0,0.0,0.0,0.0,0.0,0.0,-3.8605,-3.8639,-4.0858,-4.258,-4.3604,-4.5626,-4.6811,-4.7093,-4.7035,-4.7039,-4.7169,-4.7089,-4.7869,-4.9396,-5.0295,-5.1715,-5.3545,-5.4723,-5.6015,-5.7187,-5.6656,-5.6749,-5.7148,-5.6792,-5.6504,0.0,0.0,0.0,0.0,0.0,0.0,-5.7134,-5.5855,-5.48,-5.3931,-5.318,-5.2205,-5.1155,-5.0126,-4.9336,-4.8553,-4.7523,-4.7309,-4.7309,-4.7309,-4.7309,-4.7309,-4.7309,-4.6931,-4.6638,-4.6638,-4.5584,-4.4303,-4.3026,-4.2119,-4.1169,-3.989,-3.9697,-3.9697,-3.9697,-3.9697,0.0,0.0,0.0,0.0,-3.9697,-3.9697,-3.9697,-3.9697,-3.9697,-3.9697,-3.9697,-3.9697,-3.9697,-3.9697,-3.9697,-3.9697,-3.9697,-3.9697,-3.9697,-3.9697,-3.9697,-3.9697,-3.9697,-3.9697,-3.9496,-3.9107,-3.8329,-3.7801,-3.7581,-3.8424,-3.9227,-4.0073,-4.1643,-4.2684,-4.329,0.0,0.0,0.0,0.0,0.0,0.0,0.0,0.0,0.0,0.0,0.0,0.0,0.0,0.0,0.0,0.0,0.0,0.0,0.0,0.0,0.0,-4.2085,-4.3646,-4.4559,-4.4553,-4.5734,-4.5893,-4.4989,-4.474,-4.4148,-4.3268,-4.3072,-4.3586,-4.4773,-4.6369,-4.8345,-5.0567,-5.2171,-5.4265,-5.6452,-5.5515,-5.5773,-5.6614,-5.5711,0.0,0.0,0.0,0.0,0.0,0.0,0.0,0.0,0.0,-5.3196,-5.1819,-5.1783,-5.1085,-5.0087,-4.9069,-4.8743,-4.8486,-4.7538,-4.7309,-4.7266,-4.7207,-4.7207,-4.7207,-4.7207,-4.6255,-4.5403,0.0,0.0,-4.3218,-4.1985,-4.1739,-4.1269,-3.9981,-3.9788,-3.9788,0.0,0.0,0.0,0.0,0.0,0.0,-3.9697,0.0,-3.9697,-3.9697,-3.9697,-3.9697,-3.9697,-3.9697,-3.9697,-3.9697,-3.9697,-3.9697,-3.9697,-3.9697,-3.9697,-3.9697,-3.9697,-3.9697,-3.9697,-3.9697,-3.9697,-3.9609,-3.8517,-3.8101,-3.822,-3.9478,-3.9986,-4.0246,-4.2467,-4.329,-4.329,0.0,0.0,0.0,0.0,0.0,0.0,0.0,0.0,0.0,0.0,0.0,0.0,0.0,0.0,0.0,0.0,0.0,0.0,0.0,0.0,0.0,0.0,0.0,-4.6807,-4.6507,-4.7615,-4.7936,-4.742,-4.7337,-4.7191,-4.6947,-4.6897,-4.7563,-4.8822,-4.9233,-5.0677,-5.2789,-5.3423,-5.4442,-5.5631,0.0,-5.5603,-5.5707,0.0,0.0,0.0,0.0,0.0,0.0,0.0,0.0,0.0,0.0,-5.1054,-5.0939,-5.0232,-4.9658,-4.9135,-4.8866,-4.8252,-4.7609,-4.7337,-4.7309,-4.7062,-4.6107,-4.5869,-4.5869,-4.5869,-4.5644,-4.5689,0.0,0.0,0.0,-4.4503,-4.3646,0.0,-4.1269,-4.1119,0.0,0.0,0.0,-3.9697,-3.9697,-3.9697,0.0,0.0,-3.9697,-3.9697,-3.9697,-3.9697,-3.9697,-3.9697,-3.9697,-3.9697,-3.9697,-3.9697,-3.9697,-3.9697,-3.9697,-3.9697,-3.9697,-3.9697,-3.9697,-3.9697,-3.9697,-3.9697,-3.9699,-3.9419,-3.9316,-3.9472,-4.0691,-4.1169,-4.1337,-4.2765,-4.329,-4.329,0.0,0.0,0.0,0.0,0.0,0.0,0.0,0.0,0.0,0.0,0.0,0.0,0.0,0.0,0.0,0.0,0.0,0.0,0.0,0.0,0.0,0.0,-5.0064,-4.9764,-4.9483,-5.0097,-5.0105,-4.948,0.0,0.0,-4.8065,-4.759,-4.8019,-4.9316,-4.9719,-5.1053,-5.3025,-5.3583,0.0,0.0,0.0,0.0,0.0,0.0,0.0,0.0,0.0,0.0,0.0,0.0,0.0,-5.0476,-4.997,-4.9466,-4.8973,-4.8447,0.0,-4.7699,-4.7699,-4.751,-4.7309,-4.7309,-4.7309,-4.7121,-4.6403,-4.6211,-4.6211,-4.6211,-4.6211,0.0,0.0,0.0,0.0,0.0,0.0,0.0,-4.169,-4.1119,-4.0503,0.0,-3.9697,0.0,-3.9697,-3.9697,-3.9798,0.0,-4.0061,-4.0061,-4.0061,-4.0061,-4.0061,-4.0061,-3.9823,-3.9697,-3.9697,-3.9697,-3.9697,-3.9697,-3.9697,-3.9697,-3.9697,-3.9697,-3.9697,-3.9697,0.0,-3.9697,-3.9712,-3.9748,-3.9794,-3.9946,-4.1125,-4.1587,-4.1726,-4.29,-4.329,-4.329,0.0,0.0,0.0,0.0,0.0,0.0,0.0,0.0,0.0,0.0,0.0,0.0,0.0,0.0,0.0,0.0,0.0,0.0,0.0,0.0,0.0,-5.3876,-5.335,-5.2955,-5.2791,-5.2808,-5.2387,-5.1521,-5.0475,0.0,0.0,0.0,0.0,0.0,0.0,0.0,0.0,0.0,0.0,0.0,0.0,0.0,0.0,0.0,0.0,0.0,0.0,0.0,0.0,0.0,-4.9141,-4.9501,-4.9347,-4.8134,-4.671,-4.6593,-4.6371,-4.6187,-4.6187,-4.6681,-4.7174,-4.7174,-4.7234,-4.7251,-4.7062,-4.7062,-4.7062,-4.7062,0.0,-4.7121,-4.7266,0.0,-4.5448,-4.5629,0.0,-4.1941,-4.1874,-4.0817,-3.9994,-3.9736,-3.9697,-3.9697,-3.9697,-3.9697,-3.9885,-4.0375,-4.0538,-4.0626,-4.0626,-4.0563,-4.0488,-4.0413,-3.9936,-3.9697,-3.9697,-3.9697,-3.9697,-3.9697,-3.9697,-3.9697,-3.9697,-3.9697,-3.9788,-3.9929,0.0,0.0,-4.0071,-4.0228,-4.0248,-4.0234,-4.1398,-4.185,-4.1932,-4.2941,-4.329,-4.329,0.0,0.0,0.0,0.0,0.0,0.0,0.0,0.0,0.0,0.0,-5.4413,-5.4111,0.0,0.0,0.0,0.0,0.0,0.0,0.0,0.0,0.0,-5.5335,-5.534,-5.5158,-5.4793,-5.4911,-5.4724,-5.4218,-5.4008,0.0,0.0,0.0,0.0,0.0,0.0,0.0,0.0,0.0,0.0,0.0,0.0,0.0,0.0,0.0,0.0,0.0,0.0,0.0,0.0,0.0,-4.7902,-4.7851,-4.7068,-4.6397,-4.5766,-4.4961,-4.5109,-4.5469,-4.5469,-4.5978,-4.6444,-4.6444,-4.6905,-4.7019,-4.5973,-4.5734,0.0,0.0,0.0,-4.6062,-4.7121,-4.6255,0.0,-4.6785,0.0,0.0,0.0,0.0,-4.1439,0.0,0.0,0.0,0.0,0.0,0.0,0.0,0.0,0.0,-4.115,-4.0764,-4.0312,-3.9848,-3.9747,-3.9697,-3.9697,-3.9697,-3.9697,-3.9697,-3.9697,-3.9697,-3.9697,-3.9697,-4.0262,-4.1269,0.0,0.0,-4.2045,-4.2561,-4.2446,-4.2008,-4.272,-4.3036,-4.3036,-4.325,-4.329,-4.329,0.0,0.0,0.0,0.0,0.0,0.0,0.0,-5.5722,-5.5738,-5.5516,-5.5207,-5.4985,-5.4921,-5.4967,0.0,0.0,0.0,0.0,0.0,0.0,0.0,0.0,-5.5976,-5.5923,-5.5627,-5.5775,-5.5765,0.0,0.0,0.0,0.0,0.0,0.0,0.0,0.0,0.0,0.0,0.0,0.0,0.0,0.0,0.0,0.0,0.0,0.0,0.0,0.0,0.0,0.0,0.0,-4.7688,-4.6712,-4.5778,-4.4998,-4.4367,-4.3898,-4.4272,-4.4781,-4.4781,-4.5274,-4.5783,-4.5783,-4.6022,-4.6167,-4.5917,0.0,0.0,0.0,-4.6403,-4.6594,-4.7207,0.0,0.0,0.0,0.0,0.0,0.0,0.0,0.0,0.0,0.0,0.0,0.0,0.0,0.0,0.0,0.0,0.0,-4.1275,-4.1037,-4.0563,-3.9722,-3.9697,-3.9697,-3.9697,-3.9697,-3.9697,-3.9697,-3.9697,-3.9697,-3.9697,-3.9697,-4.0415,-4.1578,0.0,0.0,-4.2523,-4.2746,-4.2711,-4.2465,-4.3057,-4.329,-4.329,-4.329,-4.329,-4.329,0.0,0.0,0.0,0.0,0.0,0.0,0.0,-5.5883,-5.572,-5.5318,-5.5182,-5.5083,-5.4995,-5.4879,-5.481,0.0,0.0,0.0,0.0,0.0,0.0,0.0,0.0,-5.6066,-5.5897,0.0,0.0,0.0,0.0,0.0,0.0,0.0,0.0,0.0,0.0,0.0,0.0,0.0,0.0,0.0,0.0,0.0,0.0,0.0,0.0,0.0,0.0,0.0,0.0,0.0,-4.7737,-4.633,-4.5395,-4.4282,-4.329,-4.329,-4.3663,-4.4107,-4.4107,-4.4586,-4.5095,-4.5095,-4.5185,-4.5484,-4.6172,-4.6279,0.0,0.0,-4.7309,-4.7309,-4.7309,0.0,-4.7249,0.0,0.0,0.0,0.0,0.0,0.0,0.0,0.0,0.0,0.0,0.0,0.0,0.0,0.0,0.0,0.0,-4.1112,-4.0714,-3.9722,-3.9697,-3.9697,-3.9697,-3.9697,-3.9697,-3.9697,-3.9697,-3.9839,-4.0121,-4.0121,-4.0867,-4.2148,0.0,0.0,0.0,-4.2812,-4.2719,-4.2629,-4.3093,-4.329,-4.329,-4.329,-4.3448,-4.363,0.0,0.0,0.0,0.0,0.0,0.0,0.0,-5.5805,-5.5568,-5.5174,-5.4814,-5.4409,-5.3984,-5.4291,-5.4537,0.0,0.0,0.0,0.0,0.0,0.0,0.0,0.0,0.0,0.0,0.0,0.0,0.0,0.0,0.0,0.0,0.0,0.0,0.0,0.0,0.0,0.0,0.0,0.0,0.0,0.0,0.0,0.0,0.0,0.0,0.0,0.0,0.0,0.0,0.0,0.0,-4.7306,-4.6365,-4.4803,-4.329,-4.329,0.0,0.0,-4.3379,-4.3858,-4.4407,-4.4407,-4.4855,-4.5484,-4.6172,0.0,0.0,-4.7174,-4.7309,-4.7309,-4.7309,-4.7309,-4.7115,0.0,0.0,0.0,0.0,0.0,0.0,0.0,0.0,0.0,0.0,0.0,0.0,0.0,0.0,0.0,0.0,-4.0588,-4.0325,-3.971,-3.9697,-3.9697,-3.9697,-3.9697,-3.9697,-3.9697,-3.9697,-4.0313,-4.1406,-4.1406,-4.2405,-4.4122,0.0,0.0,0.0,-4.4143,-4.3781,-4.3205,-4.3265,-4.329,-4.329,-4.329,-4.3888,-4.4662,0.0,0.0,0.0,0.0,0.0,0.0,-5.3962,-5.3867,-5.3601,-5.2975,-5.2719,-5.2467,-5.2043,-5.2159,-5.2661,0.0,0.0,0.0,0.0,0.0,0.0,0.0,0.0,0.0,0.0,0.0,0.0,0.0,0.0,0.0,0.0,0.0,0.0,0.0,0.0,0.0,0.0,0.0,0.0,0.0,0.0,0.0,0.0,0.0,0.0,0.0,0.0,0.0,0.0,0.0,0.0,0.0,-4.6986,-4.5726,0.0,0.0,-4.3771,-4.329,-4.329,-4.3484,-4.3678,-4.3678,-4.3888,-4.4287,-4.496,0.0,-4.5304,-4.5963,-4.6097,-4.6097,-4.6097,-4.6097,-4.6007,0.0,0.0,0.0,0.0,0.0,0.0,0.0,0.0,0.0,0.0,0.0,0.0,0.0,0.0,0.0,0.0,-4.0337,-4.0262,-3.971,-3.9697,-3.9697,-3.9697,-3.9697,-3.9697,-3.9697,-3.9697,-4.0364,-4.1591,-4.1199,-4.2215,-4.4365,0.0,0.0,0.0,-4.3843,-4.3529,-4.329,-4.329,-4.329,-4.3369,-4.3989,-4.445,-4.4871,0.0,0.0,0.0,0.0,0.0,-5.3166,-5.2676,-5.2609,-5.2308,-5.1512,-5.1409,-5.125,-5.0844,-5.0802,-5.1261,-5.2399,-5.2743,0.0,0.0,0.0,0.0,0.0,0.0,0.0,0.0,0.0,0.0,0.0,0.0,0.0,0.0,0.0,0.0,0.0,0.0,0.0,0.0,0.0,0.0,0.0,0.0,0.0,0.0,0.0,0.0,0.0,0.0,0.0,0.0,0.0,0.0,0.0,0.0,0.0,0.0,0.0,-4.4706,-4.4151,-4.4151,-4.4151,-4.4074,-4.381,-4.3732,-4.3914,0.0,0.0,-4.4976,-4.5934,-4.5925,-4.5697,-4.5697,-4.5481,-4.5229,0.0,0.0,-4.4009,0.0,0.0,0.0,0.0,0.0,0.0,0.0,0.0,0.0,0.0,0.0,0.0,0.0,-4.0061,-4.0099,-3.9697,-3.9697,-3.9697,-3.9697,-3.9697,-3.9697,-3.9697,-3.9697,-4.0464,-4.1852,-4.1389,-4.2352,0.0,0.0,0.0,0.0,-4.3484,-4.329,-4.3329,-4.363,-4.3732,-4.3849,-4.4856,-4.5395,-4.5706,0.0,0.0,0.0,0.0,0.0,0.0,-5.2659,-5.2609,-5.2308,-5.1512,-5.1409,-5.125,-5.0844,-5.0802,-5.082,-5.082,-5.082,0.0,0.0,0.0,0.0,0.0,0.0,0.0,0.0,0.0,-5.3037,-5.2641,-5.2641,0.0,0.0,0.0,0.0,0.0,0.0,0.0,0.0,0.0,0.0,0.0,0.0,0.0,0.0,0.0,0.0,0.0,0.0,0.0,0.0,0.0,0.0,0.0,0.0,0.0,0.0,0.0,-4.6173,-4.6173,-4.6173,-4.6173,-4.5941,-4.502,-4.4774,-4.4945,0.0,0.0,-4.6135,-4.7739,-4.733,-4.6701,-4.6701,-4.5925,-4.508,-4.4421,0.0,0.0,0.0,0.0,0.0,0.0,0.0,0.0,0.0,0.0,0.0,0.0,0.0,0.0,0.0,0.0,-3.9697,-3.9697,-3.9697,-3.9697,-3.9697,-3.9697,-3.9697,-3.9697,-3.9697,-4.0683,-4.2466,-4.2466,0.0,0.0,0.0,0.0,0.0,-4.329,-4.329,-4.3409,-4.4412,-4.4774,-4.4909,-4.5834,-4.6781,-4.7589,0.0,0.0,0.0,0.0,0.0,0.0,0.0,-5.0062,-4.9875,-4.9344,-4.927,-4.9232,-4.9115,-4.9095,-4.9095,-4.9095,-5.0141,0.0,0.0,0.0,0.0,0.0,0.0,0.0,0.0,0.0,-5.2322,-5.2191,-5.2191,-5.2115,-5.1997,-5.1997,0.0,0.0,0.0,0.0,0.0,0.0,0.0,0.0,0.0,0.0,0.0,0.0,0.0,0.0,0.0,0.0,0.0,0.0,0.0,0.0,0.0,0.0,0.0,-4.8015,0.0,0.0,-4.6208,-4.6208,-4.6154,-4.5834,-4.5762,-4.5825,-4.5995,-4.6043,-4.6179,-4.669,-4.606,-4.5394,-4.5394,-4.4589,-4.3843,-4.3633,-4.3293,0.0,0.0,0.0,0.0,0.0,0.0,0.0,0.0,0.0,0.0,0.0,0.0,0.0,0.0,0.0,-3.9697,-3.9697,-3.9697,-3.9697,-3.9697,-3.9697,-3.9697,-3.9685,-3.932,-4.0307,-4.2471,-4.1631,0.0,0.0,0.0,0.0,0.0,-4.329,-4.3708,-4.4373,-4.4662,-4.519,-4.5869,-4.6815,-4.734,-4.7688,0.0,0.0,0.0,0.0,0.0,0.0,0.0,-4.9013,-4.8761,-4.8345,-4.8306,-4.8306,-4.8306,-4.8306,-4.8306,-4.8306,-4.926,0.0,0.0,0.0,0.0,0.0,0.0,0.0,0.0,-5.1061,-5.0968,-5.083,-5.083,-5.0751,-5.0607,-5.0607,-5.0457,-5.0194,0.0,0.0,0.0,0.0,0.0,0.0,0.0,0.0,-4.5991,0.0,0.0,0.0,0.0,0.0,0.0,0.0,0.0,0.0,0.0,0.0,0.0,0.0,-4.8193,-4.7273,0.0,-4.7273,-4.7155,-4.6815,-4.6747,0.0,0.0,-4.6747,-4.685,-4.7172,-4.6504,-4.5742,-4.5395,-4.4533,-4.3732,-4.3369,0.0,0.0,0.0,0.0,0.0,0.0,0.0,0.0,0.0,0.0,0.0,0.0,0.0,0.0,0.0,0.0,-4.0224,-3.9749,-3.9697,-3.9697,-3.9697,-3.9697,-3.9828,-4.0044,-3.9699,-4.0557,-4.2418,0.0,0.0,0.0,0.0,0.0,0.0,-4.329,-4.3888,-4.4849,-4.519,-4.5905,-4.685,-4.777,-4.8129,-4.8225,0.0,0.0,0.0,0.0,0.0,0.0,0.0,-4.8923,-4.856,-4.8179,-4.8141,-4.8141,-4.8141,-4.8141,-4.8159,-4.8214,0.0,0.0,0.0,0.0,0.0,0.0,0.0,0.0,-4.9401,-4.9416,-4.9234,-4.8846,-4.8846,-4.8639,-4.8248,-4.8248,-4.821,-4.8152,-4.7533,-4.7237,-4.7128,-4.5933,-4.5433,-4.5399,-4.4841,-4.4615,0.0,0.0,0.0,0.0,0.0,0.0,0.0,0.0,0.0,0.0,0.0,0.0,0.0,0.0,0.0,0.0,0.0,-4.9001,0.0,0.0,0.0,0.0,0.0,-4.7688,0.0,-4.8829,-4.8257,-4.734,-4.6454,-4.5525,-4.4586,-4.3551,0.0,0.0,0.0,0.0,0.0,0.0,0.0,0.0,0.0,0.0,0.0,0.0,0.0,0.0,0.0,0.0,0.0,-3.989,-3.9711,-3.9647,-3.9697,-3.975,-4.0044,-4.0601,-4.0606,-4.123,-4.2395,0.0,0.0,0.0,0.0,0.0,0.0,-4.3369,-4.3989,-4.4983,-4.5941,-4.6884,-4.7803,-4.8688,-4.9001,-4.9001,0.0,0.0,0.0,0.0,0.0,0.0,0.0,0.0,0.0,0.0,-4.6452,-4.6452,-4.6452,-4.6452,-4.6709,0.0,0.0,0.0,0.0,0.0,0.0,0.0,0.0,0.0,-4.8568,-4.8568,-4.8532,-4.8439,-4.8439,-4.8174,-4.7614,-4.7614,-4.7324,-4.6824,-4.6209,-4.5699,-4.5249,-4.4934,-4.4814,-4.4786,-4.4654,-4.4615,0.0,0.0,0.0,0.0,-4.5686,-4.5957,0.0,0.0,0.0,0.0,0.0,0.0,0.0,0.0,-4.8578,-4.9001,-4.9001,0.0,-4.894,-4.8719,-4.8688,-4.8688,0.0,-4.8688,-4.8719,-4.8954,0.0,-4.7523,-4.7306,-4.6504,-4.5561,0.0,0.0,0.0,0.0,0.0,0.0,0.0,0.0,0.0,0.0,0.0,0.0,0.0,0.0,0.0,0.0,0.0,0.0,-4.1169,-3.9803,-3.927,-3.9685,-4.018,-4.0452,-4.0588,-4.0641,-4.1299,-4.2381,0.0,0.0,0.0,0.0,0.0,-4.3369,-4.4143,-4.5005,-4.5977,-4.6918,-4.7836,-4.8688,-4.894,-4.9001,-4.9001,0.0,0.0,0.0,0.0,0.0,0.0,0.0,0.0,0.0,0.0,0.0,0.0,0.0,0.0,0.0,0.0,0.0,0.0,0.0,0.0,0.0,0.0,0.0,-4.8306,-4.8306,-4.8306,-4.8306,-4.8306,-4.769,-4.7229,-4.6865,-4.6234,-4.5749,-4.5368,-4.4761,-4.4147,-4.3548,-4.3548,-4.3724,-4.4045,-4.4045,0.0,0.0,0.0,0.0,0.0,-4.5043,-4.5196,0.0,-4.5652,-4.6007,-4.6295,0.0,0.0,0.0,0.0,-4.7682,-4.7986,-4.7986,-4.8477,-4.9001,-4.9001,-4.9001,-4.9001,-4.9001,0.0,0.0,0.0,0.0,-4.8112,-4.7688,-4.7189,0.0,0.0,0.0,0.0,0.0,0.0,0.0,0.0,0.0,0.0,0.0,0.0,0.0,0.0,0.0,0.0,0.0,0.0,0.0,0.0,-4.0278,-3.9318,-3.9308,-3.9936,-4.0383,-4.0642,-4.1207,-4.1939,-4.2787,-4.2491,0.0,0.0,0.0,0.0,-4.4043,-4.4586,-4.5613,-4.6884,-4.7406,-4.8193,-4.9001,-4.9001,-4.9001,-4.9001,0.0,0.0,0.0,0.0,0.0,0.0,0.0,0.0,0.0,0.0,0.0,0.0,0.0,0.0,0.0,0.0,0.0,0.0,0.0,0.0,0.0,0.0,-4.7939,-4.7939,-4.7939,-4.7939,-4.7939,-4.7939,-4.6701,-4.6112,-4.6073,-4.4715,-4.4016,-4.3885,-4.3371,-4.2834,-4.2286,-4.2286,-4.2658,-4.325,-4.325,0.0,0.0,0.0,0.0,0.0,0.0,0.0,0.0,-4.4615,-4.501,-4.5534,-4.5534,0.0,0.0,0.0,0.0,0.0,-4.6786,-4.7789,-4.8833,-4.8846,-4.8832,-4.8866,-4.8984,0.0,0.0,0.0,0.0,0.0,0.0,0.0,0.0,0.0,0.0,0.0,0.0,0.0,0.0,0.0,0.0,0.0,0.0,0.0,0.0,0.0,0.0,0.0,0.0,0.0,0.0,0.0,-4.0683,-3.9529,-3.9165,-3.966,-4.0291,-4.0977,-4.2024,-4.2816,-4.329,-4.329,0.0,0.0,0.0,0.0,-4.4812,-4.5132,-4.6154,-4.7622,-4.777,-4.8289,-4.9001,-4.9001,-4.9001,-4.9001,0.0,0.0,0.0,0.0,0.0,0.0,0.0,0.0,0.0,0.0,0.0,0.0,0.0,0.0,0.0,0.0,0.0,0.0,0.0,0.0,0.0,-4.625,-4.6269,-4.6269,-4.6269,-4.6269,-4.6269,-4.6269,-4.5611,-4.526,-4.516,-4.3996,-4.3143,-4.2594,-4.2507,-4.2392,-4.2286,-4.2286,-4.2354,-4.2472,-4.2472,0.0,0.0,0.0,0.0,0.0,0.0,0.0,0.0,-4.4615,-4.4682,-4.4784,-4.4784,0.0,0.0,0.0,0.0,0.0,-4.6786,-4.7352,-4.7928,-4.8052,-4.8058,-4.824,-4.8866,0.0,0.0,0.0,0.0,0.0,0.0,0.0,0.0,0.0,0.0,0.0,0.0,0.0,0.0,0.0,0.0,0.0,0.0,0.0,0.0,0.0,0.0,0.0,0.0,0.0,0.0,0.0,0.0,-3.9462,-4.04,-4.0499,-4.1074,-4.2167,-4.2823,-4.322,-4.329,-4.329,-4.329,0.0,0.0,-4.4662,-4.4909,-4.6504,-4.734,-4.7688,-4.8465,-4.8861,-4.9001,-4.9001,-4.9001,-4.9077,0.0,0.0,0.0,0.0,0.0,0.0,0.0,0.0,0.0,0.0,0.0,0.0,0.0,0.0,0.0,0.0,0.0,0.0,0.0,0.0,-4.4599,-4.4599,-4.4599,-4.5002,-4.5883,-4.5902,-4.5902,-4.5902,-4.4939,-4.4268,-4.3864,-4.2328,-4.1401,-4.1128,-4.1128,-4.1128,-4.1128,-4.1128,-4.1322,-4.1711,0.0,0.0,0.0,0.0,0.0,0.0,0.0,0.0,0.0,0.0,-4.4231,-4.4615,-4.4615,0.0,0.0,0.0,0.0,0.0,-4.5602,-4.5807,-4.6195,-4.7004,-4.7775,-4.8432,-4.8778,-4.8848,0.0,0.0,0.0,0.0,0.0,0.0,0.0,0.0,0.0,0.0,0.0,0.0,0.0,0.0,0.0,0.0,0.0,0.0,0.0,0.0,0.0,0.0,0.0,0.0,0.0,0.0,0.0,-4.0925,-4.2103,-4.1483,-4.1455,-4.1977,-4.2858,-4.329,-4.329,-4.329,-4.329,-4.3369,0.0,-4.5079,-4.567,-4.7036,-4.7901,-4.8401,-4.8829,-4.9001,-4.9001,-4.9001,-4.9243,-4.9593,0.0,0.0,0.0,0.0,0.0,0.0,0.0,0.0,0.0,0.0,0.0,0.0,0.0,0.0,0.0,0.0,0.0,0.0,0.0,0.0,-4.3515,-4.3515,-4.3375,-4.3942,-4.5314,-4.5333,-4.5333,-4.5333,-4.4041,-4.3054,-4.2284,-4.0924,-4.0229,-4.0096,-4.0096,-4.0096,-4.0096,-4.0096,-4.0434,-4.0933,0.0,0.0,0.0,0.0,0.0,0.0,0.0,0.0,0.0,0.0,0.0,0.0,0.0,0.0,0.0,-4.4547,-4.4615,-4.4615,-4.4615,-4.4692,-4.507,-4.6107,0.0,-4.8118,-4.8582,-4.8567,0.0,0.0,0.0,0.0,0.0,0.0,0.0,0.0,0.0,0.0,0.0,0.0,0.0,0.0,0.0,0.0,0.0,0.0,0.0,0.0,0.0,0.0,0.0,0.0,0.0,0.0,0.0,0.0,-4.329,-4.2152,-4.1726,-4.2029,-4.29,-4.329,-4.329,-4.329,-4.329,-4.3369,-4.4608,-4.5541,-4.6279,-4.744,-4.837,-4.9001,-4.9001,-4.9001,-4.9001,-4.9001,-4.9402,-5.0033,0.0,0.0,0.0,0.0,0.0,0.0,0.0,0.0,0.0,0.0,0.0,0.0,0.0,0.0,0.0,0.0,0.0,0.0,0.0,0.0,-4.3515,-4.3515,-4.3014,-4.305,-4.3663,-4.368,-4.368,-4.368,-4.2532,-4.1396,-4.0314,-4.0689,-4.0577,-4.0096,-4.0096,-4.0096,-4.0096,-4.0096,-4.013,-4.018,-4.018,0.0,0.0,0.0,0.0,0.0,0.0,0.0,0.0,0.0,0.0,0.0,0.0,0.0,-4.3639,-4.4395,-4.4615,-4.4615,-4.4615,-4.4998,-4.5451,-4.5555,-4.574,0.0,-4.8273,-4.8225,0.0,-4.8516,0.0,0.0,0.0,0.0,0.0,0.0,0.0,0.0,0.0,0.0,0.0,0.0,0.0,0.0,0.0,0.0,0.0,0.0,0.0,0.0,0.0,0.0,0.0,0.0,0.0,0.0,-4.329,-4.2152,-4.2111,-4.317,-4.325,-4.329,-4.329,-4.329,-4.329,-4.3394,-4.529,-4.6138,-4.6349,-4.8144,-4.894,-4.9001,-4.9001,-4.9001,-4.9001,-4.9001,-4.9402,-5.0118,0.0,0.0,0.0,0.0,0.0,0.0,0.0,0.0,0.0,0.0,0.0,0.0,0.0,0.0,0.0,0.0,0.0,0.0,0.0,-4.3515,-4.3515,-4.3515,-4.2976,-4.2958,-4.3497,-4.3178,-4.2995,-4.2995,-4.1814,-4.1036,-4.0601,-4.0473,-4.0286,-4.0096,-4.0096,-4.0096,-4.0096,-4.0096,-4.0096,-4.0096,-4.0096,-4.0096,0.0,0.0,0.0,0.0,0.0,0.0,0.0,0.0,-4.1914,-4.2417,0.0,-4.3037,-4.284,-4.3536,-4.3735,-4.3735,-4.3735,-4.4495,-4.5302,-4.5302,-4.5432,0.0,0.0,-4.7711,-4.7459,-4.7316,-4.7072,0.0,0.0,0.0,0.0,0.0,0.0,0.0,0.0,0.0,0.0,0.0,0.0,0.0,0.0,0.0,0.0,0.0,0.0,0.0,0.0,0.0,0.0,0.0,0.0,0.0,0.0,-4.286,-4.286,-4.329,-4.329,-4.329,-4.329,-4.329,-4.363,-4.4297,-4.5618,-4.6523,-4.7155,-4.8482,-4.9001,-4.9001,-4.9001,-4.9001,-4.9063,-4.9462,-5.0061,-5.077,0.0,0.0,0.0,0.0,0.0,0.0,0.0,0.0,0.0,0.0,0.0,0.0,0.0,0.0,0.0,0.0,0.0,0.0,-4.3515,-4.3515,-4.3427,-4.325,-4.2902,-4.2883,-4.3232,-4.2694,-4.25,-4.2711,-4.149,-4.0903,-4.088,-4.0343,-4.0096,-4.0096,-4.0096,-4.0096,-4.0096,-4.0096,-4.0096,-4.0096,-4.0096,-4.0096,0.0,0.0,0.0,0.0,0.0,0.0,0.0,0.0,-4.1426,0.0,0.0,0.0,0.0,-4.326,-4.345,-4.345,-4.345,-4.4109,-4.4875,0.0,0.0,0.0,-4.7096,-4.7237,-4.7021,-4.6756,-4.6383,0.0,0.0,0.0,0.0,0.0,0.0,0.0,0.0,0.0,0.0,0.0,0.0,0.0,0.0,0.0,0.0,0.0,0.0,0.0,0.0,0.0,0.0,0.0,0.0,0.0,0.0,-4.329,-4.329,-4.329,-4.329,-4.329,-4.329,-4.329,-4.3669,-4.4396,-4.5654,-4.6558,-4.7273,-4.8482,-4.9001,-4.9001,-4.9001,-4.9001,-4.9077,-4.9734,-5.0324,-5.0876,0.0,0.0,0.0,0.0,0.0,0.0,0.0,0.0,0.0,0.0,0.0,0.0,0.0,0.0,0.0,0.0,0.0,0.0,-4.3496,-4.3479,-4.325,-4.2731,-4.2711,-4.2693,-4.2711,-4.2121,-4.2101,-4.2674,-4.149,-4.088,-4.088,-4.0343,-4.0096,-4.0096,-4.0096,-4.0096,-4.0096,-4.0096,-4.0096,-4.0096,-4.0096,-4.0096,-4.0096,0.0,0.0,0.0,0.0,0.0,0.0,0.0,-4.0903,0.0,0.0,0.0,0.0,0.0,-4.4004,-4.4004,-4.4004,-4.4004,0.0,0.0,0.0,0.0,-4.7039,-4.6869,-4.6594,-4.7237,0.0,0.0,0.0,0.0,0.0,0.0,0.0,0.0,0.0,0.0,0.0,0.0,0.0,0.0,0.0,0.0,0.0,0.0,0.0,0.0,0.0,0.0,0.0,0.0,0.0,0.0,-4.329,-4.329,-4.329,-4.329,-4.329,-4.329,-4.329,-4.329,-4.329,-4.3433,-4.5363,-4.6208,-4.6349,-4.8225,-4.9001,-4.9001,-4.9001,-4.9001,-4.9077,-4.978,-5.0004,-5.0213,0.0,0.0,0.0,0.0,0.0,0.0,0.0,0.0,0.0,0.0,0.0,0.0,0.0,0.0,0.0,0.0,0.0,0.0,-4.2653,-4.2832,-4.3032,-4.325,-4.2483,-4.2282,-4.2692,-4.2121,-4.1686,-4.1446,-4.0696,-4.0336,-4.0319,-4.0154,-4.0096,-4.0096,-4.0096,-4.0096,-4.0096,-4.0096,-4.0096,-4.0096,-4.0096,-4.0096,-4.0096,0.0,0.0,0.0,0.0,0.0,0.0,0.0,0.0,0.0,0.0,0.0,0.0,-4.2908,-4.3082,-4.3082,-4.3082,0.0,0.0,0.0,0.0,0.0,0.0,-4.6061,0.0,0.0,0.0,0.0,0.0,0.0,0.0,0.0,0.0,0.0,0.0,0.0,0.0,0.0,0.0,0.0,0.0,0.0,0.0,0.0,0.0,0.0,0.0,0.0,0.0,0.0,0.0,0.0,-4.329,-4.329,-4.329,-4.329,-4.329,-4.329,-4.329,-4.329,-4.4051,-4.5363,-4.5961,-4.6952,-4.8225,-4.875,-4.9001,-4.9001,-4.9001,-4.9001,-4.9121,-5.0342,-5.077,-5.0981,0.0,0.0,0.0,0.0,0.0,0.0,0.0,0.0,0.0,0.0,-3.9129,0.0,0.0,0.0,0.0,0.0,0.0,0.0,0.0,-4.1868,-4.2014,-4.1923,-4.1739,-4.1744,-4.1979,-4.1874,-4.1402,-4.0577,-4.0473,-4.0417,-4.0417,-4.0204,-4.0096,-4.0096,-4.0096,-4.0096,-4.0096,-4.0096,-4.0096,-4.0096,-4.0096,-4.0229,-4.0417,0.0,0.0,0.0,0.0,0.0,0.0,0.0,0.0,0.0,0.0,0.0,0.0,-4.2902,-4.3014,-4.3014,-4.3014,0.0,0.0,0.0,0.0,0.0,0.0,0.0,0.0,0.0,0.0,0.0,0.0,0.0,0.0,0.0,0.0,0.0,0.0,0.0,0.0,0.0,0.0,0.0,0.0,0.0,0.0,0.0,0.0,0.0,0.0,0.0,0.0,0.0,0.0,0.0,-4.329,-4.329,-4.329,-4.329,-4.329,-4.3512,-4.3888,-4.3888,-4.4533,-4.5706,-4.6435,-4.7622,-4.9001,-4.9001,-4.9001,-4.9001,-4.9001,-4.9001,-4.9152,-5.0572,-5.1086,-5.1292,0.0,0.0,0.0,0.0,0.0,0.0,0.0,0.0,0.0,0.0,-3.8707,-3.8707,0.0,0.0,0.0,0.0,0.0,0.0,0.0,-4.0735,-4.058,-3.9611,-4.0642,-4.1065,-4.077,-4.1345,-4.1098,-3.9968,-4.0586,-4.088,-4.0827,-4.0336,-4.0121,-4.0154,-4.0121,-4.0121,-4.0154,-4.0121,-4.0096,-4.0096,-4.0096,-4.0392,-4.0827,-4.0827,0.0,0.0,0.0,0.0,0.0,0.0,0.0,0.0,0.0,0.0,-4.3515,-4.3515,-4.3515,-4.3515,0.0,0.0,0.0,0.0,0.0,0.0,0.0,0.0,0.0,0.0,0.0,0.0,0.0,0.0,0.0,0.0,0.0,0.0,0.0,0.0,0.0,0.0,0.0,0.0,0.0,0.0,0.0,0.0,0.0,0.0,0.0,0.0,0.0,0.0,0.0,0.0,-4.3536,-4.3536,-4.3536,0.0,-4.3536,-4.4028,-4.4909,-4.4849,-4.4871,-4.5153,-4.6934,-4.8225,-4.9001,-4.9001,-4.9001,-4.9001,-4.9001,-4.9032,-4.9256,-5.0599,-5.1138,-5.1368,0.0,0.0,0.0,0.0,0.0,0.0,0.0,0.0,0.0,0.0,0.0,0.0,0.0,0.0,0.0,0.0,0.0,0.0,0.0,0.0,-4.0312,-4.0129,-3.9987,-3.9871,-3.9805,-4.0289,-4.0013,-3.8928,-4.0262,-4.0679,-4.0262,-4.0146,-4.0319,-4.0726,-4.0286,-4.0319,-4.0703,-4.0286,-4.0096,-4.0096,-4.0096,-4.0154,-4.0262,-4.0262,-4.036,0.0,0.0,0.0,0.0,0.0,0.0,0.0,-4.3462,-4.3515,-4.3515,-4.3515,-4.3515,-4.3515,0.0,0.0,0.0,0.0,0.0,0.0,0.0,0.0,0.0,0.0,0.0,0.0,0.0,0.0,0.0,0.0,0.0,0.0,0.0,0.0,0.0,0.0,0.0,0.0,0.0,0.0,0.0,0.0,0.0,0.0,0.0,0.0,0.0,0.0,0.0,-4.5582,-4.5582,-4.5582,-4.5582,0.0,-4.5582,-4.569,-4.5869,-4.5116,-4.5613,-4.707,-4.8193,-4.8829,-4.9001,-4.9001,-4.9001,-4.9001,-4.9001,-4.9299,-4.9907,-5.077,-5.1419,-5.2018,0.0,0.0,0.0,0.0,0.0,0.0,0.0,0.0,0.0,0.0,0.0,0.0,0.0,0.0,0.0,0.0,0.0,0.0,0.0,0.0,-3.9547,-3.9662,-3.9179,-3.91,-3.9434,-3.9942,-3.9674,-3.8607,-4.0309,-4.0598,-3.9588,-4.0214,-4.0631,-4.088,-4.0343,-4.0546,-4.1268,-4.0441,-4.0254,-4.0449,-4.0204,-4.0237,-4.0473,-4.0473,-4.0648,-4.0938,-4.1223,0.0,0.0,0.0,0.0,0.0,0.0,0.0,-4.3515,-4.3515,-4.3515,-4.3515,0.0,0.0,0.0,0.0,0.0,0.0,0.0,0.0,0.0,0.0,0.0,0.0,0.0,0.0,0.0,0.0,0.0,0.0,0.0,0.0,0.0,0.0,0.0,0.0,0.0,0.0,0.0,0.0,0.0,0.0,0.0,0.0,0.0,0.0,-4.5387,-4.5147,-4.5147,-4.5147,-4.5147,-4.5147,-4.5147,-4.5387,-4.5826,-4.6025,-4.6934,-4.8289,-4.8798,-4.9001,-4.9001,-4.9001,-4.9001,-4.9001,-4.9001,-4.9419,-5.0072,-5.0823,-5.1519,-5.2224,0.0,0.0,0.0,0.0,0.0,0.0,0.0,0.0,0.0,0.0,0.0,0.0,0.0,0.0,0.0,0.0,0.0,0.0,0.0,0.0,0.0,-3.8814,-3.8433,-3.8525,-3.9126,-3.9678,-3.9455,-3.8492,-4.028,-4.043,-3.9105,-4.0452,-4.111,-4.1201,-4.0642,-4.0961,-4.1874,-4.072,-4.048,-4.0833,-4.0311,-4.0417,-4.088,-4.0803,-4.1133,-4.1621,-4.1552,-4.1892,-4.242,-4.25,0.0,0.0,0.0,0.0,-4.3392,-4.3462,-4.3356,-4.3249,0.0,0.0,0.0,0.0,0.0,0.0,0.0,0.0,0.0,0.0,0.0,0.0,0.0,0.0,0.0,0.0,0.0,0.0,0.0,0.0,0.0,0.0,0.0,0.0,0.0,0.0,0.0,0.0,0.0,0.0,0.0,0.0,-4.5636,-4.5636,-4.4903,-4.4494,-4.4494,-4.4494,-4.4494,-4.4494,-4.4494,-4.4903,-4.5686,-4.6925,-4.789,-4.8629,-4.8629,-4.8629,-4.8629,-4.8629,-4.8629,-4.8612,-4.8717,-4.9186,-4.9868,-5.0601,-5.1298,-5.1964,0.0,0.0,0.0,0.0,0.0,0.0,0.0,0.0,0.0,0.0,0.0,0.0,0.0,0.0,0.0,0.0,0.0,0.0,-3.8611,0.0,0.0,-3.8056,-3.7987,-3.8006,-3.8114,-3.8627,-3.8611,-3.799,-3.941,-3.9877,-3.9461,-4.0972,-4.1958,-4.2422,-4.1832,-4.1955,-4.25,-4.1291,-4.0833,-4.0833,-4.0311,-4.0417,-4.0833,-4.0392,-4.0546,-4.0949,-4.0497,-4.0672,-4.1223,-4.1729,-4.2322,0.0,0.0,0.0,-4.2902,-4.3356,-4.2791,-4.2246,0.0,0.0,0.0,0.0,0.0,0.0,0.0,0.0,0.0,0.0,0.0,0.0,0.0,0.0,0.0,0.0,0.0,0.0,0.0,0.0,0.0,0.0,0.0,0.0,0.0,0.0,0.0,0.0,0.0,0.0,0.0,-4.668,-4.6621,-4.6621,-4.6484,-4.6424,-4.6424,-4.6424,-4.6424,-4.6424,-4.6424,-4.6484,-4.6621,-4.6823,-4.6984,-4.709,-4.709,-4.709,-4.709,-4.709,-4.709,-4.7132,-4.7665,-4.8328,-4.9036,-4.9668,-5.0355,-5.0993,0.0,0.0,0.0,0.0,0.0,0.0,0.0,0.0,0.0,0.0,0.0,0.0,0.0,0.0,0.0,-3.8707,-3.8707,-3.8707,-3.8707,-3.82,-3.803,-3.835,-3.8065,-3.8048,-3.835,-3.8578,-3.8449,-3.7893,-3.969,-4.0357,0.0,-4.188,-4.2733,-4.2674,-4.208,-4.2286,-4.3069,-4.1898,-4.1402,-4.138,-4.115,-4.099,-4.0903,-4.1013,-4.1196,-4.138,-4.1127,-4.142,-4.1958,-4.2203,-4.2675,-4.3196,-4.3427,0.0,0.0,0.0,-4.316,0.0,0.0,0.0,0.0,0.0,0.0,0.0,0.0,0.0,0.0,0.0,0.0,0.0,0.0,0.0,0.0,0.0,0.0,0.0,0.0,0.0,0.0,0.0,0.0,0.0,0.0,0.0,0.0,0.0,0.0,0.0,-4.5579,-4.5579,-4.5579,-4.5579,-4.5579,0.0,-4.5579,-4.5579,-4.5579,-4.5579,-4.5579,-4.5579,-4.5579,-4.5579,-4.6007,-4.6786,-4.6786,-4.6786,-4.6786,-4.6786,-4.6986,-4.7317,-4.7589,-4.8363,-4.934,-4.9595,-5.0173,-5.0802,0.0,0.0,0.0,0.0,0.0,0.0,0.0,0.0,0.0,0.0,0.0,0.0,0.0,0.0,0.0,0.0,-3.8707,-3.8707,-3.8707,-3.8334,-3.8283,-3.8673,-3.8334,-3.8283,-3.8692,-3.8707,-3.8496,-3.8099,-3.9904,-4.069,-4.0545,-4.2351,-4.3103,0.0,-4.2424,-4.2697,0.0,0.0,0.0,-4.2018,-4.1874,-4.1621,-4.1402,-4.1686,-4.1895,-4.2,-4.1853,-4.2101,-4.25,-4.2655,-4.2958,-4.3322,-4.3444,-4.341,0.0,0.0,0.0,0.0,0.0,0.0,0.0,0.0,0.0,0.0,0.0,0.0,0.0,0.0,0.0,0.0,0.0,0.0,0.0,0.0,0.0,0.0,0.0,0.0,0.0,0.0,0.0,0.0,0.0,0.0,0.0,0.0,0.0,0.0,-4.4615,-4.4615,-4.4615,-4.4615,-4.4615,-4.4615,-4.4615,-4.4615,-4.4615,-4.4615,-4.4615,-4.4615,-4.4615,-4.4615,-4.5275,-4.6465,-4.6298,-4.6227,-4.6256,-4.6396,-4.6724,-4.7165,-4.7518,-4.8238,-4.9135,-4.9285,-4.97,-5.016,0.0,0.0,0.0,0.0,0.0,0.0,0.0,0.0,0.0,0.0,0.0,0.0,-3.8707,-3.8707,-3.8707,-3.8707,-3.8707,-3.8707,-3.8707,-3.8658,-3.8658,-3.8707,-3.8658,0.0,-3.8707,-3.8707,-3.8692,-3.8658,-3.9533,-4.0343,-4.1081,-4.1939,-4.2746,-4.3444,-4.3427,-4.3444,-4.3462,0.0,0.0,0.0,-4.2021,-4.2121,-4.2557,-4.2018,-4.2162,-4.2577,-4.2018,-4.1832,-4.1937,-4.25,-4.2731,-4.2826,-4.3339,-4.316,-4.2845,0.0,0.0,0.0,0.0,0.0,0.0,0.0,0.0,0.0,0.0,0.0,0.0,0.0,0.0,0.0,0.0,0.0,0.0,0.0,0.0,0.0,0.0,0.0,0.0,0.0,0.0,0.0,0.0,0.0,0.0,0.0,0.0,0.0,-4.4615,-4.4615,-4.4615,-4.4615,-4.4615,-4.4615,-4.4615,-4.4615,-4.4615,-4.4615,-4.4615,-4.4615,-4.4615,-4.4615,-4.494,-4.5528,-4.4943,-4.4716,-4.4772,-4.5325,-4.5581,-4.5744,-4.6944,-4.7468,-4.7575,-4.8163,-4.8396,-4.8434,0.0,0.0,0.0,0.0,0.0,0.0,0.0,0.0,0.0,0.0,0.0,0.0,0.0,-3.8707,-3.8707,-3.8707,-3.8707,-3.8707,-3.8707,-3.8707,-3.8707,-3.8707,-3.8707,-3.8707,-3.8707,-3.8707,-3.8946,-3.946,-4.0286,-4.1093,-4.1901,-4.269,-4.3222,-4.3515,-4.3515,-4.3515,-4.3497,-4.3286,0.0,0.0,0.0,0.0,-4.2713,-4.2847,0.0,0.0,0.0,0.0,0.0,-4.3142,-4.3214,-4.325,-4.3444,-4.3375,-4.325,-4.3444,-4.3515,0.0,0.0,0.0,0.0,0.0,0.0,0.0,0.0,0.0,0.0,0.0,0.0,0.0,0.0,0.0,0.0,0.0,0.0,0.0,0.0,0.0,0.0,0.0,0.0,0.0,0.0,0.0,0.0,0.0,0.0,0.0,-4.4581,-4.4615,-4.4615,-4.4615,-4.4615,-4.4615,-4.4615,-4.4615,-4.4615,-4.4615,-4.4615,-4.4615,-4.4598,-4.4998,-4.5294,-4.5511,-4.5681,-4.5757,-4.5783,-4.5989,-4.6336,-4.6774,-4.7216,-4.7635,-4.7997,-4.821,-4.8306,-4.8306,0.0,0.0,0.0,0.0,0.0,0.0,0.0,0.0,0.0,-3.8707,0.0,0.0,0.0,0.0,-3.8707,-3.8707,-3.8707,-3.8707,-3.8707,-3.8707,-3.8707,-3.8707,-3.8707,-3.8707,-3.8707,-3.8707,-3.9093,-3.99,-4.0726,-4.1499,-4.2323,-4.3112,-4.3515,-4.3515,-4.3515,-4.3515,0.0,0.0,0.0,-4.2995,0.0,0.0,-4.2995,0.0,0.0,0.0,0.0,0.0,0.0,0.0,0.0,-4.3515,-4.3515,-4.3515,-4.3515,-4.3515,0.0,0.0,-4.3167,0.0,0.0,0.0,0.0,0.0,0.0,0.0,0.0,0.0,0.0,0.0,0.0,0.0,0.0,0.0,0.0,0.0,0.0,0.0,0.0,0.0,0.0,0.0,0.0,0.0,0.0,0.0,0.0,0.0,-4.3819,-4.3836,-4.3836,-4.3836,-4.4062,-4.4198,-4.4198,-4.4479,-4.4692,-4.4906,-4.4906,-4.4998,-4.5205,-4.5622,-4.5915,-4.6161,-4.6548,-4.6618,-4.643,-4.6641,-4.6999,-4.7406,-4.7614,-4.7937,-4.8306,-4.8306,-4.8306,-4.8306,0.0,0.0,0.0,0.0,0.0,0.0,0.0,0.0,-3.8707,-3.8707,0.0,0.0,0.0,0.0,0.0,-3.8707,-3.8707,-3.8707,-3.8707,-3.8707,-3.8707,-3.8707,-3.8707,-3.8707,-3.8707,-3.8726,-3.9129,-3.9953,-4.0744,-4.1535,-4.2359,-4.313,-4.3515,-4.3515,-4.3515,-4.3515,-4.3515,0.0,-4.3515,-4.3515,0.0,-4.3515,-4.3515,0.0,0.0,0.0,-4.3515,-4.3515,0.0,0.0,0.0,0.0,0.0,0.0,0.0,0.0,0.0,0.0,0.0,0.0,0.0,0.0,0.0,0.0,0.0,0.0,0.0,0.0,0.0,0.0,0.0,0.0,0.0,0.0,0.0,0.0,0.0,0.0,0.0,0.0,0.0,0.0,0.0,0.0,0.0,0.0,0.0,-4.2269,-4.2286,-4.2286,-4.2286,-4.2286,-4.2997,-4.3386,-4.3386,-4.4158,-4.4865,-4.5468,-4.5468,-4.5763,-4.6371,-4.6395,-4.6761,-4.7406,-4.7406,-4.7044,-4.6524,-4.7172,-4.7428,-4.747,-4.8075,-4.8306,-4.8306,-4.8306,-4.8306,-4.8306,0.0,0.0,0.0,0.0,0.0,0.0,-3.8985,-3.8815,-3.8707,0.0,0.0,0.0,-3.8707,-3.8707,-3.8707,-3.8707,-3.8707,-3.8707,-3.8707,-3.8707,-3.8707,-3.8707,-3.8707,-3.8707,-3.8707,-3.9276,-3.9955,-4.0781,-4.157,-4.2378,-4.3167,-4.3387,0.0,0.0,-4.3515,-4.3515,-4.3515,-4.3515,0.0,0.0,-4.3515,-4.3515,0.0,0.0,0.0,0.0,0.0,-4.3515,0.0,0.0,-4.3515,-4.3515,0.0,0.0,0.0,0.0,0.0,0.0,-4.1662,0.0,0.0,0.0,0.0,0.0,0.0,0.0,0.0,0.0,0.0,0.0,0.0,0.0,0.0,0.0,0.0,0.0,0.0,0.0,0.0,0.0,0.0,0.0,0.0,0.0,0.0,0.0,-4.1508,-4.1728,-4.2252,-4.2286,-4.2286,-4.2286,-4.2489,-4.2813,-4.3245,-4.3468,-4.3865,-4.4401,-4.4401,-4.4818,-4.5558,-4.6029,-4.6676,-4.7428,-4.7858,-4.7957,-4.7797,-4.7977,-4.8055,-4.8075,-4.823,-4.8306,-4.8306,-4.8306,-4.8306,-4.8306,0.0,0.0,0.0,0.0,0.0,0.0,-3.9112,-3.8869,-3.8707,0.0,0.0,0.0,-3.8707,-3.8707,-3.8707,-3.8707,-3.8707,-3.8707,-3.8707,-3.8707,-3.8854,-3.9184,-3.9203,-3.9368,-3.9698,-4.0157,-4.0799,-4.159,-4.2066,-4.2708,-4.3515,0.0,0.0,0.0,0.0,0.0,0.0,0.0,0.0,0.0,-4.3515,0.0,0.0,-4.3515,-4.3515,0.0,0.0,0.0,-4.3515,-4.3515,-4.3515,0.0,0.0,0.0,0.0,0.0,0.0,0.0,-4.0818,-4.0598,0.0,0.0,0.0,0.0,0.0,-3.8707,0.0,0.0,0.0,0.0,0.0,0.0,0.0,0.0,0.0,0.0,0.0,0.0,0.0,0.0,0.0,0.0,0.0,0.0,0.0,0.0,-4.1464,-4.1654,-4.2061,-4.2078,-4.2078,-4.2078,-4.2388,-4.2715,-4.308,-4.3388,-4.3833,-4.4438,-4.4438,-4.4782,-4.5504,-4.5908,-4.6321,-4.6777,-4.7145,-4.7498,-4.7791,-4.7791,-4.8012,-4.8306,-4.8306,-4.8306,-4.8306,-4.8306,-4.8306,-4.8306,0.0,0.0,0.0,0.0,0.0,0.0,-3.9165,-3.8898,-3.8707,0.0,-3.8707,-3.8707,-3.8707,-3.8707,-3.8707,-3.8707,-3.8781,-3.8836,-3.8836,-3.8927,-3.9294,-3.9992,-4.0029,-4.0377,-4.1077,-4.1187,-4.1572,0.0,0.0,0.0,0.0,0.0,0.0,0.0,0.0,0.0,0.0,0.0,0.0,-4.3515,-4.3515,-4.3515,0.0,0.0,-4.3515,0.0,-4.3515,-4.3515,-4.3496,-4.3387,-4.3296,0.0,0.0,0.0,0.0,0.0,-4.0967,0.0,0.0,-3.9772,0.0,0.0,0.0,0.0,-3.8707,-3.8707,-3.8707,0.0,0.0,0.0,0.0,0.0,0.0,0.0,0.0,0.0,0.0,0.0,0.0,0.0,0.0,0.0,0.0,0.0,-4.1298,-4.175,-4.181,-4.181,-4.181,-4.181,-4.181,-4.181,-4.2444,-4.2819,-4.2885,-4.3532,-4.4171,-4.4829,-4.4829,-4.5158,-4.5773,-4.5773,-4.581,-4.5902,-4.5902,-4.6305,-4.6966,-4.6966,-4.748,-4.8306,-4.8306,-4.8306,-4.8306,-4.8306,-4.8306,-4.8306,-4.0496,0.0,0.0,0.0,0.0,0.0,0.0,-3.905,-3.8707,-3.8707,-3.8707,-3.8707,-3.8707,-3.8707,-3.8707,-3.8707,-3.9294,-3.9662,-3.9662,-4.0267,-4.0691,-4.0857,-4.0873,-4.093,-4.1095,-4.1735,-4.2139,0.0,0.0,0.0,0.0,0.0,0.0,0.0,0.0,0.0,0.0,0.0,0.0,-4.3515,-4.3515,0.0,-4.3515,-4.3515,-4.3515,-4.3515,-4.3515,-4.3515,-4.3387,0.0,-4.2103,-4.1535,0.0,0.0,0.0,0.0,0.0,0.0,0.0,0.0,0.0,0.0,0.0,0.0,-3.8707,-3.8707,-3.8707,0.0,0.0,0.0,0.0,0.0,0.0,0.0,0.0,0.0,0.0,0.0,0.0,0.0,0.0,0.0,0.0,0.0,-4.1682,-4.1789,-4.181,-4.181,-4.181,-4.181,-4.181,-4.181,-4.1952,-4.2252,-4.2733,-4.2877,-4.3241,-4.3797,-4.3797,-4.4198,-4.4947,-4.4947,-4.5296,-4.5902,-4.5902,-4.5993,-4.614,-4.614,-4.6985,-4.8306,-4.8306,-4.8306,-4.8306,-4.8306,-4.8306,-4.8306,-4.0496,0.0,0.0,0.0,0.0,0.0,0.0,-3.9195,-3.8747,-3.8884,-3.8773,-3.8707,-3.8707,-3.8707,-3.8854,-3.9258,-3.9662,-4.0065,-4.0469,-4.0875,-4.1279,-4.168,-4.1699,-4.1901,-4.2286,-4.269,-4.2892,0.0,0.0,0.0,0.0,0.0,0.0,0.0,0.0,0.0,0.0,0.0,-4.3515,-4.3515,-4.3515,0.0,-4.3513,-4.3695,-4.3758,-4.3735,-4.3478,-4.3027,-4.2472,-4.1893,-4.1425,0.0,0.0,-4.0506,-4.0341,0.0,-3.9294,-3.9203,0.0,0.0,0.0,-3.8707,0.0,0.0,0.0,-3.8707,0.0,0.0,0.0,0.0,0.0,0.0,0.0,0.0,0.0,0.0,0.0,0.0,0.0,0.0,0.0,0.0,0.0,0.0,-4.1286,-4.1988,-4.2423,-4.2639,-4.2639,-4.2639,-4.2639,-4.2639,-4.2639,-4.2791,-4.3105,-4.3105,-4.3232,-4.3515,-4.3515,-4.3699,-4.4103,-4.4103,-4.4323,-4.469,-4.469,-4.4929,-4.5296,-4.5296,-4.6012,-4.7095,-4.7095,-4.7095,-4.7095,-4.7095,-4.7095,-4.7095,-4.0496,0.0,0.0,0.0,0.0,0.0,0.0,0.0,-3.8927,-3.9072,-3.8869,-3.8719,-3.8777,-3.8792,-3.9061,-3.9782,-3.9985,-4.0397,-4.1151,-4.1353,-4.1746,-4.2488,-4.2525,-4.2837,-4.3496,-4.3515,-4.3515,-4.3515,0.0,0.0,0.0,0.0,0.0,0.0,0.0,0.0,0.0,0.0,0.0,-4.3579,0.0,-4.3436,-4.3512,-4.3698,-4.3778,-4.3711,-4.3216,-4.2355,-4.1385,-4.1055,0.0,-4.0583,-3.9895,-3.9662,0.0,0.0,0.0,0.0,0.0,0.0,0.0,0.0,0.0,-3.8707,0.0,0.0,0.0,0.0,0.0,0.0,0.0,0.0,0.0,0.0,0.0,0.0,0.0,0.0,0.0,0.0,0.0,0.0,0.0,0.0,-4.0833,-4.1977,-4.2671,-4.3112,-4.3259,-4.3276,-4.3332,-4.3515,-4.3515,-4.3515,-4.3515,-4.3515,-4.3515,-4.3515,-4.3515,-4.3515,-4.3515,-4.3515,-4.3515,-4.3515,-4.3515,-4.3864,-4.447,-4.447,-4.4856,-4.5461,-4.5773,-4.5902,-4.5902,-4.5902,-4.5902,-4.5902,-4.0496,-4.0496,0.0,0.0,0.0,0.0,0.0,0.0,-3.9408,-3.912,-3.8869,-3.8788,-3.9022,-3.9044,-3.9203,-3.9601,0.0,0.0,-4.1504,0.0,-4.2828,-4.3331,-4.3368,-4.3423,-4.3515,-4.3515,-4.3515,-4.3515,0.0,0.0,0.0,0.0,0.0,0.0,-4.3836,0.0,0.0,0.0,-4.394,0.0,-4.3166,-4.3132,0.0,-4.3073,-4.2932,-4.288,-4.2344,-4.16,-4.0829,0.0,-3.9923,-3.9273,0.0,-3.8836,0.0,0.0,0.0,0.0,0.0,0.0,0.0,0.0,-3.8707,0.0,0.0,0.0,0.0,0.0,0.0,0.0,0.0,0.0,0.0,0.0,0.0,0.0,0.0,0.0,0.0,0.0,0.0,0.0,0.0,0.0,0.0,-4.1224,-4.1315,-4.168,-4.2396,-4.2433,-4.2763,-4.3478,-4.3515,-4.3515,-4.3515,-4.3515,-4.3515,-4.3515,-4.3515,-4.3515,-4.3515,-4.3515,-4.3515,-4.3515,-4.3515,-4.3551,-4.3626,-4.3626,-4.3698,-4.3901,-4.5333,-4.5902,-4.5902,-4.5902,-4.5902,-4.5902,-4.0496,-4.0496,0.0,0.0,0.0,0.0,0.0,0.0,-3.9775,-3.9426,-3.9301,-3.9281,0.0,0.0,0.0,0.0,0.0,-4.1762,0.0,0.0,-4.3095,-4.3751,0.0,0.0,0.0,-4.3896,-4.3896,-4.414,-4.414,0.0,0.0,0.0,0.0,0.0,-4.394,0.0,-4.3419,0.0,0.0,0.0,0.0,0.0,0.0,-4.2752,-4.2461,-4.2153,-4.1751,-4.1084,-4.0339,0.0,-3.955,0.0,0.0,0.0,0.0,0.0,0.0,0.0,0.0,0.0,0.0,0.0,0.0,0.0,0.0,0.0,-3.8707,0.0,0.0,0.0,0.0,0.0,0.0,0.0,0.0,0.0,0.0,0.0,0.0,0.0,0.0,0.0,0.0,0.0,0.0,0.0,0.0,-4.1242,-4.1589,-4.159,-4.1974,-4.2782,-4.28,-4.302,-4.3515,-4.3515,-4.3515,-4.3515,-4.3515,-4.3515,-4.3515,-4.3515,-4.3515,-4.3515,-4.3515,-4.3515,-4.3515,-4.3515,-4.3515,-4.357,-4.4232,-4.4507,-4.4507,-4.4507,-4.4507,-4.4541,-4.0496,0.0,0.0,0.0,0.0,0.0,0.0,-4.0267,-4.0012,-3.9775,0.0,0.0,-3.9731,-4.0302,0.0,0.0,0.0,-4.1865,0.0,0.0,-4.2946,0.0,0.0,0.0,0.0,0.0,-4.4304,-4.4593,0.0,0.0,0.0,0.0,0.0,0.0,0.0,-4.3798,-4.319,0.0,0.0,-4.2706,-4.2468,-4.231,-4.2178,-4.2172,-4.1867,-4.1407,-4.1176,-4.0711,-4.0167,-3.984,-3.9576,0.0,-3.9552,0.0,0.0,0.0,0.0,0.0,-3.8829,0.0,0.0,0.0,0.0,0.0,0.0,0.0,0.0,0.0,0.0,0.0,0.0,0.0,0.0,0.0,0.0,0.0,0.0,0.0,0.0,0.0,0.0,0.0,0.0,0.0,0.0,0.0,-4.012,0.0,-4.0763,-4.0781,-4.1148,-4.1956,-4.1974,-4.2359,-4.3149,-4.3167,-4.3277,-4.3515,-4.3515,-4.3515,-4.3515,-4.3515,-4.3515,-4.3515,-4.3515,-4.3515,-4.3515,-4.3515,-4.3515,-4.3515,-4.3597,-4.3629,-4.3629,-4.3629,-4.3629,-4.3695,-4.0496,-4.0496,0.0,0.0,0.0,0.0,0.0,0.0,0.0,0.0,0.0,0.0,0.0,0.0,0.0,0.0,0.0,-4.0769,-4.1319,0.0,-4.2378,0.0,0.0,-4.4176,0.0,0.0,0.0,-4.4593,0.0,0.0,0.0,0.0,0.0,0.0,0.0,-4.3914,-4.2847,-4.319,-4.301,-4.2443,-4.167,-4.1045,-4.0633,0.0,-4.1006,-4.0535,-4.0527,0.0,0.0,-4.0177,-4.0081,0.0,0.0,0.0,0.0,0.0,0.0,0.0,0.0,0.0,0.0,-3.8762,0.0,0.0,0.0,0.0,-3.8707,0.0,0.0,0.0,0.0,0.0,-3.8707,-3.8707,0.0,0.0,0.0,0.0,0.0,0.0,0.0,0.0,0.0,0.0,0.0,0.0,-3.8762,0.0,-3.99,-3.9937,-4.0304,-4.1113,-4.1132,-4.1517,-4.2323,-4.2341,-4.2727,-4.3515,-4.3515,-4.3515,-4.3515,-4.3515,-4.3515,-4.3515,-4.3515,-4.3515,-4.3515,-4.3515,-4.3515,-4.3531,-4.3849,-4.3967,-4.3967,-4.3967,-4.3967,-4.4028,0.0,0.0,0.0,0.0,0.0,0.0,0.0,-4.0414,0.0,0.0,0.0,0.0,0.0,0.0,-4.1023,0.0,0.0,-4.1351,-4.1311,-4.2044,0.0,0.0,0.0,-4.4395,0.0,0.0,0.0,0.0,0.0,0.0,0.0,0.0,0.0,0.0,0.0,-4.3521,0.0,0.0,0.0,0.0,0.0,-4.0883,-4.0279,0.0,0.0,-4.0496,-4.0496,-4.0496,0.0,-4.0389,-4.026,-4.011,-4.0185,-3.9915,-3.9645,-3.987,-3.9775,0.0,0.0,0.0,-3.9358,-3.904,0.0,0.0,0.0,0.0,0.0,0.0,0.0,0.0,0.0,0.0,-3.8957,-3.8957,-3.8833,-3.8707,0.0,0.0,0.0,0.0,0.0,0.0,0.0,0.0,0.0,-3.8707,-3.8707,-3.8817,0.0,-3.9111,-3.9478,-4.0286,-4.0304,-4.0689,-4.1515,-4.2029,-4.2433,-4.2708,-4.324,-4.3515,-4.3515,-4.3515,-4.3515,-4.3515,-4.3515,-4.3515,-4.3515,-4.3515,-4.3515,-4.3531,-4.3865,-4.4001,-4.4028,-4.429,-4.4406,-4.446,-4.0496,0.0,0.0,0.0,0.0,0.0,0.0,0.0,0.0,0.0,-4.0496,0.0,-4.0496,0.0,-4.1104,0.0,-4.1008,-4.1251,-4.1035,-4.1791,0.0,-4.181,-4.3253,0.0,0.0,0.0,0.0,0.0,0.0,-4.4602,0.0,0.0,0.0,0.0,0.0,0.0,0.0,0.0,-4.1656,0.0,0.0,-4.0701,0.0,0.0,-4.0449,-4.0372,0.0,-4.0496,-4.0496,-4.0496,-4.0381,-4.0267,-4.0449,-4.022,-3.9964,-4.0167,-4.0082,-3.9894,-3.9808,-3.9775,0.0,0.0,-3.9276,0.0,-3.9276,0.0,0.0,0.0,0.0,0.0,0.0,0.0,-3.9276,-3.9276,-3.9027,-3.8818,0.0,-3.8707,0.0,0.0,0.0,0.0,0.0,0.0,-3.8803,-3.8707,-3.8788,-3.8803,0.0,0.0,-3.8946,-3.946,-3.946,-3.9863,-4.0671,-4.1185,-4.1735,-4.2304,-4.2818,-4.3222,-4.3515,-4.3515,-4.3515,-4.3515,-4.3515,-4.3515,-4.3496,-4.3629,-4.3695,-4.3726,-4.4204,-4.4382,-4.4409,-4.4682,-4.4842,-4.4988,0.0,0.0,0.0,0.0,-4.0496,0.0,0.0,0.0,-4.0496,0.0,-4.0496,-4.0496,-4.0496,-4.0496,-4.0496,-4.0496,-4.0496,0.0,-4.0496,-4.1316,0.0,0.0,-4.2162,-4.2701,-4.1808,-4.2643,0.0,0.0,0.0,0.0,0.0,0.0,0.0,0.0,-4.2484,0.0,-4.1311,-4.1273,-4.0968,-4.0496,-4.0496,-4.0489,-4.0481,-4.0489,0.0,-4.0129,-4.0397,-4.0496,-4.0496,-4.0496,-4.0496,-4.0496,-4.0496,-4.0496,-4.0496,-4.0496,-4.0496,-4.043,-4.0186,-4.012,-4.0032,-3.972,0.0,0.0,0.0,0.0,-3.9634,0.0,0.0,0.0,0.0,0.0,0.0,-3.9622,-3.9339,-3.904,-3.8777,0.0,0.0,0.0,0.0,0.0,0.0,-3.8919,-3.8971,-3.8719,-3.8952,0.0,0.0,0.0,0.0,-3.8707,-3.8707,-3.9074,-3.9827,-3.9879,-4.0671,-4.2176,-4.2268,-4.269,-4.3441,-4.3495,-4.3513,-4.3531,-4.3548,-4.3548,-4.358,-4.3896,-4.4028,-4.4102,-4.4818,-4.5107,-4.5118,-4.5118,-4.5322,-4.5594,-4.0496,-4.0496,-4.0496,0.0,-4.0496,-4.0496,0.0,0.0,0.0,0.0,-4.0496,-4.0496,-4.0496,-4.0496,-4.0496,-4.0496,-4.0496,0.0,0.0,0.0,0.0,-4.0535,-4.2162,-4.2701,-4.1808,-4.2643,0.0,-4.3104,0.0,0.0,-4.3104,0.0,0.0,0.0,0.0,0.0,-4.1628,-4.0976,-4.0633,-4.0496,-4.0496,-4.0381,0.0,0.0,-4.0339,-4.0129,-4.0397,-4.0496,-4.0496,-4.0496,-4.0496,-4.0496,-4.0496,-4.0496,-4.0496,-4.0496,-4.0496,-4.0481,-4.0425,-4.0389,-4.0339,-4.0042,-3.9982,-3.9982,0.0,0.0,0.0,0.0,0.0,0.0,0.0,0.0,0.0,-3.9982,-3.9679,-3.9457,0.0,0.0,0.0,0.0,0.0,0.0,-3.875,-3.8762,-3.8777,-3.8707,-3.8762,0.0,0.0,0.0,0.0,-3.8707,-3.8707,-3.8799,-3.9019,-3.9588,-4.0102,-4.0524,-4.1735,-4.2415,-4.2652,-4.3497,-4.3865,-4.3896,-4.418,-4.4308,-4.4323,-4.4419,-4.4447,-4.4501,-4.4931,-4.5243,-4.5476,-4.5476,-4.5541,-4.5594,-4.0496,0.0,0.0,-4.0496,0.0,0.0,-4.0496,0.0,0.0,-4.1027,-4.0746,0.0,-4.1027,-4.1066,-4.1066,-4.1066,-4.1412,0.0,0.0,0.0,0.0,-4.0535,-4.1439,-4.172,-4.1239,-4.17,0.0,-4.195,0.0,0.0,-4.195,0.0,0.0,0.0,0.0,-4.1239,0.0,-4.0708,-4.0496,-4.0496,-4.0496,0.0,0.0,-4.0449,-4.0417,-4.0285,-4.0449,-4.0496,-4.0496,-4.0496,-4.0496,-4.0496,-4.0496,-4.0496,-4.0496,-4.0496,-4.0496,-4.0496,-4.0496,-4.0496,-4.0465,-4.0321,-4.0267,-4.0267,-4.0267,-4.0267,-4.0321,0.0,0.0,0.0,0.0,0.0,0.0,0.0,0.0,0.0,0.0,0.0,0.0,0.0,0.0,0.0,-3.8923,-3.9008,-3.9036,-3.8884,0.0,0.0,0.0,0.0,0.0,-3.8869,-3.8884,-3.8956,-3.9087,-3.9551,-3.9946,-4.03,-4.1215,-4.2032,-4.2768,-4.3403,-4.391,-4.4276,-4.4501,-4.4593,-4.4606,-4.4763,-4.4825,-4.4861,-4.5191,-4.5429,-4.5594,-4.5594,-4.5594,-4.5594,0.0,0.0,0.0,0.0,0.0,0.0,0.0,-4.0496,0.0,-4.17,0.0,-4.0989,-4.1893,-4.1962,-4.1962,-4.1962,0.0,-4.2777,-4.2019,-4.1962,-4.1585,-4.0708,-4.0669,-4.0631,-4.0496,-4.0496,0.0,0.0,0.0,0.0,0.0,0.0,0.0,0.0,0.0,0.0,0.0,-4.0496,-4.0496,0.0,-4.0496,-4.0496,-4.0496,-4.0496,-4.0496,-4.0496,-4.0496,-4.0496,-4.0496,-4.0496,-4.0496,-4.0496,-4.0496,-4.0496,-4.0496,-4.0496,-4.0496,-4.0496,-4.0496,-4.0496,-4.0496,-4.0496,-4.0496,-4.0496,-4.0496,-4.0496,-4.0496,-4.0496,-4.0496,0.0,0.0,0.0,0.0,0.0,0.0,0.0,0.0,0.0,0.0,0.0,0.0,0.0,0.0,0.0,0.0,0.0,0.0,0.0,0.0,0.0,0.0,0.0,-3.9112,0.0,-3.9599,0.0,-3.9946,-4.0639,-4.0752,-4.1619,-4.3139,-4.3303,-4.3838,-4.4657,-4.4707,-4.472,-4.4745,-4.5052,-4.5169,-4.5201,-4.5495,-4.5594,-4.5594,-4.5594,-4.5594,-4.5594,0.0,0.0,0.0,0.0,0.0,-4.0496,-4.0496,-4.0496,-4.0804,-4.17,-4.1681,0.0,-4.2777,-4.2874,-4.2874,-4.2874,-4.3008,0.0,0.0,0.0,0.0,-4.1604,-4.1566,-4.1239,-4.0516,-4.0496,-4.0496,0.0,0.0,0.0,0.0,0.0,0.0,0.0,0.0,0.0,-4.0496,-4.0496,0.0,-4.0496,-4.0496,-4.0496,-4.0496,-4.0496,-4.0496,-4.0496,-4.0496,-4.0496,-4.0496,-4.0496,-4.0496,-4.0496,-4.0496,-4.0496,-4.0496,-4.0496,-4.0496,-4.0496,-4.0496,-4.0496,-4.0496,-4.0496,-4.0496,-4.0496,-4.0496,-4.0496,-4.0496,-4.0496,-4.0496,-4.0496,-4.0496,0.0,0.0,0.0,0.0,0.0,0.0,0.0,0.0,0.0,0.0,0.0,0.0,0.0,0.0,0.0,0.0,0.0,0.0,0.0,0.0,0.0,0.0,0.0,0.0,0.0,0.0,-3.9825,-4.0469,-4.1329,-4.2335,-4.3278,-4.4189,-4.503,-4.5293,-4.5429,-4.5429,-4.5495,-4.5513,-4.5513,-4.5577,-4.5594,-4.5594,-4.5594,-4.5594,-4.5594,0.0,0.0,0.0,0.0,0.0,0.0,0.0,-4.1566,0.0,-4.2431,-4.247,-4.2797,-4.3624,-4.372,-4.372,-4.372,-4.4143,-4.4201,-4.3739,-4.372,-4.3355,-4.2508,-4.2038,0.0,-4.1181,-4.0727,-4.0496,-4.0496,0.0,0.0,0.0,0.0,0.0,0.0,0.0,-4.0496,0.0,0.0,0.0,-4.0496,-4.0496,-4.0496,-4.0496,-4.0496,-4.0496,-4.0496,-4.0496,-4.0496,-4.0496,-4.0496,-4.0496,-4.0496,-4.0496,-4.0496,-4.0496,-4.0496,-4.0496,-4.0496,-4.0496,-4.0496,-4.0496,-4.0496,-4.0496,-4.0496,-4.0496,-4.0496,-4.0496,-4.0496,-4.0496,-4.0496,-4.0496,-4.0496,0.0,0.0,0.0,0.0,0.0,0.0,0.0,0.0,0.0,0.0,0.0,0.0,0.0,0.0,0.0,0.0,0.0,0.0,0.0,0.0,0.0,0.0,0.0,0.0,0.0,-4.0063,-4.0463,-4.134,-4.2638,-4.3197,-4.4135,-4.5362,-4.5522,-4.5594,-4.5594,-4.5594,-4.5594,-4.5594,-4.5594,-4.5594,-4.5594,-4.5594,-4.5594,-4.5594,0.0,-4.0865,0.0,0.0,-4.1508,0.0,0.0,-4.2797,-4.3355,-4.3355,-4.3355,-4.3662,-4.4489,-4.4586,-4.4586,-4.4586,-4.521,-4.5306,-4.4624,-4.4586,-4.4201,-4.3393,-4.2527,-4.1981,-4.1788,-4.095,-4.0496,0.0,0.0,0.0,0.0,0.0,0.0,0.0,0.0,0.0,0.0,0.0,-4.0496,-4.0496,-4.0496,-4.0496,-4.0496,-4.0496,-4.0496,-4.0496,-4.0496,-4.0496,-4.0496,-4.0496,-4.0496,-4.0496,-4.0496,-4.0496,-4.0496,-4.0496,-4.0496,-4.0496,-4.0496,-4.0496,-4.0496,-4.0496,-4.0496,-4.0496,-4.0496,-4.0496,-4.0496,-4.0496,-4.0496,-4.0496,-4.0496,-4.0496,0.0,0.0,0.0,0.0,0.0,0.0,0.0,0.0,0.0,0.0,0.0,0.0,0.0,0.0,0.0,0.0,0.0,0.0,0.0,0.0,0.0,-4.0223,-4.0496,0.0,-4.0496,0.0,-4.0496,-4.142,-4.3104,-4.3104,-4.4008,-4.5594,-4.5594,-4.5594,-4.5594,-4.5594,-4.5594,-4.5594,-4.5594,-4.5594,-4.5594,-4.5594,-4.5594,-4.5594,0.0,0.0,0.0,0.0,0.0,0.0,0.0,-4.3662,-4.4182,-4.4182,-4.4182,-4.4509,-4.5383,-4.5479,-4.5479,-4.5479,-4.5556,-4.5575,-4.5479,-4.5479,-4.5094,-4.422,-4.3412,-4.2604,-4.1808,-4.095,-4.0496,0.0,0.0,0.0,0.0,0.0,0.0,0.0,0.0,0.0,0.0,-4.0496,-4.0496,-4.0496,-4.0496,-4.0496,-4.0496,-4.0496,-4.0496,-4.0496,-4.0496,-4.0496,-4.0496,-4.0496,-4.0496,-4.0496,-4.0496,-4.0496,-4.0496,-4.0496,-4.0496,-4.0496,-4.0496,-4.0496,-4.0496,-4.0496,-4.0496,-4.0496,-4.0496,-4.0496,-4.0496,-4.0496,-4.0496,-4.0496,-4.0496,-4.0496,-4.0496,0.0,0.0,0.0,0.0,0.0,0.0,0.0,0.0,0.0,0.0,0.0,0.0,0.0,0.0,0.0,0.0,0.0,0.0,-4.0091,0.0,-4.0223,-4.0496,-4.0496,0.0,-4.0496,-4.0496,-4.142,-4.3104,-4.3104,-4.4008,-4.5594,-4.5594,-4.5594,-4.5594,-4.5594,-4.5594,-4.5594,-4.5594,-4.5594,-4.5594,-4.5594,-4.5594,-4.5594,0.0,0.0,0.0,0.0,0.0,0.0,0.0,-4.4604,-4.5163,-4.5092,-4.5075,-4.521,-4.5556,-4.5594,-4.5594,-4.5594,-4.5594,-4.5594,-4.5594,-4.5594,-4.5441,-4.5094,-4.4259,-4.3431,-4.2604,-4.1739,-4.1027,0.0,0.0,0.0,0.0,0.0,0.0,0.0,0.0,-4.0496,-4.0496,-4.0496,-4.0496,-4.0496,-4.0496,-4.0496,-4.0496,-4.0496,-4.0496,-4.0496,-4.0496,-4.0496,-4.0496,-4.0496,-4.0496,-4.0496,-4.0496,-4.0496,-4.0496,-4.0496,-4.0496,-4.0496,-4.0496,-4.0496,-4.0496,-4.0496,-4.0496,-4.0496,-4.0496,-4.0496,-4.0496,-4.0496,-4.0496,-4.0496,-4.0496,-4.0496,-4.0496,0.0,0.0,0.0,0.0,0.0,0.0,0.0,0.0,0.0,0.0,0.0,0.0,0.0,0.0,0.0,0.0,0.0,0.0,-4.0339,0.0,-4.0389,-4.0496,-4.0496,-4.0496,-4.0496,-4.0496,-4.142,-4.3104,-4.3104,-4.4008,-4.5594,-4.5594,-4.5594,-4.5594,-4.5594,-4.5594,-4.5594,-4.5594,-4.5594,-4.5594,-4.5594,-4.5594,-4.5594,-4.3233,0.0,-4.3652,0.0,-4.4305,-4.4885,-4.4778,-4.5369,-4.5775,-4.5673,-4.5618,-4.5594,-4.5594,-4.5594,-4.5594,-4.5594,-4.5594,-4.5594,-4.5594,-4.5594,-4.5594,-4.5594,-4.4759,0.0,-4.3124,-4.2258,-4.1373,-4.0496,-4.0496,0.0,0.0,0.0,0.0,0.0,-4.0496,-4.0496,-4.0496,-4.0496,-4.0496,-4.0496,-4.0496,-4.0496,-4.0496,-4.0496,-4.0496,-4.0496,-4.0496,-4.0496,-4.0496,-4.0496,-4.0496,-4.0496,-4.0496,-4.0496,-4.0496,-4.0496,-4.0496,-4.0496,-4.0496,-4.0496,-4.0496,-4.0496,-4.0496,-4.0496,-4.0496,-4.0496,-4.0496,-4.0496,-4.0496,-4.0496,-4.0496,-4.0496,-4.0496,-4.0496,0.0,0.0,0.0,0.0,0.0,0.0,0.0,-4.0496,-4.0496,0.0,0.0,0.0,0.0,0.0,0.0,0.0,0.0,0.0,0.0,0.0,0.0,-4.0496,-4.0496,-4.0496,-4.0496,-4.142,-4.3124,-4.3605,-4.447,-4.5594,-4.5594,-4.5594,-4.5594,-4.5594,-4.5594,-4.5594,-4.5594,-4.5594,-4.5594,-4.5594,-4.5594,-4.5594,-4.3603,-4.4235,-4.4757,-4.4698,-4.5354,-4.5879,-4.5875,-4.5822,-4.5796,-4.5796,-4.5688,-4.5594,-4.5594,-4.5594,-4.5594,-4.5594,-4.5594,-4.5594,-4.5594,-4.5594,-4.5594,0.0,0.0,-4.3912,-4.3124,-4.2258,-4.1373,-4.0496,0.0,0.0,-4.0496,0.0,-4.0496,-4.0496,-4.0496,-4.0496,-4.0496,-4.0496,-4.0496,-4.0496,-4.0496,-4.0496,-4.0496,-4.0496,-4.0496,-4.0496,-4.0496,-4.0496,-4.0496,-4.0496,-4.0496,-4.0496,-4.0496,-4.0496,-4.0496,-4.0496,-4.0496,-4.0496,-4.0496,-4.0496,-4.0496,-4.0496,-4.0496,-4.0496,-4.0496,-4.0496,-4.0496,-4.0496,-4.0496,-4.0496,-4.0496,-4.0496,-4.0496,-4.0496,0.0,0.0,0.0,0.0,0.0,0.0,-4.0496,-4.0496,-4.0496,0.0,0.0,0.0,0.0,0.0,0.0,0.0,0.0,-4.0496,-4.0496,0.0,-4.0496,-4.0496,-4.0496,-4.0496,-4.0496,-4.142,-4.3162,-4.4806,-4.5575,-4.5594,-4.5594,-4.5594,-4.5594,-4.5594,-4.5594,-4.5594,-4.5594,-4.5594,-4.5594,-4.5594,-4.5594,-4.5594,-4.5072,-4.5367,-4.5531,-4.5518,-4.5806,-4.6018,-4.5912,-4.5955,-4.5971,-4.5872,-4.582,-4.5792,-4.5792,-4.5669,-4.5594,0.0,-4.5594,-4.5594,0.0,-4.5594,-4.5594,-4.5594,-4.5325,-4.4778,-4.3932,-4.3104,-4.2258,-4.1393,0.0,0.0,0.0,-4.0496,-4.0496,-4.0496,-4.0496,-4.0496,-4.0496,-4.0496,-4.0496,-4.0496,-4.0496,-4.0496,-4.0496,-4.0496,-4.0496,-4.0496,-4.0496,-4.0496,-4.0496,-4.0496,-4.0496,-4.0496,-4.0496,-4.0496,-4.0496,-4.0496,-4.0496,-4.0496,-4.0496,-4.0496,-4.0496,-4.0496,-4.0496,-4.0496,-4.0496,-4.0496,-4.0496,-4.0496,-4.0496,-4.0496,-4.0496,-4.0496,-4.0542,-4.0623,0.0,0.0,0.0,0.0,0.0,0.0,0.0,-4.0703,0.0,-4.0703,0.0,0.0,0.0,0.0,0.0,0.0,0.0,0.0,-4.0496,0.0,-4.0496,-4.0496,-4.0496,-4.0496,-4.0496,-4.142,-4.3162,-4.4844,-4.5594,-4.5594,-4.5594,-4.5594,-4.5594,-4.5594,-4.5594,-4.5594,-4.5594,-4.5594,-4.5594,-4.5594,-4.5594,-4.5535,-4.5958,-4.6045,-4.6045,-4.6045,-4.6117,-4.6147,-4.6053,-4.608,-4.6075,-4.5988,-4.5928,-4.5899,-4.5899,-4.5788,0.0,-4.5715,-4.5715,-4.5715,-4.5715,-4.5681,-4.568,-4.568,-4.5637,-4.519,-4.4316,0.0,0.0,-4.1788,-4.0931,-4.0496,-4.0496,-4.0496,-4.0496,-4.0496,-4.0496,-4.0496,-4.0496,-4.0496,-4.0496,-4.0496,-4.0496,-4.0496,-4.0496,-4.0496,-4.0496,-4.0496,-4.0496,-4.0496,-4.0496,-4.0496,-4.0496,-4.0496,-4.0496,-4.0496,-4.0496,-4.0496,-4.0496,-4.0496,-4.0496,-4.0496,-4.0496,-4.0496,-4.0496,-4.0512,-4.0566,-4.0597,-4.0604,-4.0604,-4.0604,-4.0604,-4.0604,-4.0604,-4.0641,-4.0731,-4.0742,-4.0752,0.0,0.0,0.0,0.0,0.0,0.0,0.0,-4.0797,0.0,0.0,0.0,0.0,0.0,0.0,0.0,-4.0496,-4.0496,0.0,-4.0496,-4.0496,-4.0496,-4.0516,-4.117,-4.22,-4.3605,-4.4979,-4.5594,-4.5594,-4.5594,-4.5594,-4.5594,-4.5594,-4.5594,-4.5594,-4.5594,-4.5627,-4.568,-4.568,-4.5688,-4.5594,-4.6308,-4.6308,0.0,0.0,-4.6308,0.0,-4.6308,-4.6199,-4.6115,-4.6115,-4.6018,-4.5924,-4.5924,-4.5924,-4.5924,-4.5924,0.0,0.0,0.0,-4.5825,-4.5796,-4.5783,-4.5665,-4.5229,-4.4412,-4.3547,-4.2651,-4.1716,-4.09,-4.0512,-4.0515,-4.0519,-4.0527,-4.0515,-4.0515,-4.0515,-4.0515,-4.0515,-4.0515,-4.0515,-4.0515,-4.0515,-4.0515,-4.0515,-4.0515,-4.0515,-4.0515,-4.0515,-4.0515,-4.0515,-4.0515,-4.0515,-4.0515,-4.0515,-4.0515,-4.0504,-4.0504,-4.0519,-4.0519,-4.0527,-4.0515,-4.0515,-4.0515,-4.0547,-4.068,-4.0757,-4.0797,-4.0797,-4.0797,-4.0797,-4.0797,-4.0797,-4.0801,-4.0809,-4.0809,-4.0813,-4.0839,0.0,0.0,0.0,0.0,0.0,0.0,-4.0839,-4.0816,0.0,0.0,0.0,0.0,0.0,-4.0508,-4.0519,-4.0504,-4.0496,-4.0496,-4.0496,-4.0535,-4.0612,-4.2297,-4.3528,-4.4335,-4.521,-4.5594,-4.5594,-4.5594,-4.5594,-4.5594,-4.5612,-4.562,-4.562,-4.5618,-4.57,-4.5816,-4.5816,-4.5814,-4.5704,0.0,0.0,-4.6308,-4.6308,-4.6308,-4.6308,-4.6308,-4.6269,-4.6248,-4.6248,-4.6224,-4.6201,-4.6201,-4.6201,-4.6201,-4.6201,-4.6027,-4.5881,-4.5826,-4.5803,-4.5754,-4.564,-4.562,-4.5498,-4.5306,-4.3855,-4.2406,-4.0965,-4.0641,-4.0584,-4.0733,-4.0684,-4.067,-4.0738,-4.0738,-4.0738,-4.0738,-4.0738,-4.0738,-4.0738,-4.0738,-4.0738,-4.0738,-4.0738,-4.0738,-4.0738,-4.0738,-4.0738,-4.0738,-4.0738,-4.0738,-4.0738,-4.0738,-4.0738,-4.0698,-4.0547,-4.0581,-4.0642,-4.0642,-4.0693,-4.0738,-4.0738,-4.0738,-4.0743,-4.077,-4.08,-4.0797,-4.0797,-4.0797,-4.0797,-4.0797,-4.0797,-4.0824,-4.0947,-4.0955,-4.099,-4.1082,-4.1104,0.0,0.0,-4.1104,-4.1104,-4.1104,-4.1104,-4.1055,0.0,0.0,0.0,0.0,-4.0746,-4.0707,-4.0649,-4.0552,-4.0496,-4.0496,-4.0496,-4.0835,-4.1508,-4.2585,-4.3528,-4.4335,-4.521,-4.5594,-4.5594,-4.5594,-4.5594,-4.5603,-4.5715,-4.5754,-4.5768,-4.5799,-4.5846,-4.5877,-4.5877,-4.5502,-4.4872,-4.6308,-4.6308,-4.6308,-4.6308,-4.6308,-4.6308,-4.6308,-4.6308,-4.6308,-4.6308,-4.6308,-4.6308,-4.6308,-4.6308,-4.6308,-4.6308,-4.6173,-4.603,-4.5933,-4.589,-4.5813,-4.5744,-4.5711,-4.5711,-4.5737,-4.4092,-4.2425,-4.0757,-4.0663,-4.0687,-4.0797,-4.0752,-4.0776,-4.0797,-4.0797,-4.0797,-4.0797,-4.0797,-4.0797,-4.0797,-4.0797,-4.0797,-4.0797,-4.0797,-4.0797,-4.0797,-4.0797,-4.0797,-4.0797,-4.0797,-4.0797,-4.0797,-4.0797,-4.0797,-4.0777,-4.0674,-4.0685,-4.0757,-4.0757,-4.077,-4.0797,-4.0797,-4.0854,-4.0883,-4.0883,-4.0947,-4.0988,-4.0988,-4.0988,-4.0988,-4.0988,-4.0988,-4.1017,-4.108,-4.1082,-4.1126,-4.1191,-4.1191,0.0,-4.1191,-4.1191,-4.1191,-4.1191,-4.1191,-4.1171,-4.1102,0.0,0.0,-4.099,-4.0922,-4.0839,-4.0742,-4.0688,-4.0647,-4.0647,-4.0647,-4.1266,-4.2544,-4.3008,-4.3879,-4.5041,-4.5525,-4.5737,-4.5737,-4.5737,-4.5737,-4.5744,-4.5819,-4.5853,-4.5859,-4.5896,-4.5932,-4.5933,-4.554,-4.5153,-4.468,-4.6308,-4.6308,-4.6308,-4.6308,-4.6308,-4.6308,-4.6308,-4.6308,-4.6308,-4.6308,-4.6308,-4.6308,-4.6308,-4.6308,-4.6308,-4.6308,-4.6308,-4.6247,-4.6113,-4.5992,-4.592,-4.5899,-4.5853,-4.5842,-4.5899,-4.4264,-4.256,-4.082,-4.0805,-4.0816,-4.086,-4.0847,-4.085,-4.0864,-4.0864,-4.0864,-4.0864,-4.0864,-4.0864,-4.0864,-4.0864,-4.0864,-4.0864,-4.0864,-4.0864,-4.0864,-4.0864,-4.0864,-4.0864,-4.0864,-4.0864,-4.0864,-4.0864,-4.0864,-4.0864,-4.0864,-4.0864,-4.086,-4.0847,-4.0831,-4.0864,-4.0864,-4.0952,-4.1026,-4.1026,-4.1126,-4.1191,-4.1191,-4.1191,-4.1191,-4.1191,-4.1191,-4.1191,-4.1191,-4.1191,-4.1191,-4.1191,0.0,-4.1191,-4.1191,-4.1191,-4.1191,-4.1191,-4.1191,-4.1191,-4.1191,-4.1191,-4.1191,0.0,-4.1082,-4.0986,-4.0864,-4.0816,-4.0797,-4.0797,-4.0937,-4.1813,-4.3408,-4.3525,-4.4401,-4.5899,-4.5899,-4.5899,-4.5899,-4.5899,-4.5899,-4.5903,-4.592,-4.5924,-4.5928,-4.5944,-4.6033,-4.6023,-4.5145,-4.4813,-4.457,-4.6308,-4.6308,-4.6308,-4.6308,-4.6308,-4.6308,-4.6308,-4.6308,-4.6308,-4.6308,-4.6308,-4.6308,-4.6308,-4.6308,-4.6308,-4.6308,-4.6308,-4.6247,-4.6113,-4.608,-4.6027,-4.5903,-4.5881,-4.5881,-4.5899,-4.4264,-4.2594,-4.0964,-4.086,-4.0917,-4.1148,-4.1023,-4.1026,-4.1149,-4.1149,-4.1149,-4.1149,-4.1149,-4.1149,-4.1149,-4.1149,-4.1149,-4.1149,-4.1149,-4.1149,-4.1149,-4.1149,-4.1149,-4.1149,-4.1149,-4.1149,-4.1149,-4.1149,-4.1149,-4.1149,-4.1149,-4.1149,-4.1106,-4.0996,-4.1052,-4.1149,-4.1149,-4.115,-4.1171,-4.1171,-4.1191,-4.1191,-4.1191,-4.1191,-4.1191,-4.1191,-4.1191,-4.1191,-4.1191,-4.1191,-4.1191,-4.1191,0.0,-4.1191,-4.1191,-4.1191,-4.1191,-4.1191,-4.1191,-4.1191,-4.1191,-4.1191,-4.1191,-4.1191,-4.1171,-4.1151,-4.1149,-4.0917,-4.0797,-4.0797,-4.1525,-4.2401,-4.3408,-4.4152,-4.4989,-4.5899,-4.5899,-4.5899,-4.5899,-4.5899,-4.5899,-4.5907,-4.603,-4.6075,-4.608,-4.6199,-4.6247,-4.6151,-4.5292,-4.4511,-4.3769,-4.6308,-4.6308,-4.6308,-4.6308,-4.6308,-4.6308,-4.6308,-4.6308,-4.6308,-4.6308,-4.6308,-4.6308,-4.6308,-4.6308,-4.6308,-4.6308,-4.6308,-4.6269,-4.6203,-4.6144,-4.6077,-4.6001,-4.6001,-4.5591,-4.4727,-4.3968,-4.2768,-4.1104,-4.1051,-4.108,-4.1191,-4.1148,-4.1149,-4.1191,-4.1191,-4.1191,-4.1191,-4.1191,-4.1191,-4.1191,-4.1191,-4.1191,-4.1191,-4.1191,-4.1191,-4.1191,-4.1191,-4.1191,-4.1191,-4.1191,-4.1191,-4.1191,-4.1191,-4.1191,-4.1191,-4.1191,-4.1191,-4.1191,-4.1127,-4.115,-4.1191,-4.1191,-4.1191,-4.1191,-4.1191,-4.1191,-4.1191,-4.1191,-4.1191,-4.1191,-4.1191,-4.1191,-4.1191,-4.1191,-4.1191,0.0,0.0,-4.1191,-4.1191,-4.1191,-4.1191,-4.1191,-4.1191,-4.1191,-4.1191,-4.1191,-4.1191,-4.1191,-4.1191,-4.1191,-4.1191,-4.1191,-4.108,-4.1021,-4.1021,-4.1843,-4.2701,-4.3578,-4.4458,-4.5297,-4.6115,-4.6115,-4.6115,-4.6115,-4.6115,-4.6115,-4.6117,-4.6177,-4.6202,-4.6203,-4.6288,-4.6016,-4.5488,-4.4629,-4.375,-4.2871,-4.6308,-4.6308,-4.6308,-4.6308,-4.6308,-4.6308,-4.6308,-4.6308,-4.6308,-4.6308,-4.6308,-4.6308,-4.6308,-4.6308,-4.6308,-4.6308,-4.6308,-4.6308,-4.6308,-4.6201,-4.6147,-4.6147,-4.6147,-4.5379,-4.373,-4.3691,-4.2871,-4.1191,-4.1191,-4.1191,-4.1191,-4.1191,-4.1191,-4.1191,-4.1191,-4.1191,-4.1191,-4.1191,-4.1191,-4.1191,-4.1191,-4.1191,-4.1191,-4.1191,-4.1191,-4.1191,-4.1191,-4.1191,-4.1191,-4.1191,-4.1191,-4.1191,-4.1191,-4.1191,-4.1191,-4.1191,-4.1191,-4.1191,-4.1191,-4.1191,-4.1191,-4.1191,-4.1191,-4.1191,-4.1191,-4.1191,-4.1191,-4.1191,-4.1191,-4.1191,-4.1191,-4.1191,-4.1191,-4.1191,0.0,0.0,0.0,-4.1191,-4.1191,-4.1191,-4.1191,-4.1191,-4.1191,-4.1191,-4.1191,-4.1191,-4.1191,-4.1191,-4.1191,-4.1191,-4.1191,-4.1191,-4.1191,-4.1289,-4.1484,-4.2285,-4.3144,-4.4004,-4.4883,-4.5644,-4.6308,-4.6308,-4.6308,-4.6308,-4.6308,-4.6308,-4.6308,-4.6308,-4.6308,-4.6308,-4.6308,-4.5762,-4.4883,-4.4023,-4.3144,-4.2285,-4.6308,-4.6308,-4.6308,-4.6308,-4.6308,-4.6308,-4.6308,-4.6308,-4.6308,-4.6308,-4.6308,-4.6308,-4.6308,-4.6308,-4.6308,-4.6308,-4.6308,-4.6308,-4.6308,-4.6289,-4.6289,-4.6289,-4.6289,-4.5469,-4.373,-4.3691,-4.2871,-4.1191,-4.1191,-4.1191,-4.1191,-4.1191,-4.1191,-4.1191,-4.1191,-4.1191,-4.1191,-4.1191,-4.1191,-4.1191,-4.1191,-4.1191,-4.1191,-4.1191,-4.1191,-4.1191,-4.1191,-4.1191,-4.1191,-4.1191,-4.1191,-4.1191,-4.1191,-4.1191,-4.1191,-4.1191,-4.1191,-4.1191,-4.1191,-4.1191,-4.1191,-4.1191,-4.1191,-4.1191,-4.1191,-4.1191,-4.1191,-4.1191,-4.1191,-4.1191,-4.1191,-4.1191,-4.1191,-4.1191,0.0,0.0,-4.1191,-4.1191,-4.1191,-4.1191,-4.1191,-4.1191,-4.1191,-4.1191,-4.1191,-4.1191,-4.1191,-4.1191,-4.1191,-4.1191,-4.1191,-4.1191,-4.1191,-4.1562,-4.2305,-4.3164,-4.4043,-4.4902,-4.5781,-4.623,-4.6308,-4.6308,-4.6308,-4.6308,-4.6308,-4.6308,-4.6308,-4.6308,-4.6308,-4.6308,-4.6308,-4.5762,-4.4883,-4.4023,-4.3144,-4.2285,-4.6308,-4.6308,-4.6308,-4.6308,-4.6308,-4.6308,-4.6308,-4.6308,-4.6308,-4.6308,-4.6308,-4.6308,-4.6308,-4.6308,-4.6308,-4.6308,-4.6308,-4.6308,-4.6308,-4.6308,-4.6308,-4.6308,-4.5781,-4.4922,-4.373,-4.3164,-4.2344,-4.1191,-4.1191,-4.1191,-4.1191,-4.1191,-4.1191,-4.1191,-4.1191,-4.1191,-4.1191,-4.1191,-4.1191,-4.1191,-4.1191,-4.1191,-4.1191,-4.1191,-4.1191,-4.1191,-4.1191,-4.1191,-4.1191,-4.1191,-4.1191,-4.1191,-4.1191,-4.1191,-4.1191,-4.1191,-4.1191,-4.1191,-4.1191,-4.1191,-4.1191,-4.1191,-4.1191,-4.1191,-4.1191,-4.1191,-4.1191,-4.1191,-4.1191,-4.1191,-4.1191,-4.1191,-4.1191,-4.1191,0.0,-4.1191,-4.1191,-4.1191,-4.1191,-4.1191,-4.1191,-4.1191,-4.1191,-4.1191,-4.1191,-4.1191,-4.1191,-4.1191,-4.1191,-4.1191,-4.1191,-4.1191,-4.168,-4.209,-4.2402,-4.3262,-4.4141,-4.5019,-4.5879,-4.6308,-4.6308,-4.6308,-4.6308,-4.6308,-4.6308,-4.6308,-4.6308,-4.6308,-4.6308,-4.625,-4.5703,-4.4961,-4.4082,-4.3223,-4.2363,-4.1601,-4.6246,-4.6201,-4.6174,-4.6174,-4.6202,-4.6246,-4.6246,-4.6269,-4.6308,-4.6308,-4.6308,-4.6308,-4.6308,-4.6308,-4.6308,-4.6308,-4.6308,-4.6308,-4.6308,-4.6308,-4.6172,-4.5898,-4.5312,-4.4453,-4.332,-4.2715,-4.2012,-4.1191,-4.1191,-4.1191,-4.1191,-4.1191,-4.1191,-4.1191,-4.1191,-4.1191,-4.1191,-4.1191,-4.1191,-4.1191,-4.1191,-4.1191,-4.1191,-4.1191,-4.1191,-4.1191,-4.1191,-4.1191,-4.1191,-4.1191,-4.1191,-4.1191,-4.1191,-4.1191,-4.1191,-4.115,-4.1148,-4.1128,-4.1081,-4.1078,-4.1083,-4.1171,-4.1191,-4.1191,-4.1191,-4.1191,-4.1191,-4.1149,-4.1148,-4.1127,-4.108,-4.1078,-4.1078,-4.1078,-4.1078,-4.1078,-4.1078,-4.1078,-4.1078,-4.1078,-4.1078,-4.1082,-4.1129,-4.1148,-4.115,-4.1191,-4.1191,-4.1191,-4.1191,-4.1191,-4.1191,-4.1191,-4.1973,-4.2539,-4.2812,-4.3672,-4.4551,-4.543,-4.6016,-4.6308,-4.6308,-4.6308,-4.6308,-4.6308,-4.6308,-4.6308,-4.6308,-4.6308,-4.6308,-4.6211,-4.5332,-4.4473,-4.3594,-4.2715,-4.1894,-4.1191,-4.6108,-4.5992,-4.5899,-4.5899,-4.6001,-4.6108,-4.6108,-4.6202,-4.6308,-4.6308,-4.6308,-4.6308,-4.6308,-4.6308,-4.6308,-4.6308,-4.6308,-4.6308,-4.6308,-4.6289,-4.5898,-4.5039,-4.498,-4.418,-4.2441,-4.2383,-4.1992,-4.1191,-4.1191,-4.1191,-4.1191,-4.1191,-4.1191,-4.1191,-4.1191,-4.1191,-4.1191,-4.1191,-4.1191,-4.1191,-4.1191,-4.1191,-4.1191,-4.1191,-4.1191,-4.1191,-4.1191,-4.1191,-4.1191,-4.1191,-4.1191,-4.1191,-4.1191,-4.1191,-4.1171,-4.1048,-4.0994,-4.0964,-4.0847,-4.0797,-4.0864,-4.1128,-4.1191,-4.1191,-4.1191,-4.1191,-4.1151,-4.1025,-4.0994,-4.0957,-4.0816,-4.0797,-4.0797,-4.0797,-4.0797,-4.0797,-4.0797,-4.0797,-4.0797,-4.0797,-4.0797,-4.0857,-4.099,-4.0994,-4.1054,-4.1191,-4.1191,-4.1191,-4.1191,-4.1191,-4.1191,-4.1191,-4.1973,-4.2812,-4.3691,-4.4551,-4.5449,-4.6308,-4.6308,-4.6308,-4.6308,-4.6308,-4.6308,-4.6308,-4.6308,-4.6308,-4.6308,-4.6308,-4.6308,-4.6191,-4.5332,-4.4453,-4.3574,-4.2715,-4.1875,-4.1191,-4.5967,-4.5924,-4.5899,-4.5899,-4.5928,-4.5967,-4.5967,-4.5992,-4.6027,-4.6027,-4.6027,-4.6027,-4.6027,-4.6091,-4.615,-4.615,-4.6247,-4.6308,-4.6308,-4.5723,-4.5,-4.4121,-4.4082,-4.3555,-4.2422,-4.1855,-4.1445,-4.1191,-4.1191,-4.1191,-4.1191,-4.1191,-4.1191,-4.1191,-4.1191,-4.1191,-4.1191,-4.1191,-4.1191,-4.1191,-4.1102,-4.1055,-4.1052,-4.0957,-4.0917,-4.0917,-4.0917,-4.0917,-4.0917,-4.0917,-4.0917,-4.0917,-4.0917,-4.0917,-4.0914,-4.087,-4.086,-4.0857,-4.0809,-4.0797,-4.0813,-4.0905,-4.0917,-4.0917,-4.0917,-4.0917,-4.0911,-4.0867,-4.086,-4.0854,-4.0805,-4.0797,-4.0797,-4.0797,-4.0797,-4.0797,-4.0797,-4.0797,-4.0797,-4.0797,-4.0797,-4.0813,-4.086,-4.086,-4.0874,-4.0917,-4.0917,-4.0917,-4.0917,-4.0917,-4.0917,-4.0917,-4.234,-4.3239,-4.3493,-4.4484,-4.5449,-4.6308,-4.6308,-4.6308,-4.6308,-4.6308,-4.6308,-4.6308,-4.6308,-4.6308,-4.6308,-4.6308,-4.5937,-4.5293,-4.4433,-4.3532,-4.2618,-4.1738,-4.1211,-4.0917,-4.5866,-4.5817,-4.5776,-4.5776,-4.5828,-4.5866,-4.5866,-4.5891,-4.5899,-4.5899,-4.5899,-4.5899,-4.5899,-4.5978,-4.6027,-4.6027,-4.6106,-4.6009,-4.5698,-4.5171,-4.433,-4.3121,-4.3063,-4.2704,-4.1933,-4.1445,-4.1191,-4.1191,-4.1191,-4.1191,-4.1191,-4.1149,-4.1126,-4.1126,-4.1076,-4.1049,-4.1049,-4.1049,-4.1049,-4.1028,-4.0955,-4.092,-4.0914,-4.0824,-4.0797,-4.0797,-4.0797,-4.0797,-4.0797,-4.0797,-4.0797,-4.0797,-4.0797,-4.0797,-4.0789,-4.0766,-4.0767,-4.0757,-4.0707,-4.0671,-4.0671,-4.0671,-4.0733,-4.0797,-4.0797,-4.0797,-4.0785,-4.0781,-4.0767,-4.0733,-4.0682,-4.0671,-4.0671,-4.0671,-4.0671,-4.0671,-4.0671,-4.0671,-4.0671,-4.0671,-4.0671,-4.0692,-4.0762,-4.0767,-4.077,-4.0797,-4.0797,-4.0797,-4.0797,-4.0797,-4.0953,-4.1303,-4.2665,-4.3564,-4.391,-4.486,-4.5646,-4.6223,-4.6269,-4.6308,-4.6308,-4.6308,-4.6308,-4.6308,-4.6247,-4.6223,-4.6222,-4.6152,-4.5638,-4.4798,-4.392,-4.3023,-4.2111,-4.1231,-4.0867,-4.0797,-4.5776,-4.5669,-4.5594,-4.5594,-4.57,-4.5776,-4.5776,-4.5828,-4.5867,-4.5867,-4.5867,-4.5867,-4.5867,-4.5876,-4.5885,-4.5885,-4.5836,-4.5475,-4.474,-4.4545,-4.3767,-4.2171,-4.2035,-4.1738,-4.119,-4.1151,-4.1151,-4.1151,-4.1151,-4.1151,-4.1151,-4.1049,-4.0988,-4.0986,-4.0857,-4.0797,-4.0797,-4.0797,-4.0797,-4.0797,-4.0789,-4.0785,-4.0781,-4.0773,-4.0768,-4.0768,-4.0768,-4.0768,-4.0768,-4.0768,-4.0768,-4.0768,-4.0768,-4.0768,-4.0766,-4.0701,-4.068,-4.0668,-4.0523,-4.0496,-4.0496,-4.0496,-4.0647,-4.0768,-4.0768,-4.0768,-4.0757,-4.069,-4.068,-4.0636,-4.0527,-4.0496,-4.0496,-4.0496,-4.0496,-4.0496,-4.0496,-4.0496,-4.0496,-4.0496,-4.0496,-4.0545,-4.0661,-4.068,-4.0718,-4.076,-4.0768,-4.0768,-4.0768,-4.0768,-4.1177,-4.2047,-4.2926,-4.3782,-4.4652,-4.5487,-4.5959,-4.6082,-4.6201,-4.6268,-4.6268,-4.6268,-4.6268,-4.6268,-4.6142,-4.6082,-4.6077,-4.5866,-4.5319,-4.4506,-4.3626,-4.2743,-4.1883,-4.1077,-4.0777,-4.0768,-4.5643,-4.5629,-4.5594,-4.5594,-4.5618,-4.5643,-4.5643,-4.5665,-4.5677,-4.5677,-4.5677,-4.5677,-4.5677,-4.5757,-4.5814,-4.5814,-4.5284,-4.4895,-4.4701,-4.3416,-4.2482,-4.2113,-4.1447,-4.1015,-4.0899,-4.0899,-4.0899,-4.0899,-4.0899,-4.0899,-4.0899,-4.086,-4.0831,-4.085,-4.0809,-4.0797,-4.0797,-4.0797,-4.0797,-4.0789,-4.0732,-4.0729,-4.0718,-4.0617,-4.0563,-4.0563,-4.0563,-4.0563,-4.0563,-4.0563,-4.0563,-4.0563,-4.0563,-4.0563,-4.0556,-4.0552,-4.0537,-4.0549,-4.0504,-4.0496,-4.0496,-4.0496,-4.0518,-4.0563,-4.0563,-4.0563,-4.0549,-4.0545,-4.0537,-4.0523,-4.0504,-4.0496,-4.0496,-4.0496,-4.0496,-4.0496,-4.0496,-4.0496,-4.0496,-4.0496,-4.0496,-4.0512,-4.0537,-4.0537,-4.0559,-4.0556,-4.0563,-4.0563,-4.0563,-4.0563,-4.0961,-4.1842,-4.2717,-4.3566,-4.4376,-4.5344,-4.5855,-4.5936,-4.5978,-4.5988,-4.5988,-4.5988,-4.5988,-4.5985,-4.5967,-4.5936,-4.5897,-4.5235,-4.4463,-4.3607,-4.2712,-4.182,-4.0981,-4.0787,-4.0654,-4.0563,-4.5594,-4.5594,-4.5594,-4.5594,-4.5594,-4.5594,-4.5594,-4.5594,-4.5594,-4.5594,-4.5594,-4.5594,-4.5594,-4.5657,-4.5534,-4.5128,-4.4737,-4.4169,-4.3361,-4.2464,-4.1767,-4.1346,-4.0895,-4.0657,-4.0657,-4.0657,-4.0703,-4.0797,-4.0797,-4.0797,-4.0797,-4.0761,-4.0752,-4.0752,-4.0685,-4.0657,-4.0657,-4.0657,-4.0657,-4.0651,-4.0623,-4.0603,-4.0589,-4.0534,-4.0496,-4.0496,-4.0496,-4.0496,-4.0496,-4.0496,-4.0496,-4.0496,-4.0496,-4.0496,-4.0496,-4.0496,-4.0496,-4.0496,-4.0496,-4.0496,-4.0496,-4.0496,-4.0496,-4.0496,-4.0496,-4.0496,-4.0496,-4.0496,-4.0496,-4.0496,-4.0496,-4.0496,-4.0496,-4.0496,-4.0496,-4.0496,-4.0496,-4.0496,-4.0496,-4.0496,-4.0496,-4.0496,-4.0496,-4.0496,-4.0496,-4.0496,-4.0496,-4.0496,-4.0496,-4.0496,-4.0893,-4.1769,-4.2643,-4.3489,-4.4297,-4.5229,-4.572,-4.5757,-4.5842,-4.5899,-4.5899,-4.5899,-4.5899,-4.5899,-4.5876,-4.5617,-4.5184,-4.4703,-4.3782,-4.2594,-4.2129,-4.1403,-4.0603,-4.0603,-4.0559,-4.0496,-4.5594,-4.5594,-4.5594,-4.5594,-4.5594,-4.5594,-4.5594,-4.5594,-4.5594,-4.5594,-4.5594,-4.5594,-4.5594,-4.5479,-4.5037,-4.4162,-4.3951,-4.3278,-4.1885,-4.1662,-4.1258,-4.0535,-4.0496,-4.0496,-4.0496,-4.0496,-4.0571,-4.0742,-4.0742,-4.0742,-4.0757,-4.0682,-4.0681,-4.0655,-4.0545,-4.0496,-4.0496,-4.0496,-4.0496,-4.0496,-4.0496,-4.0496,-4.0496,-4.0496,-4.0496,-4.0496,-4.0496,-4.0496,-4.0496,-4.0496,-4.0496,-4.0496,-4.0496,-4.0496,-4.0496,-4.0496,-4.0496,-4.0496,-4.0496,-4.0496,-4.0496,-4.0496,-4.0496,-4.0496,-4.0496,-4.0496,-4.0496,-4.0496,-4.0496,-4.0496,-4.0496,-4.0496,-4.0496,-4.0496,-4.0496,-4.0496,-4.0496,-4.0496,-4.0496,-4.0496,-4.0496,-4.0496,-4.0496,-4.0496,-4.0496,-4.0496,-4.0496,-4.0496,-4.0496,-4.0496,-4.0893,-4.1769,-4.2508,-4.3278,-4.4085,-4.4806,-4.5171,-4.5171,-4.535,-4.5565,-4.5857,-4.5857,-4.5779,-4.5618,-4.5564,-4.5059,-4.424,-4.3975,-4.3047,-4.1788,-4.1643,-4.1143,-4.0496,-4.0496,-4.0496,-4.0496,-4.5594,-4.5594,-4.5594,-4.5594,-4.5594,-4.5594,-4.5594,-4.5594,-4.5594,-4.5594,-4.5594,-4.5594,-4.5594,-4.494,-4.4143,-4.3335,-4.2566,-4.2038,-4.1808,-4.1085,-4.0631,-4.0516,-4.0496,-4.0496,-4.0496,-4.0496,-4.05,-4.0533,-4.0533,-4.0533,-4.0533,-4.053,-4.0534,-4.0534,-4.0504,-4.0496,-4.0496,-4.0496,-4.0496,-4.0496,-4.0496,-4.0496,-4.0496,-4.0496,-4.0496,-4.0496,-4.0496,-4.0496,-4.0496,-4.0496,-4.0496,-4.0496,-4.0496,-4.0496,-4.0496,-4.0496,-4.0496,-4.0496,-4.0496,-4.0496,-4.0496,-4.0496,-4.0496,-4.0496,-4.0496,-4.0496,-4.0496,-4.0496,-4.0496,-4.0496,-4.0496,-4.0496,-4.0496,-4.0496,-4.0496,-4.0496,-4.0496,-4.0496,-4.0496,-4.0496,-4.0496,-4.0496,-4.0496,-4.0496,-4.0496,-4.0496,-4.0496,-4.0496,-4.0496,-4.0496,-4.0893,-4.1769,-4.1904,-4.2393,-4.3258,-4.3374,-4.3431,-4.3431,-4.3477,-4.4233,-4.564,-4.564,-4.5236,-4.4522,-4.4509,-4.4039,-4.3222,-4.2459,-4.2,-4.1731,-4.0969,-4.0593,-4.0496,-4.0496,-4.0496,-4.0496,-4.5594,-4.5594,-4.5594,-4.5594,-4.5594,-4.5594,-4.5594,-4.5594,-4.5594,-4.5594,-4.519,-4.4874,-4.4874,-4.4124,-4.3297,-4.245,-4.2019,-4.1585,-4.1104,-4.0708,-4.0496,-4.0496,-4.0496,-4.0496,-4.0496,-4.0496,-4.0496,-4.0496,-4.0496,-4.0496,-4.0496,-4.0496,-4.0496,-4.0496,-4.0496,-4.0496,-4.0496,-4.0496,-4.0496,-4.0496,-4.0496,-4.0496,-4.0496,-4.0496,-4.0496,-4.0496,-4.0496,-4.0496,-4.0496,-4.0496,-4.0496,-4.0496,-4.0496,-4.0496,-4.0496,-4.0496,-4.0496,-4.0496,-4.0496,-4.0496,-4.0496,-4.0496,-4.0496,-4.0496,-4.0496,-4.0496,-4.0496,-4.0496,-4.0496,-4.0496,-4.0496,-4.0496,-4.0496,-4.0496,-4.0496,-4.0496,-4.0496,-4.0496,-4.0496,-4.0496,-4.0496,-4.0496,-4.0496,-4.0496,-4.0496,-4.0496,-4.0496,-4.0496,-4.0496,-4.0496,-4.0689,-4.1066,-4.1546,-4.1981,-4.2374,-4.2854,-4.3104,-4.3104,-4.3104,-4.3489,-4.4201,-4.4201,-4.3989,-4.3624,-4.3624,-4.3143,-4.2335,-4.1962,-4.1508,-4.1046,-4.065,-4.0496,-4.0496,-4.0496,-4.0496,-4.0496]},{"header":{"parameterUnit":"m.s-1","parameterCategory":1,"la1":30.6,"la2":28.766,"lo1":-90.7593,"lo2":-88.6598,"dy":0.0162,"dx":0.0183,"nx":116,"ny":114,"refTime":"2023-08-07T06:00:00:Z","depth":0,"parameterNumber":3,"parameterNumberName":"V-component_of_WINDS"},"data":[0.0,0.0,0.0,0.0,0.0,0.0,0.0,0.0,0.0,0.0,0.0,0.0,0.0,0.0,0.0,0.0,0.0,0.0,0.0,0.0,0.0,0.0,0.0,0.0,0.0,0.0,0.0,0.0,0.0,0.0,0.0,0.0,0.0,0.0,0.0,0.0,0.0,0.0,0.0,0.0,0.0,0.0,0.0,0.0,0.0,0.0,0.0,0.0,0.0,0.0,0.0,0.0,0.0,0.0,0.0,0.0,0.0,0.0,0.0,0.0,0.0,0.0,0.0,0.0,0.0,0.0,0.0,0.0,0.0,0.0,0.0,0.0,0.0,0.0,0.0,0.0,0.0,0.0,0.0,0.0,0.0,0.0,0.0,0.0,0.0,0.0,0.0,0.0,0.0,0.0,0.0,0.0,0.0,0.0,0.0,0.0,0.0,0.0,0.0,0.0,0.0,0.0,0.0,0.0,0.0,0.0,0.0,0.0,0.0,0.0,0.0,0.0,0.0,0.0,0.0,0.0,0.0,0.0,0.0,0.0,0.0,0.0,0.0,0.0,0.0,0.0,0.0,0.0,0.0,0.0,0.0,0.0,0.0,0.0,0.0,0.0,0.0,0.0,0.0,0.0,0.0,0.0,0.0,0.0,0.0,0.0,0.0,0.0,0.0,0.0,0.0,0.0,0.0,0.0,0.0,0.0,0.0,0.0,0.0,0.0,0.0,0.0,0.0,0.0,0.0,0.0,0.0,0.0,0.0,0.0,0.0,0.0,0.0,0.0,0.0,0.0,0.0,0.0,0.0,0.0,0.0,0.0,0.0,0.0,0.0,0.0,0.0,0.0,0.0,0.0,0.0,0.0,0.0,0.0,0.0,0.0,0.0,0.0,0.0,0.0,0.0,0.0,0.0,0.0,0.0,0.0,0.0,0.0,0.0,0.0,0.0,0.0,0.0,0.0,0.0,0.0,0.0,0.0,0.0,0.0,0.0,0.0,0.0,0.0,0.0,0.0,0.0,0.0,0.0,0.0,0.0,0.0,0.0,0.0,0.0,0.0,0.0,0.0,0.0,0.0,0.0,0.0,0.0,0.0,0.0,0.0,0.0,0.0,0.0,0.0,0.0,0.0,0.0,0.0,0.0,0.0,0.0,0.0,0.0,0.0,0.0,0.0,0.0,0.0,0.0,0.0,0.0,0.0,0.0,0.0,0.0,0.0,0.0,0.0,0.0,0.0,0.0,0.0,0.0,0.0,0.0,0.0,0.0,0.0,0.0,0.0,0.0,0.0,0.0,0.0,0.0,0.0,0.0,0.0,0.0,0.0,0.0,0.0,0.0,0.0,0.0,0.0,0.0,0.0,0.0,0.0,0.0,0.0,0.0,0.0,0.0,0.0,0.0,0.0,0.0,0.0,0.0,0.0,0.0,0.0,0.0,0.0,0.0,0.0,0.0,0.0,0.0,0.0,0.0,0.0,0.0,0.0,0.0,0.0,0.0,0.0,0.0,0.0,0.0,0.0,0.0,0.0,0.0,0.0,0.0,0.0,0.0,0.0,0.0,0.0,0.0,0.0,0.0,0.0,0.0,0.0,0.0,0.0,0.0,0.0,0.0,0.0,0.0,0.0,0.0,0.0,0.0,0.0,0.0,0.0,0.0,0.0,0.0,0.0,0.0,0.0,0.0,0.0,0.0,0.0,0.0,0.0,0.0,0.0,0.0,0.0,0.0,0.0,0.0,0.0,0.0,0.0,0.0,0.0,0.0,0.0,0.0,0.0,0.0,0.0,0.0,0.0,0.0,0.0,0.0,0.0,0.0,0.0,0.0,0.0,0.0,0.0,0.0,0.0,0.0,0.0,0.0,0.0,0.0,0.0,0.0,0.0,0.0,0.0,0.0,0.0,0.0,0.0,0.0,0.0,0.0,0.0,0.0,0.0,0.0,0.0,0.0,0.0,0.0,0.0,0.0,0.0,0.0,0.0,0.0,0.0,0.0,0.0,0.0,0.0,0.0,0.0,0.0,0.0,0.0,0.0,0.0,0.0,0.0,0.0,0.0,0.0,0.0,0.0,0.0,0.0,0.0,0.0,0.0,0.0,0.0,0.0,0.0,0.0,0.0,0.0,0.0,0.0,0.0,0.0,0.0,0.0,0.0,0.0,0.0,0.0,0.0,0.0,0.0,0.0,0.0,0.0,0.0,0.0,0.0,0.0,0.0,0.0,0.0,0.0,0.0,0.0,0.0,0.0,0.0,0.0,0.0,0.0,0.0,0.0,0.0,0.0,0.0,0.0,0.0,0.0,0.0,0.0,0.0,0.0,0.0,0.0,0.0,0.0,0.0,0.0,0.0,0.0,0.0,0.0,0.0,0.0,0.0,0.0,0.0,0.0,0.0,0.0,0.0,0.0,0.0,0.0,0.0,0.0,0.0,0.0,0.0,0.0,0.0,0.0,0.0,0.0,0.0,0.0,0.0,0.0,0.0,0.0,0.0,0.0,0.0,0.0,0.0,0.0,0.0,0.0,0.0,0.0,0.0,0.0,0.0,0.0,0.0,0.0,0.0,0.0,0.0,0.0,0.0,0.0,0.0,0.0,0.0,0.0,0.0,0.0,0.0,0.0,0.0,0.0,0.0,0.0,0.0,0.0,0.0,0.0,0.0,0.0,0.0,0.0,0.0,0.0,0.0,0.0,0.0,0.0,0.0,0.0,0.0,0.0,0.0,0.0,0.0,0.0,0.0,0.0,0.0,0.0,0.0,0.0,0.0,0.0,0.0,0.0,0.0,0.0,0.0,0.0,0.0,0.0,0.0,0.0,0.0,0.0,0.0,0.0,0.0,0.0,0.0,0.0,0.0,0.0,0.0,0.0,0.0,0.0,0.0,0.0,0.0,0.0,0.0,0.0,0.0,0.0,0.0,0.0,0.0,0.0,0.0,0.0,0.0,0.0,0.0,0.0,0.0,0.0,0.0,0.0,0.0,0.0,0.0,0.0,0.0,0.0,0.0,0.0,0.0,0.0,0.0,0.0,0.0,0.0,0.0,0.0,0.0,0.0,0.0,0.0,0.0,0.0,0.0,0.0,0.0,0.0,0.0,0.0,0.0,0.0,0.0,0.0,0.0,0.0,0.0,0.0,0.0,0.0,0.0,0.0,0.0,0.0,0.0,0.0,0.0,0.0,0.0,0.0,0.0,0.0,0.0,0.0,0.0,0.0,0.0,0.0,0.0,0.0,0.0,0.0,0.0,0.0,0.0,0.0,0.0,0.0,0.0,0.0,0.0,0.0,0.0,0.0,0.0,0.0,0.0,0.0,0.0,0.0,0.0,0.0,0.0,0.0,0.0,0.0,0.0,0.0,0.0,0.0,0.0,0.0,0.0,0.0,0.0,0.0,0.0,0.0,0.0,0.0,0.0,0.0,0.0,0.0,0.0,0.0,0.0,0.0,0.0,0.0,0.0,0.0,0.0,0.0,0.0,0.0,0.0,0.0,0.0,0.0,0.0,0.0,0.0,0.0,0.0,0.0,0.0,0.0,0.0,0.0,0.0,0.0,0.0,0.0,0.0,0.0,0.0,0.0,0.0,0.0,0.0,0.0,0.0,0.0,0.0,0.0,0.0,0.0,0.0,0.0,0.0,0.0,0.0,0.0,0.0,0.0,0.0,0.0,0.0,0.0,0.0,0.0,0.0,0.0,0.0,0.0,0.0,0.0,0.0,0.0,0.0,0.0,0.0,0.0,0.0,0.0,0.0,0.0,0.0,0.0,0.0,0.0,0.0,0.0,0.0,0.0,0.0,0.0,0.0,0.0,0.0,0.0,0.0,0.0,0.0,0.0,0.0,0.0,0.0,0.0,0.0,0.0,0.0,0.0,0.0,0.0,0.0,0.0,0.0,0.0,0.0,0.0,0.0,0.0,0.0,0.0,0.0,0.0,0.0,0.0,0.0,0.0,0.0,0.0,0.0,0.0,0.0,0.0,0.0,0.0,0.0,0.0,0.0,0.0,0.0,0.0,0.0,0.0,0.0,0.0,0.0,0.0,0.0,0.0,0.0,0.0,0.0,0.0,0.0,0.0,0.0,0.0,0.0,0.0,0.0,0.0,0.0,0.0,0.0,0.0,0.0,0.0,0.0,0.0,0.0,0.0,0.0,0.0,0.0,0.0,0.0,0.0,0.0,0.0,0.0,0.0,0.0,0.0,0.0,0.0,0.0,0.0,0.0,0.0,0.0,0.0,0.0,0.0,0.0,0.0,0.0,0.0,0.0,0.0,0.0,0.0,0.0,0.0,0.0,0.0,0.0,0.0,0.0,0.0,0.0,0.0,0.0,0.0,0.0,0.0,0.0,0.0,0.0,0.0,0.0,0.0,0.0,0.0,0.0,0.0,0.0,0.0,0.0,0.0,0.0,0.0,0.0,0.0,0.0,0.0,0.0,0.0,0.0,0.0,0.0,0.0,0.0,0.0,0.0,0.0,0.0,0.0,0.0,0.0,0.0,0.0,0.0,0.0,0.0,0.0,0.0,0.0,0.0,0.0,0.0,0.0,0.0,0.0,0.0,0.0,0.0,0.0,0.0,0.0,0.0,0.0,0.0,0.0,0.0,0.0,0.0,0.0,0.0,0.0,0.0,0.0,0.0,0.0,0.0,0.0,0.0,0.0,0.0,0.0,0.0,0.0,0.0,0.0,0.0,0.0,0.0,0.0,0.0,0.0,0.0,0.0,0.0,0.0,0.0,0.0,0.0,0.0,0.0,0.0,0.0,0.0,0.0,0.0,0.0,0.0,0.0,0.0,0.0,0.0,0.0,0.0,0.0,0.0,0.0,0.0,0.0,0.0,0.0,0.0,0.0,0.0,0.0,0.0,0.0,0.0,0.0,0.0,0.0,0.0,0.0,0.0,0.0,0.0,0.0,0.0,0.0,0.0,0.0,0.0,0.0,0.0,0.0,0.0,0.0,0.0,0.0,0.0,0.0,0.0,0.0,0.0,0.0,0.0,0.0,0.0,0.0,0.0,0.0,0.0,0.0,0.0,0.0,0.0,0.0,0.0,0.0,0.0,0.0,0.0,0.0,0.0,0.0,0.0,0.0,0.0,0.0,0.0,0.0,0.0,0.0,0.0,0.0,0.0,0.0,0.0,0.0,0.0,0.0,0.0,0.0,0.0,0.0,0.0,0.0,0.0,0.0,0.0,0.0,0.0,0.0,0.0,0.0,0.0,0.0,0.0,0.0,0.0,0.0,0.0,0.0,0.0,0.0,0.0,0.0,0.0,0.0,0.0,0.0,0.0,0.0,0.0,0.0,0.0,0.0,0.0,0.0,0.0,0.0,0.0,0.0,0.0,0.0,0.0,0.0,0.0,0.0,0.0,0.0,0.0,0.0,0.0,0.0,0.0,0.0,0.0,0.0,0.0,0.0,0.0,0.0,0.0,0.0,0.0,0.0,0.0,0.0,0.0,0.0,0.0,0.0,0.0,0.0,0.0,0.0,0.0,0.0,0.0,0.0,0.0,0.0,0.0,0.0,0.0,0.0,0.0,0.0,0.0,0.0,0.0,0.0,0.0,0.0,0.0,0.0,0.0,0.0,0.0,0.0,0.0,0.0,0.0,0.0,0.0,0.0,0.0,0.0,0.0,0.0,0.0,0.0,0.0,0.0,0.0,0.0,0.0,0.0,0.0,0.0,0.0,0.0,0.0,0.0,0.0,0.0,0.0,0.0,0.0,0.0,0.0,0.0,0.0,0.0,0.0,0.0,0.0,0.0,0.0,0.0,0.0,0.0,0.0,0.0,0.0,0.0,0.0,0.0,0.0,0.0,0.0,0.0,0.0,0.0,0.0,0.0,0.0,0.0,0.0,0.0,0.0,0.0,0.0,0.0,0.0,0.0,0.0,0.0,0.0,0.0,0.0,0.0,0.0,0.0,0.0,0.0,0.0,0.0,0.0,0.0,0.0,0.0,0.0,0.0,0.0,0.0,0.0,0.0,0.0,0.0,0.0,0.0,0.0,0.0,0.0,0.0,0.0,0.0,0.0,0.0,0.0,0.0,0.0,0.0,0.0,0.0,0.0,0.0,0.0,0.0,0.0,0.0,0.0,0.0,0.0,0.0,0.0,0.0,0.0,0.0,0.0,-2.9718,0.0,0.0,0.0,0.0,0.0,0.0,0.0,0.0,0.0,0.0,0.0,0.0,0.0,0.0,0.0,0.0,0.0,0.0,0.0,0.0,0.0,0.0,0.0,0.0,0.0,0.0,0.0,0.0,0.0,0.0,0.0,0.0,0.0,0.0,0.0,0.0,0.0,0.0,0.0,0.0,0.0,0.0,0.0,0.0,0.0,0.0,0.0,0.0,0.0,0.0,0.0,0.0,0.0,0.0,0.0,0.0,0.0,0.0,0.0,0.0,0.0,0.0,0.0,0.0,0.0,0.0,0.0,0.0,0.0,0.0,0.0,0.0,0.0,0.0,0.0,0.0,0.0,0.0,0.0,0.0,0.0,0.0,0.0,0.0,0.0,0.0,0.0,0.0,0.0,0.0,0.0,0.0,0.0,0.0,0.0,0.0,0.0,0.0,0.0,0.0,0.0,0.0,0.0,0.0,0.0,0.0,0.0,0.0,0.0,0.0,0.0,0.0,0.0,0.0,0.0,0.0,-2.9972,0.0,0.0,0.0,0.0,0.0,0.0,0.0,0.0,0.0,0.0,0.0,0.0,0.0,0.0,0.0,0.0,0.0,0.0,0.0,0.0,0.0,0.0,0.0,0.0,0.0,0.0,0.0,0.0,0.0,0.0,0.0,0.0,0.0,0.0,0.0,0.0,0.0,0.0,0.0,0.0,0.0,0.0,0.0,0.0,0.0,0.0,0.0,0.0,0.0,0.0,0.0,0.0,0.0,0.0,0.0,0.0,0.0,0.0,0.0,0.0,0.0,0.0,0.0,0.0,0.0,0.0,0.0,0.0,0.0,0.0,0.0,0.0,0.0,0.0,0.0,0.0,0.0,0.0,0.0,0.0,0.0,0.0,0.0,0.0,0.0,0.0,0.0,0.0,0.0,0.0,0.0,0.0,0.0,0.0,0.0,0.0,0.0,0.0,0.0,0.0,0.0,0.0,0.0,0.0,0.0,0.0,0.0,0.0,0.0,0.0,-3.4727,-3.3552,-3.424,-3.6238,-3.3645,-3.2449,-3.2293,0.0,0.0,0.0,0.0,0.0,0.0,0.0,0.0,0.0,0.0,0.0,0.0,0.0,0.0,0.0,0.0,0.0,0.0,0.0,0.0,0.0,0.0,0.0,0.0,0.0,0.0,0.0,0.0,0.0,0.0,0.0,0.0,0.0,0.0,0.0,0.0,0.0,0.0,0.0,-1.9068,-1.9307,-1.9424,-1.9424,-1.9424,0.0,0.0,0.0,0.0,0.0,0.0,0.0,0.0,0.0,0.0,0.0,0.0,0.0,0.0,0.0,0.0,0.0,0.0,0.0,0.0,0.0,0.0,0.0,0.0,0.0,0.0,0.0,0.0,0.0,0.0,0.0,0.0,0.0,0.0,0.0,0.0,0.0,0.0,0.0,0.0,0.0,0.0,0.0,-2.7057,-2.8859,0.0,0.0,0.0,0.0,0.0,0.0,0.0,0.0,0.0,0.0,0.0,0.0,0.0,0.0,-3.4129,-3.4129,-3.4727,-3.5858,-3.5858,-3.5953,-3.6108,-3.5953,-3.6061,-3.6358,-3.5974,0.0,-3.341,-3.2308,0.0,0.0,0.0,0.0,0.0,0.0,0.0,0.0,0.0,0.0,0.0,0.0,0.0,0.0,0.0,0.0,0.0,0.0,0.0,0.0,0.0,0.0,0.0,0.0,0.0,0.0,0.0,0.0,0.0,0.0,0.0,0.0,0.0,0.0,0.0,0.0,-1.4831,-1.6674,-1.8046,-1.9004,-1.9424,-1.9424,-1.9424,-1.9424,-1.9424,-1.9424,0.0,0.0,0.0,0.0,0.0,0.0,0.0,0.0,0.0,0.0,0.0,0.0,0.0,0.0,0.0,0.0,0.0,0.0,0.0,0.0,0.0,0.0,0.0,0.0,0.0,0.0,0.0,0.0,0.0,0.0,0.0,0.0,0.0,0.0,0.0,0.0,0.0,0.0,0.0,-2.7461,-2.9127,-2.9941,-3.0718,-3.1251,0.0,0.0,0.0,0.0,0.0,0.0,0.0,0.0,0.0,-3.3464,-3.4191,-3.4896,-3.5523,-3.5523,-3.5823,-3.6405,-3.6405,-3.6405,-3.6405,-3.6405,-3.6405,-3.6405,-3.6405,-3.5924,-3.5141,-3.4333,-3.2935,-3.1251,0.0,0.0,0.0,0.0,0.0,-2.9373,0.0,0.0,0.0,0.0,0.0,0.0,0.0,0.0,0.0,0.0,0.0,0.0,0.0,0.0,0.0,3.5541,0.0,0.0,0.0,0.0,0.0,0.0,0.0,0.0,0.0,0.0,0.0,-1.4004,-1.602,-1.7026,-1.7026,-1.8648,-1.9424,-1.9424,-1.9424,-1.9424,-1.9366,-1.8946,-1.8765,0.0,0.0,0.0,0.0,0.0,0.0,0.0,0.0,0.0,0.0,0.0,0.0,0.0,0.0,0.0,0.0,0.0,0.0,0.0,0.0,0.0,0.0,0.0,0.0,0.0,0.0,0.0,0.0,0.0,0.0,0.0,0.0,0.0,0.0,0.0,0.0,0.0,0.0,-2.9756,-3.0979,-3.1338,-3.2241,-3.2844,0.0,0.0,0.0,0.0,0.0,0.0,-3.3342,-3.4362,-3.4933,-3.4933,-3.587,-3.6405,-3.6405,-3.6405,-3.6405,-3.6405,-3.6405,-3.6405,-3.6405,-3.6405,-3.6405,-3.6405,-3.6405,-3.6405,-3.6367,-3.5768,-3.4477,-3.2928,-3.2651,-3.1736,0.0,-3.0419,-3.0361,-3.0361,0.0,0.0,0.0,0.0,0.0,0.0,0.0,0.0,0.0,0.0,0.0,0.0,0.0,0.0,3.909,3.9033,3.5945,3.2108,0.0,0.0,0.0,0.0,0.0,0.0,0.0,0.0,0.0,-1.2333,-1.5483,-1.7026,-1.7026,-1.8648,-1.9424,-1.9424,-1.9424,-1.9424,-1.9307,-1.7747,-1.7144,-1.7144,0.0,0.0,0.0,0.0,0.0,0.0,0.0,0.0,0.0,0.0,0.0,0.0,0.0,0.0,0.0,0.0,0.0,0.0,0.0,0.0,0.0,0.0,0.0,0.0,0.0,0.0,0.0,0.0,0.0,0.0,0.0,0.0,0.0,0.0,0.0,0.0,0.0,0.0,0.0,-3.403,-3.4227,0.0,0.0,0.0,0.0,-3.4276,-3.5463,-3.6203,-3.6203,-3.6263,-3.631,-3.631,-3.6358,-3.6405,-3.6405,-3.6405,-3.6405,-3.6405,-3.6405,-3.6405,-3.6405,-3.6405,-3.6405,-3.6405,-3.6405,-3.6405,-3.6367,-3.5768,-3.5424,-3.5215,-3.4209,-3.374,-3.3608,-3.3083,-3.2896,-3.2896,0.0,0.0,0.0,0.0,0.0,0.0,0.0,0.0,0.0,0.0,0.0,0.0,0.0,4.2635,4.2847,4.1773,3.9885,3.7013,3.2921,0.0,0.0,0.0,0.0,0.0,0.0,0.0,-1.0105,-1.066,-1.2868,-1.4416,-1.5488,-1.7091,-1.8402,-1.9424,-1.9424,-1.8823,-1.7806,-1.7267,-1.7026,-1.6909,-1.5843,-1.6079,0.0,0.0,0.0,0.0,0.0,0.0,0.0,0.0,0.0,0.0,0.0,0.0,0.0,0.0,0.0,0.0,0.0,0.0,0.0,0.0,0.0,0.0,0.0,0.0,0.0,0.0,0.0,0.0,0.0,0.0,0.0,0.0,0.0,0.0,0.0,0.0,0.0,-3.4337,-3.5174,0.0,0.0,-3.5667,-3.5667,-3.5667,-3.6108,-3.6405,-3.6405,-3.6405,-3.6405,-3.6405,-3.6405,-3.6405,-3.6405,-3.6405,-3.6405,-3.6405,-3.6405,-3.6405,-3.6405,-3.6405,-3.6405,-3.6405,-3.6405,-3.6405,-3.6392,-3.6157,-3.5868,-3.5458,-3.5069,-3.4525,-3.3872,-3.3684,-3.3382,-3.3124,0.0,0.0,0.0,0.0,0.0,0.0,0.0,0.0,0.0,0.0,0.0,4.4152,4.45,4.5996,4.6381,4.4895,4.323,4.0519,3.6485,0.0,0.0,0.0,0.0,0.0,0.0,-0.6719,-0.9249,-0.9822,-1.1976,-1.3287,-1.3825,-1.6015,-1.7267,-1.7812,-1.8344,-1.7689,-1.6138,-1.5601,-1.5365,-1.5306,-1.4242,-1.4421,-1.5483,0.0,0.0,0.0,0.0,0.0,0.0,0.0,0.0,0.0,0.0,0.0,0.0,0.0,0.0,0.0,0.0,0.0,0.0,0.0,0.0,0.0,0.0,0.0,0.0,0.0,0.0,0.0,0.0,0.0,0.0,0.0,0.0,0.0,0.0,0.0,-3.4581,-3.5017,-3.587,-3.6405,-3.6405,-3.6405,-3.6405,-3.6405,-3.6405,-3.6405,-3.6405,-3.6405,-3.6405,-3.6405,-3.6405,-3.6405,-3.6405,-3.6405,-3.6405,-3.6405,-3.6405,-3.6405,-3.6405,-3.6405,-3.6405,-3.6405,-3.6405,-3.6405,-3.6405,-3.6405,-3.6144,-3.5805,-3.5571,-3.5056,-3.4412,-3.4035,-3.3671,-3.3332,0.0,0.0,0.0,0.0,0.0,0.0,0.0,0.0,0.0,0.0,4.573,4.788,4.8925,4.9573,4.9503,4.8469,4.582,4.2265,3.7785,3.1432,0.0,0.0,0.0,0.0,-0.2323,-0.5549,-0.8069,-0.9836,-1.2951,-1.3665,-1.229,-1.5435,-1.609,-1.4674,-1.6262,-1.6079,-1.4421,-1.2868,-1.2157,-1.2157,-1.2157,-1.2157,-1.2513,0.0,0.0,0.0,0.0,0.0,0.0,0.0,0.0,0.0,0.0,0.0,0.0,0.0,0.0,0.0,0.0,0.0,0.0,0.0,0.0,0.0,0.0,0.0,0.0,0.0,0.0,0.0,0.0,0.0,0.0,0.0,0.0,0.0,-3.4385,-3.4434,-3.4921,-3.6263,-3.6405,-3.6405,-3.6405,-3.6405,-3.6405,-3.6405,-3.6452,-3.6452,-3.6405,-3.6452,-3.6499,-3.6405,-3.6452,-3.6452,-3.6405,-3.6405,-3.6405,-3.6405,-3.6405,-3.6405,-3.6405,-3.6405,-3.6405,-3.6405,-3.6405,-3.6405,-3.6405,-3.6405,-3.6405,-3.6355,-3.578,-3.552,-3.537,-3.4349,-3.3935,-3.3822,0.0,0.0,0.0,0.0,0.0,0.0,0.0,0.0,0.0,0.0,4.8047,4.975,5.1725,5.2292,5.1879,5.0392,4.7537,4.4191,4.0282,0.0,0.0,0.0,0.0,0.0,-0.0629,-0.3899,-0.7067,-1.0154,-1.1022,-1.1822,-1.261,-1.4538,-1.5188,-1.4821,-1.6335,-1.5483,-1.2813,-1.2393,-1.1559,-1.0482,-1.0482,-1.1137,-1.2273,0.0,0.0,0.0,0.0,0.0,0.0,0.0,0.0,0.0,0.0,0.0,0.0,0.0,0.0,0.0,0.0,0.0,0.0,0.0,0.0,0.0,0.0,0.0,0.0,0.0,0.0,0.0,0.0,0.0,0.0,0.0,0.0,-3.4385,-3.4385,-3.5223,-3.6013,-3.6358,-3.6405,-3.6405,-3.6405,-3.6405,-3.6405,-3.6405,-3.715,-3.7276,-3.6452,-3.7997,-3.8179,-3.6452,-3.7196,-3.7243,-3.6405,-3.6405,-3.6405,-3.6405,-3.6405,-3.6405,-3.6405,-3.6405,-3.6405,-3.6405,-3.6405,-3.6405,-3.6405,-3.6405,-3.6405,-3.6392,-3.6194,-3.5893,-3.5458,-3.5157,-3.4587,-3.3872,0.0,0.0,0.0,0.0,0.0,0.0,0.0,0.0,0.0,0.0,5.007,5.1846,5.3973,5.4039,5.3397,5.2022,4.9316,4.6031,4.2008,0.0,0.0,0.0,0.0,0.5928,0.2283,-0.1082,-0.4474,-0.8023,-0.8023,-0.8909,-1.0612,-1.2063,-1.2824,-1.2969,-1.3742,-1.2647,-1.0218,-0.9464,-0.8588,-0.7736,-0.7752,-0.9131,-1.1257,-1.1916,-1.2753,-1.3706,-1.4366,-1.4604,-1.4723,-1.5666,0.0,0.0,0.0,0.0,0.0,0.0,0.0,0.0,0.0,0.0,0.0,0.0,0.0,0.0,0.0,0.0,0.0,0.0,0.0,0.0,0.0,0.0,0.0,0.0,-3.4884,-3.5223,-3.5223,-3.5918,-3.6405,-3.6405,-3.6803,-3.693,-3.6452,-3.7302,-3.7474,-3.6452,-3.7906,-3.8347,-3.715,-3.8885,-3.9285,-3.7906,-3.8527,-3.8527,-3.7874,-3.7368,-3.7103,-3.7103,-3.6628,-3.6405,-3.6405,-3.6405,-3.6405,0.0,-3.6405,-3.6405,-3.6405,-3.6405,-3.6405,0.0,0.0,0.0,0.0,0.0,-3.4944,-3.4248,0.0,0.0,0.0,0.0,0.0,0.0,0.0,0.0,0.0,0.0,0.0,5.3997,5.5832,5.5402,5.4574,5.3697,5.1274,4.7814,0.0,0.0,0.0,2.1596,1.539,1.0106,0.5964,0.2747,-0.0707,-0.4316,-0.4316,-0.5281,-0.7086,-0.8643,-0.9542,-0.972,-0.9719,-0.8819,-0.7181,-0.5567,-0.4908,-0.4903,-0.4895,-0.6639,-0.9387,-1.0823,-1.1362,-1.1599,-1.3218,-1.3815,-1.3815,-1.3994,0.0,0.0,0.0,0.0,0.0,0.0,0.0,0.0,0.0,0.0,0.0,0.0,0.0,0.0,0.0,0.0,0.0,0.0,0.0,0.0,0.0,0.0,0.0,0.0,-3.5619,-3.6405,-3.6405,-3.6499,-3.6534,-3.6405,-3.7415,-3.7723,-3.6675,-3.8617,-3.8975,-3.6756,-3.8751,-3.9492,-3.8153,0.0,0.0,0.0,0.0,-3.9899,-3.9899,-3.8693,-3.8107,-3.8107,-3.7057,-3.6546,-3.6405,-3.6405,-3.6405,-3.6405,-3.6405,-3.6405,-3.6405,-3.6405,-3.6405,-3.6405,-3.6405,-3.6405,-3.6355,-3.5818,-3.5245,0.0,0.0,0.0,0.0,0.0,0.0,0.0,0.0,0.0,0.0,5.2872,5.4048,5.5445,5.7869,5.7468,5.6939,5.6742,5.4065,4.9534,0.0,0.0,3.0896,2.6399,2.2719,1.7173,0.9566,0.75,0.4064,-0.0922,-0.0922,-0.1847,-0.37,-0.5131,-0.5892,-0.6135,-0.7319,-0.6898,-0.539,-0.5055,-0.4921,-0.4914,-0.4905,-0.5277,-0.5896,-0.6198,-0.6318,-0.6501,-0.8204,-0.8812,-0.8991,-1.03,-1.1579,-1.2624,-1.2572,0.0,0.0,0.0,0.0,0.0,0.0,0.0,0.0,0.0,0.0,0.0,0.0,0.0,0.0,0.0,0.0,0.0,0.0,0.0,0.0,-3.581,-3.6216,-3.6405,-3.6405,-3.7196,-3.7415,-3.6499,-3.7415,-3.803,-3.7802,-3.905,-3.9316,-3.7893,-3.9944,-4.0333,-3.8198,-4.0986,0.0,-3.9942,-3.9899,-3.9899,-3.9899,-3.8693,-3.8107,-3.8107,0.0,0.0,-3.6405,-3.6405,-3.6405,-3.6405,-3.6405,-3.6405,-3.6405,-3.6405,-3.6405,-3.6405,-3.6405,-3.6405,-3.6405,-3.6292,-3.5855,-3.5345,0.0,0.0,0.0,0.0,0.0,0.0,0.0,0.0,0.0,0.0,5.4829,5.6097,5.8142,5.7702,5.7243,5.7243,5.447,0.0,0.0,4.0418,3.6263,3.2108,2.7712,2.2275,1.5569,1.2198,0.8429,0.3979,0.3127,0.1798,0.0,-0.0724,-0.1576,-0.257,-0.235,-0.1823,-0.1044,-0.013,-0.0259,-0.1101,-0.1085,-0.1644,-0.2641,-0.4266,-0.4916,-0.5039,-0.5833,-0.6139,-0.6259,-0.7101,-0.8439,-0.9781,-0.9758,-1.1455,-1.3894,0.0,0.0,0.0,0.0,0.0,0.0,0.0,0.0,0.0,0.0,0.0,0.0,0.0,0.0,-3.4357,0.0,0.0,-3.6431,-3.7077,-3.7186,-3.7402,-3.808,-3.8665,-3.8582,-3.7387,-3.9069,-3.9748,-3.827,-4.054,-4.0755,-3.7474,-4.0785,-4.1921,-3.959,-4.2534,-4.3782,-4.2651,-4.2594,-4.2594,-4.2594,-4.1445,-4.0858,-4.0872,-4.0232,-3.9642,-3.9104,-3.9104,-3.8899,-3.8589,-3.8589,-3.843,-3.8088,-3.7507,-3.6883,-3.6405,-3.6405,-3.6405,-3.6405,-3.6405,-3.6194,-3.5956,0.0,0.0,0.0,0.0,0.0,0.0,0.0,0.0,0.0,0.0,0.0,5.6366,5.7771,5.7377,5.6884,0.0,0.0,0.0,0.0,4.4699,4.1521,3.8066,3.263,2.7346,2.2449,1.7577,1.344,0.9998,0.826,0.6334,0.4256,0.4256,0.3124,0.113,0.2597,0.32,0.3332,0.476,0.4351,0.2703,0.2728,0.1617,-0.0258,-0.2939,-0.3952,-0.4013,-0.4309,-0.4426,-0.4487,-0.4794,-0.6016,-0.7421,-0.7421,-0.9367,-1.2475,-1.6377,-1.7522,0.0,0.0,0.0,0.0,0.0,0.0,0.0,0.0,0.0,-3.3071,-3.4177,-3.5474,-3.6365,-3.6365,-3.7444,-3.8371,-3.8371,-3.8602,-3.9097,-4.0106,-4.0468,-4.0258,-3.9271,-4.1304,-4.1851,-3.9415,-4.2422,-4.2636,-3.8135,-4.1938,-4.3556,-4.1467,-4.3871,-4.5289,-4.5289,-4.5081,-4.5081,-4.5289,-4.4192,-4.3618,-4.3618,-4.2624,-4.2029,-4.1789,-4.1789,-4.1526,-4.101,-4.0855,-4.0523,-4.0007,-3.8912,-3.7906,-3.707,-3.707,-3.707,-3.7023,-3.6593,-3.6405,-3.6405,0.0,0.0,0.0,0.0,0.0,0.0,0.0,0.0,0.0,0.0,0.0,0.0,0.0,0.0,0.0,0.0,0.0,0.0,5.1414,4.9639,4.7216,4.3882,3.9605,3.4645,2.8994,2.4416,2.0493,1.7213,1.5535,1.3,0.9698,0.9698,0.7923,0.4819,0.5023,0.5091,0.509,0.5287,0.4349,0.2676,0.2704,0.164,-0.0066,-0.0382,-0.0567,-0.0754,-0.2228,-0.277,-0.3016,-0.4426,-0.6016,-0.7421,-0.7421,-0.8647,-1.1035,-1.6019,0.0,-2.0494,-2.566,-2.7872,-2.9375,-3.2319,-3.2501,-3.2605,0.0,0.0,-3.609,-3.5837,-3.6844,-3.7792,-3.7792,-3.882,-3.9694,-3.9694,-4.0655,-4.1425,-4.1562,-4.2491,-4.3139,-4.3011,-4.3271,-4.3344,-4.304,-4.4343,-4.4526,-4.2909,-4.4286,-4.464,-4.3358,-4.4588,-4.5289,-4.5289,-4.432,-4.4278,-4.5289,-4.4192,-4.3618,-4.3618,-4.3473,-4.286,-4.1789,-4.1789,-4.1747,-4.165,-4.1079,-4.0758,-4.0661,-3.9975,-3.9637,-3.9505,-3.9505,-3.9505,-3.9241,-3.7163,-3.6405,-3.6405,0.0,0.0,0.0,0.0,0.0,0.0,0.0,0.0,0.0,0.0,0.0,0.0,0.0,0.0,0.0,0.0,0.0,0.0,5.2218,5.0889,4.8973,4.6369,4.1937,3.7394,3.2785,2.8266,2.444,2.1313,1.9613,1.7515,1.5158,1.5158,1.3808,1.1498,1.0458,1.0006,0.994,0.8897,0.7434,0.5685,0.4686,0.3219,0.1443,0.0383,0.0,-0.0378,-0.3111,-0.415,0.0,0.0,-0.772,-0.8957,-0.7846,-1.0009,-1.3831,-1.8088,-2.0337,0.0,-2.7264,-2.9908,-3.1716,0.0,-3.3962,-3.4236,-3.6356,-3.703,-3.7347,-3.7998,-3.8613,-3.8981,-3.8981,-4.002,-4.0901,0.0,-4.193,-4.3055,-4.3803,-4.4328,-4.4936,-4.5696,-4.5739,-4.5214,-4.3733,-4.4986,-4.4945,-4.2697,-4.4615,-4.5393,-4.4254,-4.5605,-4.6456,-4.6456,-4.6013,-4.597,-4.6456,-4.6013,-4.5739,-4.5739,-4.5739,-4.5493,-4.501,-4.501,-4.4807,-4.4371,-4.3718,-4.2826,-4.1851,-4.1596,-4.0855,-3.9899,-3.9899,-3.9461,-3.8738,-3.7769,-3.7368,-3.7276,0.0,0.0,0.0,0.0,0.0,0.0,0.0,0.0,0.0,0.0,0.0,0.0,0.0,0.0,0.0,0.0,0.0,0.0,0.0,5.081,4.9664,4.7738,4.3455,3.9505,3.6079,3.1747,2.8226,2.5559,2.3474,2.1598,1.997,1.9574,1.8548,1.6821,1.5179,1.4166,1.366,1.1942,0.9917,0.78,0.6547,0.4632,0.2476,0.1209,-0.0189,-0.1768,-0.4373,-0.5291,0.0,0.0,-1.0017,-1.1047,-1.0557,-1.2983,-1.6814,-2.0834,-2.3409,-2.5778,-2.9472,0.0,0.0,-3.4902,-3.5397,-3.5875,-3.7712,-3.8137,-3.8413,-3.9465,-3.9981,-4.0224,-4.0224,-4.1269,0.0,-4.2593,-4.3409,-4.4456,-4.5734,-4.5928,-4.6255,-4.7207,-4.7309,-4.6603,-4.4777,-4.5808,-4.5679,-4.3489,-4.5331,-4.6218,-4.5376,-4.6577,-4.7309,-4.7309,-4.7309,-4.7309,-4.7309,-4.7309,-4.7309,-4.7309,-4.7309,-4.7309,-4.7309,-4.7309,-4.7055,-4.6561,-4.5873,-4.4857,-4.3583,-4.3219,-4.2278,-4.1071,-4.056,-3.9828,-3.8979,-3.8334,-3.7893,-3.7494,0.0,0.0,0.0,0.0,0.0,0.0,0.0,0.0,0.0,0.0,0.0,0.0,0.0,0.0,0.0,0.0,0.0,0.0,0.0,4.9948,4.9823,4.8333,4.4967,4.1915,3.9383,3.5321,3.252,3.0975,2.7987,2.5609,2.3873,2.2598,2.1082,1.9301,1.7839,1.6335,1.4742,1.3255,1.0693,0.7581,0.7579,0.5523,0.2505,0.247,-0.0695,-0.5145,-0.5258,0.0,0.0,0.0,-1.2856,-1.3478,-1.6597,-1.7706,0.0,-2.3929,-2.7926,-3.0985,0.0,0.0,-3.3767,-3.668,-3.7388,-3.7784,-3.9297,-3.9633,-3.9645,-3.9697,-4.0693,-4.1555,-4.1555,-4.2593,-4.3834,-4.507,-4.5298,-4.5779,-4.7062,-4.7251,-4.7251,-4.7309,-4.7309,-4.7294,0.0,-4.7221,-4.7221,-4.7148,-4.7221,-4.7264,-4.7236,-4.7251,-4.7309,-4.7309,-4.7309,-4.7309,-4.7309,-4.7309,-4.7309,-4.7309,-4.7309,-4.7309,-4.7309,-4.7309,-4.7294,-4.7234,-4.6576,-4.6234,-4.6072,-4.4758,-4.4221,-4.3994,-4.2221,-4.1545,-4.1239,-3.8934,-3.7415,-3.6452,0.0,0.0,0.0,0.0,0.0,0.0,0.0,0.0,0.0,0.0,0.0,0.0,0.0,0.0,0.0,0.0,0.0,0.0,0.0,4.4626,4.5031,4.5432,4.2935,4.0893,3.9546,3.6562,3.4295,3.281,3.1761,3.0411,2.879,2.8366,2.6742,2.4185,2.2544,2.0456,1.804,1.5294,1.2903,1.0794,0.8497,0.6261,0.3983,0.1634,-0.1817,-0.5778,0.0,0.0,0.0,0.0,0.0,-1.8458,-1.9411,-2.1287,-2.3927,-2.7966,-3.0644,-3.2701,-3.4181,0.0,-3.6476,-3.8477,-3.8961,-3.9077,-3.9581,-3.9697,-3.9697,-3.9697,-4.0032,-4.0364,-4.0364,-4.1356,-4.2641,-4.3929,-4.4826,-4.5824,-4.7121,-4.7309,-4.7309,-4.7309,-4.7309,0.0,0.0,0.0,0.0,-4.7309,-4.7309,-4.7309,-4.7309,-4.7309,-4.7309,-4.7309,-4.7309,-4.7309,-4.7309,-4.7309,-4.7309,-4.7309,-4.7309,-4.7309,-4.7309,-4.7309,-4.7309,-4.7294,-4.707,-4.6726,-4.6204,-4.5334,-4.4706,-4.412,-4.2318,-4.1127,-4.0275,-3.868,-3.7368,-3.6405,0.0,0.0,0.0,0.0,0.0,0.0,0.0,0.0,0.0,0.0,0.0,0.0,0.0,0.0,0.0,0.0,0.0,0.0,0.0,0.0,3.9803,4.0717,3.9199,3.8087,3.7572,3.5567,3.4324,3.3902,3.3783,3.3475,3.2952,3.2896,3.1609,2.9242,2.7095,2.4321,2.0957,1.7781,1.4617,1.144,0.8594,0.5464,0.212,-0.0743,-0.4695,0.0,0.0,0.0,0.0,0.0,0.0,-2.2075,-2.3064,-2.57,-2.8827,-3.1014,-3.2701,-3.4181,-3.5672,-3.6757,-3.7849,-3.9349,-3.9697,-3.9697,-3.9697,-3.9697,-3.9697,-3.9697,-4.0083,-4.0364,-4.0364,-4.1406,-4.2689,-4.3975,-4.4872,-4.5824,-4.7121,-4.7309,-4.7309,-4.7309,-4.7309,0.0,0.0,0.0,0.0,-4.7309,-4.7309,-4.7309,-4.7309,-4.7309,-4.7309,-4.7309,-4.7309,-4.7309,-4.7309,-4.7309,-4.7309,-4.7309,-4.7309,-4.7309,-4.7309,-4.7309,-4.7309,-4.7309,-4.7309,-4.707,-4.6606,-4.5678,-4.505,-4.4393,-4.1933,-4.0532,-3.9724,-3.8075,-3.7023,-3.6405,0.0,0.0,0.0,0.0,0.0,0.0,0.0,0.0,0.0,0.0,0.0,0.0,0.0,0.0,0.0,0.0,0.0,0.0,0.0,0.0,0.0,3.4462,3.3947,3.3654,3.3726,3.2547,3.266,3.4056,3.3867,3.4414,3.5668,3.5506,3.4748,3.3434,3.0691,2.7075,2.2845,1.9961,1.5177,0.9384,0.7617,0.3106,-0.2719,-0.4323,0.0,0.0,0.0,0.0,0.0,0.0,0.0,0.0,0.0,-3.0635,-3.3092,-3.3149,-3.4215,-3.5727,-3.7145,-3.7571,-3.7967,-3.9362,-3.9697,-3.9749,-3.9788,-3.9788,-3.9788,-3.9788,-4.0743,-4.1604,0.0,0.0,-4.3787,-4.5024,-4.5252,-4.5734,-4.7019,-4.7207,-4.7207,0.0,0.0,0.0,0.0,0.0,0.0,-4.7309,0.0,-4.7309,-4.7309,-4.7309,-4.7309,-4.7309,-4.7309,-4.7309,-4.7309,-4.7309,-4.7309,-4.7309,-4.7309,-4.7309,-4.7309,-4.7309,-4.7309,-4.7309,-4.7309,-4.7309,-4.7204,-4.5801,-4.5206,-4.4849,-4.124,-3.9812,-3.9549,-3.7243,-3.6405,-3.6405,0.0,0.0,0.0,0.0,0.0,0.0,0.0,0.0,0.0,0.0,0.0,0.0,0.0,0.0,0.0,0.0,0.0,0.0,0.0,0.0,0.0,0.0,0.0,2.7709,2.892,2.7838,2.8025,2.956,2.9508,2.9631,2.998,2.9949,2.8579,2.6164,2.5425,2.1969,1.6518,1.332,0.9661,0.5847,0.0,-0.0546,-0.4384,0.0,0.0,0.0,0.0,0.0,0.0,0.0,0.0,0.0,0.0,-3.1593,-3.2765,-3.3803,-3.5421,-3.7026,-3.7412,-3.8295,-3.9245,-3.9633,-3.9697,-3.9929,-4.0882,-4.1119,-4.1119,-4.1119,-4.1369,-4.1319,0.0,0.0,0.0,-4.2509,-4.3361,0.0,-4.5734,-4.5869,0.0,0.0,0.0,-4.7309,-4.7309,-4.7309,0.0,0.0,-4.7309,-4.7309,-4.7309,-4.7309,-4.7309,-4.7309,-4.7309,-4.7309,-4.7309,-4.7309,-4.7309,-4.7309,-4.7309,-4.7309,-4.7309,-4.7309,-4.7309,-4.7309,-4.7309,-4.7309,-4.7103,-4.4949,-4.4049,-4.3646,-3.9987,-3.8559,-3.8379,-3.693,-3.6405,-3.6405,0.0,0.0,0.0,0.0,0.0,0.0,0.0,0.0,0.0,0.0,0.0,0.0,0.0,0.0,0.0,0.0,0.0,0.0,0.0,0.0,0.0,0.0,2.0865,2.1961,2.3602,2.3029,2.3431,2.494,0.0,0.0,2.6574,2.7062,2.5801,2.2996,2.2397,1.8771,1.2975,1.0537,0.0,0.0,0.0,0.0,0.0,0.0,0.0,0.0,0.0,0.0,0.0,0.0,0.0,-3.063,-3.1376,-3.2663,-3.4053,-3.4797,0.0,-3.8112,-3.8112,-3.8904,-3.9697,-3.9697,-3.9697,-3.989,-4.0605,-4.0794,-4.0794,-4.0794,-4.0794,0.0,0.0,0.0,0.0,0.0,0.0,0.0,-4.5298,-4.5869,-4.6491,0.0,-4.7309,0.0,-4.7309,-4.7309,-4.7429,0.0,-4.7743,-4.7743,-4.7743,-4.7743,-4.7743,-4.7743,-4.7459,-4.7309,-4.7309,-4.7309,-4.7309,-4.7309,-4.7309,-4.7309,-4.7309,-4.7309,-4.7309,-4.7309,0.0,-4.7309,-4.7118,-4.4632,-4.3618,-4.3213,-3.9541,-3.8107,-3.7984,-3.6803,-3.6405,-3.6405,0.0,0.0,0.0,0.0,0.0,0.0,0.0,0.0,0.0,0.0,0.0,0.0,0.0,0.0,0.0,0.0,0.0,0.0,0.0,0.0,0.0,1.2438,1.3922,1.5498,1.7153,1.7414,1.823,1.9584,2.0586,0.0,0.0,0.0,0.0,0.0,0.0,0.0,0.0,0.0,0.0,0.0,0.0,0.0,0.0,0.0,0.0,0.0,0.0,0.0,0.0,0.0,-2.9819,-3.146,-3.1665,-3.3548,-3.5761,-3.5914,-3.73,-3.8755,-3.8755,-3.917,-3.9584,-3.9584,-3.9634,-3.9736,-3.9929,-3.9929,-3.9929,-3.9929,0.0,-3.989,-3.9749,0.0,-4.1555,-4.1356,0.0,-4.4878,-4.5101,-4.6034,-4.6827,-4.7251,-4.7309,-4.7309,-4.7309,-4.7309,-4.7534,-4.8117,-4.8312,-4.8416,-4.8416,-4.8341,-4.8252,-4.8162,-4.7593,-4.7309,-4.7309,-4.7309,-4.7309,-4.7309,-4.7309,-4.7309,-4.7309,-4.7309,-4.7207,-4.7062,0.0,0.0,-4.6504,-4.4094,-4.3066,-4.2677,-3.9199,-3.7848,-3.7756,-3.6756,-3.6405,-3.6405,0.0,0.0,0.0,0.0,0.0,0.0,0.0,0.0,0.0,0.0,0.6862,0.857,0.0,0.0,0.0,0.0,0.0,0.0,0.0,0.0,0.0,0.2476,0.4052,0.5676,0.7274,0.8636,1.0081,1.171,1.185,0.0,0.0,0.0,0.0,0.0,0.0,0.0,0.0,0.0,0.0,0.0,0.0,0.0,0.0,0.0,0.0,0.0,0.0,0.0,0.0,0.0,-3.0224,-3.0705,-3.1823,-3.3632,-3.5515,-3.6653,-3.7517,-3.8153,-3.8153,-3.858,-3.9057,-3.9057,-3.9358,-3.9981,-4.1032,-4.1269,0.0,0.0,0.0,-4.0932,-3.989,-4.0743,0.0,-4.0224,0.0,0.0,0.0,0.0,-4.4438,0.0,0.0,0.0,0.0,0.0,0.0,0.0,0.0,0.0,-4.9149,-4.8581,-4.8042,-4.7489,-4.7369,-4.7309,-4.7309,-4.7309,-4.7309,-4.7309,-4.7309,-4.7309,-4.7309,-4.7309,-4.6726,-4.5734,0.0,0.0,-4.335,-4.1371,-4.0279,-3.969,-3.7547,-3.6675,-3.6675,-3.6452,-3.6405,-3.6405,0.0,0.0,0.0,0.0,0.0,0.0,0.0,-0.0304,-0.219,-0.4796,-0.3074,-0.126,-0.03,-0.24,0.0,0.0,0.0,0.0,0.0,0.0,0.0,0.0,0.0305,0.1953,0.3585,0.5186,0.6415,0.0,0.0,0.0,0.0,0.0,0.0,0.0,0.0,0.0,0.0,0.0,0.0,0.0,0.0,0.0,0.0,0.0,0.0,0.0,0.0,0.0,0.0,0.0,-3.0162,-3.1582,-3.2955,-3.4528,-3.5928,-3.6591,-3.7149,-3.7575,-3.7575,-3.799,-3.8417,-3.8417,-3.8617,-3.9083,-4.0003,0.0,0.0,0.0,-4.0605,-4.0415,-3.9788,0.0,0.0,0.0,0.0,0.0,0.0,0.0,0.0,0.0,0.0,0.0,0.0,0.0,0.0,0.0,0.0,0.0,-4.9299,-4.9015,-4.8341,-4.7339,-4.7309,-4.7309,-4.7309,-4.7309,-4.7309,-4.7309,-4.7309,-4.7309,-4.7309,-4.7309,-4.6594,-4.5374,0.0,0.0,-4.2523,-4.0388,-3.9309,-3.8912,-3.71,-3.6405,-3.6405,-3.6405,-3.6405,-3.6405,0.0,0.0,0.0,0.0,0.0,0.0,0.0,-0.3846,-0.5549,-0.9754,-1.0601,-0.9961,-0.7668,-0.943,-1.0778,0.0,0.0,0.0,0.0,0.0,0.0,0.0,0.0,-0.0979,0.0366,0.0,0.0,0.0,0.0,0.0,0.0,0.0,0.0,0.0,0.0,0.0,0.0,0.0,0.0,0.0,0.0,0.0,0.0,0.0,0.0,0.0,0.0,0.0,0.0,0.0,-3.012,-3.214,-3.3514,-3.5066,-3.6405,-3.6405,-3.6719,-3.701,-3.701,-3.7412,-3.7839,-3.7839,-3.7914,-3.8165,-3.8743,-3.8919,0.0,0.0,-3.9697,-3.9697,-3.9697,0.0,-3.9647,0.0,0.0,0.0,0.0,0.0,0.0,0.0,0.0,0.0,0.0,0.0,0.0,0.0,0.0,0.0,0.0,-4.9105,-4.8521,-4.7339,-4.7309,-4.7309,-4.7309,-4.7309,-4.7309,-4.7309,-4.7309,-4.7164,-4.6873,-4.6873,-4.5989,-4.4415,0.0,0.0,0.0,-3.9488,-3.8634,-3.8383,-3.6968,-3.6405,-3.6405,-3.6405,-3.6216,-3.5966,0.0,0.0,0.0,0.0,0.0,0.0,0.0,-0.8216,-0.9798,-1.1727,-1.3223,-1.4579,-1.5735,-1.4865,-1.4168,0.0,0.0,0.0,0.0,0.0,0.0,0.0,0.0,0.0,0.0,0.0,0.0,0.0,0.0,0.0,0.0,0.0,0.0,0.0,0.0,0.0,0.0,0.0,0.0,0.0,0.0,0.0,0.0,0.0,0.0,0.0,0.0,0.0,0.0,0.0,0.0,-3.0721,-3.209,-3.4301,-3.6405,-3.6405,0.0,0.0,-3.648,-3.6883,-3.7262,-3.7262,-3.7638,-3.8165,-3.8743,0.0,0.0,-3.9584,-3.9697,-3.9697,-3.9697,-3.9697,-3.9534,0.0,0.0,0.0,0.0,0.0,0.0,0.0,0.0,0.0,0.0,0.0,0.0,0.0,0.0,0.0,0.0,-4.8371,-4.8057,-4.7324,-4.7309,-4.7309,-4.7309,-4.7309,-4.7309,-4.7309,-4.7309,-4.6682,-4.5584,-4.5584,-4.4007,-4.1234,0.0,0.0,0.0,-3.7453,-3.7064,-3.6657,-3.6465,-3.6405,-3.6405,-3.6405,-3.5619,-3.4581,0.0,0.0,0.0,0.0,0.0,0.0,-0.9576,-1.041,-1.1699,-1.4195,-1.5117,-1.6103,-1.773,-1.7326,-1.7111,0.0,0.0,0.0,0.0,0.0,0.0,0.0,0.0,0.0,0.0,0.0,0.0,0.0,0.0,0.0,0.0,0.0,0.0,0.0,0.0,0.0,0.0,0.0,0.0,0.0,0.0,0.0,0.0,0.0,0.0,0.0,0.0,0.0,0.0,0.0,0.0,0.0,-3.1173,-3.2994,0.0,0.0,-3.5763,-3.6405,-3.6405,-3.6568,-3.6732,-3.6732,-3.6908,-3.7161,-3.7726,0.0,-3.8015,-3.8567,-3.868,-3.868,-3.868,-3.868,-3.8605,0.0,0.0,0.0,0.0,0.0,0.0,0.0,0.0,0.0,0.0,0.0,0.0,0.0,0.0,0.0,0.0,-4.8072,-4.7982,-4.7324,-4.7309,-4.7309,-4.7309,-4.7309,-4.7309,-4.7309,-4.7309,-4.6638,-4.5389,-4.5059,-4.343,-4.0742,0.0,0.0,0.0,-3.687,-3.6606,-3.6405,-3.6405,-3.6405,-3.631,-3.5463,-3.4884,-3.4276,0.0,0.0,0.0,0.0,0.0,-0.854,-1.1077,-1.1483,-1.2618,-1.5687,-1.6086,-1.6714,-1.8317,-1.849,-1.8657,-1.9072,-1.8097,0.0,0.0,0.0,0.0,0.0,0.0,0.0,0.0,0.0,0.0,0.0,0.0,0.0,0.0,0.0,0.0,0.0,0.0,0.0,0.0,0.0,0.0,0.0,0.0,0.0,0.0,0.0,0.0,0.0,0.0,0.0,0.0,0.0,0.0,0.0,0.0,0.0,0.0,0.0,-3.4459,-3.5198,-3.5198,-3.5198,-3.5295,-3.5715,-3.581,-3.5959,0.0,0.0,-3.6665,-3.6784,-3.7107,-3.7419,-3.7419,-3.7742,-3.7952,0.0,0.0,-3.767,0.0,0.0,0.0,0.0,0.0,0.0,0.0,0.0,0.0,0.0,0.0,0.0,0.0,-4.7743,-4.7788,-4.7309,-4.7309,-4.7309,-4.7309,-4.7309,-4.7309,-4.7309,-4.7309,-4.6344,-4.4587,-4.4191,-4.2445,0.0,0.0,0.0,0.0,-3.6568,-3.6405,-3.6358,-3.5966,-3.581,-3.5667,-3.4264,-3.3514,-3.3055,0.0,0.0,0.0,0.0,0.0,0.0,-1.1253,-1.1483,-1.2618,-1.5687,-1.6086,-1.6714,-1.8317,-1.849,-1.8497,-1.8497,-1.8497,0.0,0.0,0.0,0.0,0.0,0.0,0.0,0.0,0.0,-1.0069,-1.1429,-1.1429,0.0,0.0,0.0,0.0,0.0,0.0,0.0,0.0,0.0,0.0,0.0,0.0,0.0,0.0,0.0,0.0,0.0,0.0,0.0,0.0,0.0,0.0,0.0,0.0,0.0,0.0,0.0,-3.2331,-3.2331,-3.2331,-3.2331,-3.2694,-3.408,-3.4434,-3.4565,0.0,0.0,-3.5002,-3.4209,-3.5102,-3.5997,-3.5997,-3.7107,-3.7826,-3.7274,0.0,0.0,0.0,0.0,0.0,0.0,0.0,0.0,0.0,0.0,0.0,0.0,0.0,0.0,0.0,0.0,-4.7309,-4.7309,-4.7309,-4.7309,-4.7309,-4.7309,-4.7309,-4.7309,-4.7309,-4.5682,-4.2745,-4.2745,0.0,0.0,0.0,0.0,0.0,-3.6405,-3.6405,-3.6263,-3.4933,-3.4434,-3.4227,-3.2844,-3.148,-3.0317,0.0,0.0,0.0,0.0,0.0,0.0,0.0,-1.4178,-1.4892,-1.687,-1.7146,-1.7313,-1.7816,-1.7869,-1.7869,-1.7869,-1.825,0.0,0.0,0.0,0.0,0.0,0.0,0.0,0.0,0.0,-1.2561,-1.3013,-1.3013,-1.3236,-1.369,-1.369,0.0,0.0,0.0,0.0,0.0,0.0,0.0,0.0,0.0,0.0,0.0,0.0,0.0,0.0,0.0,0.0,0.0,0.0,0.0,0.0,0.0,0.0,0.0,-2.9713,0.0,0.0,-3.228,-3.228,-3.2392,-3.2844,-3.2944,-3.2989,-3.3188,-3.3222,-3.3167,-3.2921,-3.3928,-3.4911,-3.4911,-3.6027,-3.687,-3.6694,-3.6975,0.0,0.0,0.0,0.0,0.0,0.0,0.0,0.0,0.0,0.0,0.0,0.0,0.0,0.0,0.0,-4.7309,-4.7309,-4.7309,-4.7309,-4.7309,-4.7309,-4.7309,-4.7294,-4.686,-4.5259,-4.2657,-4.1813,0.0,0.0,0.0,0.0,0.0,-3.6405,-3.587,-3.4981,-3.4581,-3.3822,-3.2794,-3.1429,-3.0669,-3.0162,0.0,0.0,0.0,0.0,0.0,0.0,0.0,-1.5043,-1.5902,-1.7417,-1.7582,-1.7582,-1.7582,-1.7582,-1.7582,-1.7582,-1.7929,0.0,0.0,0.0,0.0,0.0,0.0,0.0,0.0,-1.3563,-1.3836,-1.4335,-1.4335,-1.4612,-1.5171,-1.5171,-1.5728,-1.6734,0.0,0.0,0.0,0.0,0.0,0.0,0.0,0.0,-2.6553,0.0,0.0,0.0,0.0,0.0,0.0,0.0,0.0,0.0,0.0,0.0,0.0,0.0,-2.946,-3.0773,0.0,-3.0773,-3.0916,-3.1429,-3.1531,0.0,0.0,-3.1531,-3.1378,-3.0927,-3.1887,-3.3005,-3.3514,-3.4715,-3.581,-3.631,0.0,0.0,0.0,0.0,0.0,0.0,0.0,0.0,0.0,0.0,0.0,0.0,0.0,0.0,0.0,0.0,-4.6785,-4.7266,-4.7309,-4.7309,-4.7309,-4.7309,-4.6943,-4.6269,-4.587,-4.4164,-4.1322,0.0,0.0,0.0,0.0,0.0,0.0,-3.6405,-3.5619,-3.4337,-3.3822,-3.2744,-3.1378,-3.0068,-2.9565,-2.9408,0.0,0.0,0.0,0.0,0.0,0.0,0.0,-1.4666,-1.5954,-1.7358,-1.7522,-1.7522,-1.7522,-1.7522,-1.7528,-1.7549,0.0,0.0,0.0,0.0,0.0,0.0,0.0,0.0,-1.3642,-1.3588,-1.4234,-1.5577,-1.5577,-1.6333,-1.774,-1.774,-1.7786,-1.7943,-1.9265,-1.993,-2.0187,-2.2776,-2.384,-2.3949,-2.5177,-2.5693,0.0,0.0,0.0,0.0,0.0,0.0,0.0,0.0,0.0,0.0,0.0,0.0,0.0,0.0,0.0,0.0,0.0,-2.8291,0.0,0.0,0.0,0.0,0.0,-3.0162,0.0,-2.8548,-2.9355,-3.0669,-3.1927,-3.3304,-3.4678,-3.6061,0.0,0.0,0.0,0.0,0.0,0.0,0.0,0.0,0.0,0.0,0.0,0.0,0.0,0.0,0.0,0.0,0.0,-4.7121,-4.7221,-4.7249,-4.7309,-4.7163,-4.6269,-4.46,-4.441,-4.2508,-3.9104,0.0,0.0,0.0,0.0,0.0,0.0,-3.631,-3.5463,-3.4129,-3.2694,-3.1327,-3.0016,-2.8751,-2.8291,-2.8291,0.0,0.0,0.0,0.0,0.0,0.0,0.0,0.0,0.0,0.0,-1.6907,-1.6907,-1.6907,-1.6907,-1.7001,0.0,0.0,0.0,0.0,0.0,0.0,0.0,0.0,0.0,-1.6605,-1.6605,-1.677,-1.7094,-1.7094,-1.7772,-1.9117,-1.9117,-1.9723,-2.0786,-2.2165,-2.3285,-2.4313,-2.4971,-2.5226,-2.5274,-2.5586,-2.5693,0.0,0.0,0.0,0.0,-2.6377,-2.6533,0.0,0.0,0.0,0.0,0.0,0.0,0.0,0.0,-2.8047,-2.8291,-2.8291,0.0,-2.8398,-2.8698,-2.8751,-2.8751,0.0,-2.8751,-2.8698,-2.8335,0.0,-3.0421,-3.0721,-3.1887,-3.3254,0.0,0.0,0.0,0.0,0.0,0.0,0.0,0.0,0.0,0.0,0.0,0.0,0.0,0.0,0.0,0.0,0.0,0.0,-4.5824,-4.6296,-4.68,-4.7294,-4.5918,-4.5025,-4.4586,-4.264,-4.0762,-3.9091,0.0,0.0,0.0,0.0,0.0,-3.631,-3.5271,-3.4068,-3.2644,-3.1276,-2.9964,-2.8751,-2.8398,-2.8291,-2.8291,0.0,0.0,0.0,0.0,0.0,0.0,0.0,0.0,0.0,0.0,0.0,0.0,0.0,0.0,0.0,0.0,0.0,0.0,0.0,0.0,0.0,0.0,0.0,-1.7582,-1.7582,-1.7582,-1.7582,-1.7582,-1.8008,-1.8604,-1.9352,-1.9744,-2.0369,-2.1156,-2.25,-2.3846,-2.5079,-2.5079,-2.5244,-2.543,-2.543,0.0,0.0,0.0,0.0,0.0,-2.6006,-2.6094,0.0,-2.6357,-2.6562,-2.6728,0.0,0.0,0.0,0.0,-2.7529,-2.7705,-2.7705,-2.7988,-2.8291,-2.8291,-2.8291,-2.8291,-2.8291,0.0,0.0,0.0,0.0,-2.9555,-3.0162,-3.0865,0.0,0.0,0.0,0.0,0.0,0.0,0.0,0.0,0.0,0.0,0.0,0.0,0.0,0.0,0.0,0.0,0.0,0.0,0.0,0.0,-4.4734,-4.5631,-4.6845,-4.504,-4.3686,-4.2828,-4.0938,-3.928,-3.7855,-3.7511,0.0,0.0,0.0,0.0,-3.5427,-3.4678,-3.3216,-3.1327,-3.0566,-2.946,-2.8291,-2.8291,-2.8291,-2.8291,0.0,0.0,0.0,0.0,0.0,0.0,0.0,0.0,0.0,0.0,0.0,0.0,0.0,0.0,0.0,0.0,0.0,0.0,0.0,0.0,0.0,0.0,-1.7448,-1.7448,-1.7448,-1.7448,-1.7448,-1.7448,-1.8455,-1.8924,-1.8966,-2.0143,-2.0818,-2.105,-2.2218,-2.3317,-2.4414,-2.4414,-2.4629,-2.4971,-2.4971,0.0,0.0,0.0,0.0,0.0,0.0,0.0,0.0,-2.5693,-2.5986,-2.6289,-2.6289,0.0,0.0,0.0,0.0,0.0,-2.7012,-2.7383,-2.7839,-2.813,-2.8193,-2.8213,-2.8281,0.0,0.0,0.0,0.0,0.0,0.0,0.0,0.0,0.0,0.0,0.0,0.0,0.0,0.0,0.0,0.0,0.0,0.0,0.0,0.0,0.0,0.0,0.0,0.0,0.0,0.0,0.0,-4.3059,-4.4094,-4.5454,-4.395,-4.2273,-4.0532,-3.9274,-3.7881,-3.6405,-3.6405,0.0,0.0,0.0,0.0,-3.4385,-3.3932,-3.2392,-3.0266,-3.0068,-2.9303,-2.8291,-2.8291,-2.8291,-2.8291,0.0,0.0,0.0,0.0,0.0,0.0,0.0,0.0,0.0,0.0,0.0,0.0,0.0,0.0,0.0,0.0,0.0,0.0,0.0,0.0,0.0,-1.6834,-1.684,-1.684,-1.684,-1.684,-1.684,-1.684,-1.8024,-1.8632,-1.8822,-2.1044,-2.2699,-2.3793,-2.3988,-2.4229,-2.4414,-2.4414,-2.4453,-2.4521,-2.4521,0.0,0.0,0.0,0.0,0.0,0.0,0.0,0.0,-2.5693,-2.5732,-2.5791,-2.5791,0.0,0.0,0.0,0.0,0.0,-2.7012,-2.6248,-2.5888,-2.7395,-2.7816,-2.7851,-2.8213,0.0,0.0,0.0,0.0,0.0,0.0,0.0,0.0,0.0,0.0,0.0,0.0,0.0,0.0,0.0,0.0,0.0,0.0,0.0,0.0,0.0,0.0,0.0,0.0,0.0,0.0,0.0,0.0,-4.241,-4.1653,-4.1393,-4.0628,-3.9321,-3.7637,-3.6669,-3.6405,-3.6405,-3.6405,0.0,0.0,-3.4581,-3.4227,-3.1887,-3.0669,-3.0162,-2.9049,-2.8495,-2.8291,-2.8291,-2.8291,-2.8121,0.0,0.0,0.0,0.0,0.0,0.0,0.0,0.0,0.0,0.0,0.0,0.0,0.0,0.0,0.0,0.0,0.0,0.0,0.0,0.0,-1.6233,-1.6233,-1.6233,-1.638,-1.67,-1.6707,-1.6707,-1.6707,-1.7758,-1.8677,-1.9415,-2.1683,-2.3126,-2.3686,-2.3686,-2.3686,-2.3686,-2.3686,-2.3857,-2.4082,0.0,0.0,0.0,0.0,0.0,0.0,0.0,0.0,0.0,0.0,-2.5537,-2.5693,-2.5693,0.0,0.0,0.0,0.0,0.0,-2.6328,-2.585,-2.5475,-2.5787,-2.547,-2.5145,-2.5325,-2.5361,0.0,0.0,0.0,0.0,0.0,0.0,0.0,0.0,0.0,0.0,0.0,0.0,0.0,0.0,0.0,0.0,0.0,0.0,0.0,0.0,0.0,0.0,0.0,0.0,0.0,0.0,0.0,-3.9608,-3.8412,-3.9023,-3.9082,-3.8549,-3.7092,-3.6405,-3.6405,-3.6405,-3.6405,-3.631,0.0,-3.397,-3.3105,-3.1133,-2.9859,-2.9154,-2.8548,-2.8291,-2.8291,-2.8291,-2.7789,-2.6997,0.0,0.0,0.0,0.0,0.0,0.0,0.0,0.0,0.0,0.0,0.0,0.0,0.0,0.0,0.0,0.0,0.0,0.0,0.0,0.0,-1.5784,-1.5784,-1.6109,-1.632,-1.6493,-1.65,-1.65,-1.65,-1.7794,-1.9169,-2.068,-2.2047,-2.2818,-2.3091,-2.3091,-2.3091,-2.3091,-2.3091,-2.3286,-2.3633,0.0,0.0,0.0,0.0,0.0,0.0,0.0,0.0,0.0,0.0,0.0,0.0,0.0,0.0,0.0,-2.5654,-2.5693,-2.5693,-2.5693,-2.5479,-2.5047,-2.4322,0.0,-2.3599,-2.3042,-2.3165,0.0,0.0,0.0,0.0,0.0,0.0,0.0,0.0,0.0,0.0,0.0,0.0,0.0,0.0,0.0,0.0,0.0,0.0,0.0,0.0,0.0,0.0,0.0,0.0,0.0,0.0,0.0,0.0,-3.6405,-3.754,-3.7984,-3.7678,-3.6803,-3.6405,-3.6405,-3.6405,-3.6405,-3.631,-3.4617,-3.3315,-3.218,-3.0514,-2.9207,-2.8291,-2.8291,-2.8291,-2.8291,-2.8291,-2.7384,-2.6045,0.0,0.0,0.0,0.0,0.0,0.0,0.0,0.0,0.0,0.0,0.0,0.0,0.0,0.0,0.0,0.0,0.0,0.0,0.0,0.0,-1.5784,-1.5784,-1.6943,-1.7012,-1.5892,-1.5844,-1.5844,-1.5844,-1.8218,-2.0583,-2.2867,-2.1863,-2.2031,-2.3091,-2.3091,-2.3091,-2.3091,-2.3091,-2.311,-2.314,-2.314,0.0,0.0,0.0,0.0,0.0,0.0,0.0,0.0,0.0,0.0,0.0,0.0,0.0,-2.5195,-2.5567,-2.5693,-2.5693,-2.5693,-2.4815,-2.385,-2.3777,-2.4964,0.0,-2.3414,-2.3913,0.0,-2.3271,0.0,0.0,0.0,0.0,0.0,0.0,0.0,0.0,0.0,0.0,0.0,0.0,0.0,0.0,0.0,0.0,0.0,0.0,0.0,0.0,0.0,0.0,0.0,0.0,0.0,0.0,-3.6405,-3.754,-3.7586,-3.6546,-3.6452,-3.6405,-3.6405,-3.6405,-3.6405,-3.625,-3.3589,-3.2381,-3.2079,-2.9503,-2.8398,-2.8291,-2.8291,-2.8291,-2.8291,-2.8291,-2.7384,-2.5882,0.0,0.0,0.0,0.0,0.0,0.0,0.0,0.0,0.0,0.0,0.0,0.0,0.0,0.0,0.0,0.0,0.0,0.0,0.0,-1.5784,-1.5784,-1.5784,-1.7037,-1.7084,-1.5832,-1.6574,-1.699,-1.699,-1.9443,-2.1078,-2.1987,-2.2262,-2.2677,-2.3091,-2.3091,-2.3091,-2.3091,-2.3091,-2.3091,-2.3091,-2.3091,-2.3091,0.0,0.0,0.0,0.0,0.0,0.0,0.0,0.0,-2.4199,-2.4305,0.0,-2.4041,-2.4547,-2.3947,-2.3746,-2.3746,-2.3746,-2.2978,-2.2156,-2.2156,-2.3462,0.0,0.0,-2.1242,-2.1753,-2.2064,-2.2578,0.0,0.0,0.0,0.0,0.0,0.0,0.0,0.0,0.0,0.0,0.0,0.0,0.0,0.0,0.0,0.0,0.0,0.0,0.0,0.0,0.0,0.0,0.0,0.0,0.0,0.0,-3.6849,-3.6849,-3.6405,-3.6405,-3.6405,-3.6405,-3.6405,-3.5966,-3.5078,-3.3143,-3.1825,-3.0916,-2.9059,-2.8291,-2.8291,-2.8291,-2.8291,-2.8184,-2.7276,-2.5991,-2.4488,0.0,0.0,0.0,0.0,0.0,0.0,0.0,0.0,0.0,0.0,0.0,0.0,0.0,0.0,0.0,0.0,0.0,0.0,-1.5784,-1.5784,-1.5967,-1.6386,-1.7225,-1.7271,-1.6433,-1.763,-1.8095,-1.7692,-2.0124,-2.1293,-2.1337,-2.2536,-2.3091,-2.3091,-2.3091,-2.3091,-2.3091,-2.3091,-2.3091,-2.3091,-2.3091,-2.3091,0.0,0.0,0.0,0.0,0.0,0.0,0.0,0.0,-2.32,0.0,0.0,0.0,0.0,-2.222,-2.202,-2.202,-2.202,-2.1573,-2.1104,0.0,0.0,0.0,-2.0112,-1.993,-2.0385,-2.0939,-2.1752,0.0,0.0,0.0,0.0,0.0,0.0,0.0,0.0,0.0,0.0,0.0,0.0,0.0,0.0,0.0,0.0,0.0,0.0,0.0,0.0,0.0,0.0,0.0,0.0,0.0,0.0,-3.6405,-3.6405,-3.6405,-3.6405,-3.6405,-3.6405,-3.6405,-3.5918,-3.4921,-3.3093,-3.1774,-3.0773,-2.9059,-2.8291,-2.8291,-2.8291,-2.8291,-2.8121,-2.6653,-2.5434,-2.4267,0.0,0.0,0.0,0.0,0.0,0.0,0.0,0.0,0.0,0.0,0.0,0.0,0.0,0.0,0.0,0.0,0.0,0.0,-1.5778,-1.5825,-1.6386,-1.7645,-1.7692,-1.7684,-1.7692,-1.8864,-1.891,-1.7731,-2.0124,-2.1337,-2.1337,-2.2536,-2.3091,-2.3091,-2.3091,-2.3091,-2.3091,-2.3091,-2.3091,-2.3091,-2.3091,-2.3091,-2.3091,0.0,0.0,0.0,0.0,0.0,0.0,0.0,-2.1293,0.0,0.0,0.0,0.0,0.0,-2.0754,-2.0754,-2.0754,-2.0754,0.0,0.0,0.0,0.0,-1.9846,-2.0684,-2.1296,-1.993,0.0,0.0,0.0,0.0,0.0,0.0,0.0,0.0,0.0,0.0,0.0,0.0,0.0,0.0,0.0,0.0,0.0,0.0,0.0,0.0,0.0,0.0,0.0,0.0,0.0,0.0,-3.6405,-3.6405,-3.6405,-3.6405,-3.6405,-3.6405,-3.6405,-3.6405,-3.6405,-3.6203,-3.3491,-3.228,-3.2079,-2.9408,-2.8291,-2.8291,-2.8291,-2.8291,-2.8121,-2.6608,-2.61,-2.5654,0.0,0.0,0.0,0.0,0.0,0.0,0.0,0.0,0.0,0.0,0.0,0.0,0.0,0.0,0.0,0.0,0.0,0.0,-1.5524,-1.6549,-1.6897,-1.6386,-1.8033,-1.8549,-1.7738,-1.8864,-1.9716,-2.0215,-2.181,-2.2589,-2.258,-2.295,-2.3091,-2.3091,-2.3091,-2.3091,-2.3091,-2.3091,-2.3091,-2.3091,-2.3091,-2.3091,-2.3091,0.0,0.0,0.0,0.0,0.0,0.0,0.0,0.0,0.0,0.0,0.0,0.0,-1.8824,-1.8621,-1.8621,-1.8621,0.0,0.0,0.0,0.0,0.0,0.0,-2.0387,0.0,0.0,0.0,0.0,0.0,0.0,0.0,0.0,0.0,0.0,0.0,0.0,0.0,0.0,0.0,0.0,0.0,0.0,0.0,0.0,0.0,0.0,0.0,0.0,0.0,0.0,0.0,0.0,-3.6405,-3.6405,-3.6405,-3.6405,-3.6405,-3.6405,-3.6405,-3.6405,-3.5355,-3.3491,-3.2632,-3.1224,-2.9408,-2.8644,-2.8291,-2.8291,-2.8291,-2.8291,-2.8004,-2.5443,-2.4488,-2.4044,0.0,0.0,0.0,0.0,0.0,0.0,0.0,0.0,0.0,0.0,-1.4242,0.0,0.0,0.0,0.0,0.0,0.0,0.0,0.0,-1.6334,-1.6709,-1.6832,-1.7986,-1.875,-1.9131,-1.936,-2.0305,-2.2031,-2.2262,-2.2403,-2.2403,-2.2862,-2.3091,-2.3091,-2.3091,-2.3091,-2.3091,-2.3091,-2.3091,-2.3091,-2.3091,-2.2818,-2.2403,0.0,0.0,0.0,0.0,0.0,0.0,0.0,0.0,0.0,0.0,0.0,0.0,-1.7171,-1.6943,-1.6943,-1.6943,0.0,0.0,0.0,0.0,0.0,0.0,0.0,0.0,0.0,0.0,0.0,0.0,0.0,0.0,0.0,0.0,0.0,0.0,0.0,0.0,0.0,0.0,0.0,0.0,0.0,0.0,0.0,0.0,0.0,0.0,0.0,0.0,0.0,0.0,0.0,-3.6405,-3.6405,-3.6405,-3.6405,-3.6405,-3.6108,-3.5619,-3.5619,-3.4715,-3.3055,-3.1988,-3.0266,-2.8291,-2.8291,-2.8291,-2.8291,-2.8291,-2.8291,-2.795,-2.4939,-2.3822,-2.3375,0.0,0.0,0.0,0.0,0.0,0.0,0.0,0.0,0.0,0.0,-1.4088,-1.4088,0.0,0.0,0.0,0.0,0.0,0.0,0.0,-1.5637,-1.6087,-1.8156,-1.7619,-1.8498,-2.0998,-1.9887,-2.0435,-2.2843,-2.1808,-2.1337,-2.148,-2.2589,-2.3047,-2.295,-2.3047,-2.3047,-2.295,-2.3047,-2.3091,-2.3091,-2.3091,-2.2448,-2.148,-2.148,0.0,0.0,0.0,0.0,0.0,0.0,0.0,0.0,0.0,0.0,-1.5784,-1.5784,-1.5784,-1.5784,0.0,0.0,0.0,0.0,0.0,0.0,0.0,0.0,0.0,0.0,0.0,0.0,0.0,0.0,0.0,0.0,0.0,0.0,0.0,0.0,0.0,0.0,0.0,0.0,0.0,0.0,0.0,0.0,0.0,0.0,0.0,0.0,0.0,0.0,0.0,0.0,-3.6048,-3.6048,-3.6048,0.0,-3.6048,-3.5415,-3.4227,-3.4337,-3.4276,-3.3871,-3.1286,-2.9408,-2.8291,-2.8291,-2.8291,-2.8291,-2.8291,-2.8237,-2.7726,-2.4884,-2.371,-2.3207,0.0,0.0,0.0,0.0,0.0,0.0,0.0,0.0,0.0,0.0,0.0,0.0,0.0,0.0,0.0,0.0,0.0,0.0,0.0,0.0,-1.6595,-1.6982,-1.7751,-1.8433,-1.8986,-1.7938,-1.8499,-2.0808,-2.1127,-2.18,-2.2721,-2.3003,-2.258,-2.1712,-2.2677,-2.258,-2.1756,-2.2677,-2.3091,-2.3091,-2.3091,-2.295,-2.2721,-2.2721,-2.2545,0.0,0.0,0.0,0.0,0.0,0.0,0.0,-1.5872,-1.5784,-1.5784,-1.5784,-1.5784,-1.5784,0.0,0.0,0.0,0.0,0.0,0.0,0.0,0.0,0.0,0.0,0.0,0.0,0.0,0.0,0.0,0.0,0.0,0.0,0.0,0.0,0.0,0.0,0.0,0.0,0.0,0.0,0.0,0.0,0.0,0.0,0.0,0.0,0.0,0.0,0.0,-3.3193,-3.3193,-3.3193,-3.3193,0.0,-3.3193,-3.3044,-3.2794,-3.392,-3.3216,-3.1081,-2.946,-2.8548,-2.8291,-2.8291,-2.8291,-2.8291,-2.8291,-2.7609,-2.6327,-2.4488,-2.3095,-2.1813,0.0,0.0,0.0,0.0,0.0,0.0,0.0,0.0,0.0,0.0,0.0,0.0,0.0,0.0,0.0,0.0,0.0,0.0,0.0,0.0,-1.5778,-1.6428,-1.7597,-1.8285,-1.8493,-1.7367,-1.7924,-2.0205,-1.9606,-2.0518,-2.2799,-2.2406,-2.1889,-2.1337,-2.2536,-2.2129,-2.0576,-2.2359,-2.2775,-2.2306,-2.2862,-2.2765,-2.2262,-2.2262,-2.1898,-2.1311,-2.0666,0.0,0.0,0.0,0.0,0.0,0.0,0.0,-1.5784,-1.5784,-1.5784,-1.5784,0.0,0.0,0.0,0.0,0.0,0.0,0.0,0.0,0.0,0.0,0.0,0.0,0.0,0.0,0.0,0.0,0.0,0.0,0.0,0.0,0.0,0.0,0.0,0.0,0.0,0.0,0.0,0.0,0.0,0.0,0.0,0.0,0.0,0.0,-3.134,-3.1686,-3.1686,-3.1686,-3.1686,-3.1686,-3.1686,-3.134,-3.0765,-3.1929,-3.1286,-2.9303,-2.8601,-2.8291,-2.8291,-2.8291,-2.8291,-2.8291,-2.8291,-2.7394,-2.5927,-2.4378,-2.287,-2.1365,0.0,0.0,0.0,0.0,0.0,0.0,0.0,0.0,0.0,0.0,0.0,0.0,0.0,0.0,0.0,0.0,0.0,0.0,0.0,0.0,0.0,-1.6127,-1.7111,-1.776,-1.8089,-1.6944,-1.7361,-1.9402,-1.7619,-1.8478,-2.1788,-2.1227,-2.089,-2.0711,-2.1952,-2.1266,-1.936,-2.1765,-2.2208,-2.1426,-2.2633,-2.2403,-2.1337,-2.1525,-2.0845,-1.9852,-2.0042,-1.9368,-1.828,-1.8095,0.0,0.0,0.0,0.0,-1.6062,-1.5872,-1.6103,-1.6332,0.0,0.0,0.0,0.0,0.0,0.0,0.0,0.0,0.0,0.0,0.0,0.0,0.0,0.0,0.0,0.0,0.0,0.0,0.0,0.0,0.0,0.0,0.0,0.0,0.0,0.0,0.0,0.0,0.0,0.0,0.0,0.0,-2.8655,-2.8655,-2.972,-3.0295,-3.0295,-3.0295,-3.0295,-3.0295,-3.0295,-2.972,-2.8686,-2.9393,-2.9132,-2.8076,-2.8076,-2.8076,-2.8076,-2.8076,-2.8076,-2.8066,-2.7844,-2.6845,-2.5341,-2.3798,-2.2305,-2.0863,0.0,0.0,0.0,0.0,0.0,0.0,0.0,0.0,0.0,0.0,0.0,0.0,0.0,0.0,0.0,0.0,0.0,0.0,-1.4292,0.0,0.0,-1.5763,-1.5929,-1.6035,-1.608,-1.5021,-1.5063,-1.6322,-1.5326,-1.6264,-1.8981,-1.9488,-1.9177,-1.8226,-1.9451,-1.9231,-1.8095,-2.0531,-2.1426,-2.1426,-2.2633,-2.2403,-2.1426,-2.2448,-2.2129,-2.1203,-2.2217,-2.1854,-2.0666,-1.9625,-1.8457,0.0,0.0,0.0,-1.7225,-1.6103,-1.7343,-1.8534,0.0,0.0,0.0,0.0,0.0,0.0,0.0,0.0,0.0,0.0,0.0,0.0,0.0,0.0,0.0,0.0,0.0,0.0,0.0,0.0,0.0,0.0,0.0,0.0,0.0,0.0,0.0,0.0,0.0,0.0,0.0,-2.7155,-2.7257,-2.7257,-2.745,-2.7551,-2.7551,-2.7551,-2.7551,-2.7551,-2.7551,-2.745,-2.7257,-2.7375,-2.7332,-2.7187,-2.7187,-2.7187,-2.7187,-2.7187,-2.7187,-2.7075,-2.588,-2.4492,-2.2996,-2.1596,-2.0153,-1.8876,0.0,0.0,0.0,0.0,0.0,0.0,0.0,0.0,0.0,0.0,0.0,0.0,0.0,0.0,0.0,-1.4088,-1.4088,-1.4088,-1.4088,-1.5095,-1.5413,-1.4817,-1.5379,-1.5421,-1.4817,-1.4328,-1.4615,-1.5696,-1.5087,-1.5694,0.0,-1.7401,-1.7537,-1.7731,-1.8956,-1.8442,-1.6803,-1.926,-2.0305,-2.035,-2.0854,-2.1168,-2.1293,-2.1123,-2.0764,-2.035,-2.0899,-2.0314,-1.9177,-1.868,-1.7677,-1.6527,-1.5967,0.0,0.0,0.0,-1.6567,0.0,0.0,0.0,0.0,0.0,0.0,0.0,0.0,0.0,0.0,0.0,0.0,0.0,0.0,0.0,0.0,0.0,0.0,0.0,0.0,0.0,0.0,0.0,0.0,0.0,0.0,0.0,0.0,0.0,0.0,0.0,-2.6249,-2.6249,-2.6249,-2.6249,-2.6249,0.0,-2.6249,-2.6249,-2.6249,-2.6249,-2.6249,-2.6249,-2.6249,-2.6249,-2.6562,-2.7012,-2.7012,-2.7012,-2.7012,-2.7012,-2.6583,-2.5825,-2.5237,-2.3588,-2.1518,-2.0924,-1.9764,-1.849,0.0,0.0,0.0,0.0,0.0,0.0,0.0,0.0,0.0,0.0,0.0,0.0,0.0,0.0,0.0,0.0,-1.4088,-1.4088,-1.4088,-1.4859,-1.4936,-1.4124,-1.4859,-1.4936,-1.413,-1.4088,-1.4489,-1.5296,-1.5019,-1.5315,-1.6176,-1.5835,-1.6223,0.0,-1.8172,-1.7522,0.0,0.0,0.0,-1.9093,-1.936,-1.9852,-2.0305,-1.9716,-1.9314,-1.9085,-1.9405,-1.891,-1.8095,-1.7777,-1.7084,-1.6251,-1.592,-1.6015,0.0,0.0,0.0,0.0,0.0,0.0,0.0,0.0,0.0,0.0,0.0,0.0,0.0,0.0,0.0,0.0,0.0,0.0,0.0,0.0,0.0,0.0,0.0,0.0,0.0,0.0,0.0,0.0,0.0,0.0,0.0,0.0,0.0,0.0,-2.5693,-2.5693,-2.5693,-2.5693,-2.5693,-2.5693,-2.5693,-2.5693,-2.5693,-2.5693,-2.5693,-2.5693,-2.5693,-2.5693,-2.5877,-2.6155,-2.6528,-2.6689,-2.6639,-2.6316,-2.5567,-2.4618,-2.3886,-2.2302,-2.0352,-2.0038,-1.9203,-1.8257,0.0,0.0,0.0,0.0,0.0,0.0,0.0,0.0,0.0,0.0,0.0,0.0,-1.4088,-1.4088,-1.4088,-1.4088,-1.4088,-1.4088,-1.4088,-1.4166,-1.4166,-1.4088,-1.4166,0.0,-1.4088,-1.4088,-1.413,-1.4166,-1.4389,-1.4733,-1.5105,-1.5316,-1.5611,-1.592,-1.5967,-1.592,-1.5872,0.0,0.0,0.0,-1.9039,-1.8864,-1.801,-1.9093,-1.8772,-1.7963,-1.9093,-1.9451,-1.9222,-1.8095,-1.7645,-1.7412,-1.6204,-1.6622,-1.7365,0.0,0.0,0.0,0.0,0.0,0.0,0.0,0.0,0.0,0.0,0.0,0.0,0.0,0.0,0.0,0.0,0.0,0.0,0.0,0.0,0.0,0.0,0.0,0.0,0.0,0.0,0.0,0.0,0.0,0.0,0.0,0.0,0.0,-2.5693,-2.5693,-2.5693,-2.5693,-2.5693,-2.5693,-2.5693,-2.5693,-2.5693,-2.5693,-2.5693,-2.5693,-2.5693,-2.5693,-2.5039,-2.3954,-2.5234,-2.5752,-2.5654,-2.4418,-2.3854,-2.3497,-2.0901,-1.9783,-1.9524,-1.8247,-1.7734,-1.7629,0.0,0.0,0.0,0.0,0.0,0.0,0.0,0.0,0.0,0.0,0.0,0.0,0.0,-1.4088,-1.4088,-1.4088,-1.4088,-1.4088,-1.4088,-1.4088,-1.4088,-1.4088,-1.4088,-1.4088,-1.4088,-1.4088,-1.4175,-1.4362,-1.4663,-1.4957,-1.5251,-1.5538,-1.5732,-1.5784,-1.5784,-1.5784,-1.5832,-1.6292,0.0,0.0,0.0,0.0,-1.7638,-1.7257,0.0,0.0,0.0,0.0,0.0,-1.6615,-1.648,-1.6386,-1.592,-1.6109,-1.6386,-1.592,-1.5784,0.0,0.0,0.0,0.0,0.0,0.0,0.0,0.0,0.0,0.0,0.0,0.0,0.0,0.0,0.0,0.0,0.0,0.0,0.0,0.0,0.0,0.0,0.0,0.0,0.0,0.0,0.0,0.0,0.0,0.0,0.0,-2.5674,-2.5693,-2.5693,-2.5693,-2.5693,-2.5693,-2.5693,-2.5693,-2.5693,-2.5693,-2.5693,-2.5693,-2.5684,-2.4815,-2.4146,-2.3692,-2.3276,-2.3126,-2.3076,-2.2617,-2.1853,-2.0947,-1.9981,-1.9065,-1.8244,-1.7786,-1.7582,-1.7582,0.0,0.0,0.0,0.0,0.0,0.0,0.0,0.0,0.0,-1.4088,0.0,0.0,0.0,0.0,-1.4088,-1.4088,-1.4088,-1.4088,-1.4088,-1.4088,-1.4088,-1.4088,-1.4088,-1.4088,-1.4088,-1.4088,-1.4229,-1.4522,-1.4823,-1.5156,-1.5404,-1.5691,-1.5784,-1.5784,-1.5784,-1.5784,0.0,0.0,0.0,-1.699,0.0,0.0,-1.699,0.0,0.0,0.0,0.0,0.0,0.0,0.0,0.0,-1.5784,-1.5784,-1.5784,-1.5784,-1.5784,0.0,0.0,-1.5712,0.0,0.0,0.0,0.0,0.0,0.0,0.0,0.0,0.0,0.0,0.0,0.0,0.0,0.0,0.0,0.0,0.0,0.0,0.0,0.0,0.0,0.0,0.0,0.0,0.0,0.0,0.0,0.0,0.0,-2.5235,-2.5245,-2.5245,-2.5245,-2.5439,-2.5518,-2.5518,-2.5615,-2.5479,-2.502,-2.502,-2.4815,-2.4353,-2.3434,-2.2767,-2.2265,-2.1397,-2.1245,-2.1651,-2.1194,-2.0436,-1.9576,-1.9117,-1.8401,-1.7582,-1.7582,-1.7582,-1.7582,0.0,0.0,0.0,0.0,0.0,0.0,0.0,0.0,-1.4088,-1.4088,0.0,0.0,0.0,0.0,0.0,-1.4088,-1.4088,-1.4088,-1.4088,-1.4088,-1.4088,-1.4088,-1.4088,-1.4088,-1.4088,-1.4095,-1.4242,-1.4492,-1.483,-1.5169,-1.5418,-1.5698,-1.5784,-1.5784,-1.5784,-1.5784,-1.5784,0.0,-1.5784,-1.5784,0.0,-1.5784,-1.5784,0.0,0.0,0.0,-1.5784,-1.5784,0.0,0.0,0.0,0.0,0.0,0.0,0.0,0.0,0.0,0.0,0.0,0.0,0.0,0.0,0.0,0.0,0.0,0.0,0.0,0.0,0.0,0.0,0.0,0.0,0.0,0.0,0.0,0.0,0.0,0.0,0.0,0.0,0.0,0.0,0.0,0.0,0.0,0.0,0.0,-2.4404,-2.4414,-2.4414,-2.4414,-2.4414,-2.4824,-2.5049,-2.5049,-2.543,-2.4933,-2.3606,-2.3606,-2.2941,-2.1685,-2.1634,-2.088,-1.9576,-1.9576,-2.0333,-2.1448,-2.0084,-1.9524,-1.942,-1.8094,-1.7582,-1.7582,-1.7582,-1.7582,-1.7582,0.0,0.0,0.0,0.0,0.0,0.0,-1.2808,-1.3555,-1.4088,0.0,0.0,0.0,-1.4088,-1.4088,-1.4088,-1.4088,-1.4088,-1.4088,-1.4088,-1.4088,-1.4088,-1.4088,-1.4088,-1.4088,-1.4088,-1.4295,-1.4543,-1.4843,-1.513,-1.5424,-1.5712,-1.5792,0.0,0.0,-1.5784,-1.5784,-1.5784,-1.5784,0.0,0.0,-1.5784,-1.5784,0.0,0.0,0.0,0.0,0.0,-1.5784,0.0,0.0,-1.5784,-1.5784,0.0,0.0,0.0,0.0,0.0,0.0,-1.5164,0.0,0.0,0.0,0.0,0.0,0.0,0.0,0.0,0.0,0.0,0.0,0.0,0.0,0.0,0.0,0.0,0.0,0.0,0.0,0.0,0.0,0.0,0.0,0.0,0.0,0.0,0.0,-2.3965,-2.4092,-2.4394,-2.4414,-2.4414,-2.4414,-2.4531,-2.4161,-2.3297,-2.3418,-2.2835,-2.1596,-2.1596,-2.1497,-2.1304,-2.0313,-1.9753,-1.9524,-1.8551,-1.8349,-1.8708,-1.8297,-1.8146,-1.8094,-1.7733,-1.7582,-1.7582,-1.7582,-1.7582,-1.7582,0.0,0.0,0.0,0.0,0.0,0.0,-1.2285,-1.3336,-1.4088,0.0,0.0,0.0,-1.4088,-1.4088,-1.4088,-1.4088,-1.4088,-1.4088,-1.4088,-1.4088,-1.4142,-1.4262,-1.4269,-1.4329,-1.4449,-1.4616,-1.485,-1.5189,-1.5311,-1.5545,-1.5784,0.0,0.0,0.0,0.0,0.0,0.0,0.0,0.0,0.0,-1.5784,0.0,0.0,-1.5784,-1.5784,0.0,0.0,0.0,-1.5784,-1.5784,-1.5784,0.0,0.0,0.0,0.0,0.0,0.0,0.0,-1.4856,-1.4776,0.0,0.0,0.0,0.0,0.0,-1.4088,0.0,0.0,0.0,0.0,0.0,0.0,0.0,0.0,0.0,0.0,0.0,0.0,0.0,0.0,0.0,0.0,0.0,0.0,0.0,0.0,-2.1989,-2.2089,-2.2364,-2.2373,-2.2373,-2.2373,-2.2538,-2.2295,-2.1538,-2.1751,-2.1202,-1.9902,-1.9902,-1.9705,-1.9315,-1.849,-1.8246,-1.8367,-1.7568,-1.7288,-1.7454,-1.7454,-1.7475,-1.7582,-1.7582,-1.7582,-1.7582,-1.7582,-1.7582,-1.7582,0.0,0.0,0.0,0.0,0.0,0.0,-1.2114,-1.3252,-1.4088,0.0,-1.4088,-1.4088,-1.4088,-1.4088,-1.4088,-1.4088,-1.4115,-1.4135,-1.4135,-1.4168,-1.4302,-1.4556,-1.4569,-1.4696,-1.5001,-1.5042,-1.5182,0.0,0.0,0.0,0.0,0.0,0.0,0.0,0.0,0.0,0.0,0.0,0.0,-1.5784,-1.5784,-1.5784,0.0,0.0,-1.5784,0.0,-1.5784,-1.5784,-1.5778,-1.5792,-1.5758,0.0,0.0,0.0,0.0,0.0,-1.4961,0.0,0.0,-1.4476,0.0,0.0,0.0,0.0,-1.4088,-1.4088,-1.4088,0.0,0.0,0.0,0.0,0.0,0.0,0.0,0.0,0.0,0.0,0.0,0.0,0.0,0.0,0.0,0.0,0.0,-2.0647,-1.9579,-1.9497,-1.9497,-1.9497,-1.9497,-1.9497,-1.9497,-1.9848,-1.9967,-1.9827,-2.0241,-1.9782,-1.8397,-1.8397,-1.7788,-1.666,-1.666,-1.6673,-1.6707,-1.6707,-1.6854,-1.7152,-1.7152,-1.734,-1.7582,-1.7582,-1.7582,-1.7582,-1.7582,-1.7582,-1.7582,-0.7095,0.0,0.0,0.0,0.0,0.0,0.0,-1.2735,-1.4088,-1.4088,-1.4088,-1.4088,-1.4088,-1.4088,-1.4088,-1.4088,-1.4302,-1.4436,-1.4436,-1.4656,-1.4861,-1.4921,-1.4877,-1.4948,-1.5008,-1.519,-1.5337,0.0,0.0,0.0,0.0,0.0,0.0,0.0,0.0,0.0,0.0,0.0,0.0,-1.5784,-1.5784,0.0,-1.5784,-1.5784,-1.5784,-1.5784,-1.5784,-1.5784,-1.5792,0.0,-1.5324,-1.5169,0.0,0.0,0.0,0.0,0.0,0.0,0.0,0.0,0.0,0.0,0.0,0.0,-1.4088,-1.4088,-1.4088,0.0,0.0,0.0,0.0,0.0,0.0,0.0,0.0,0.0,0.0,0.0,0.0,0.0,0.0,0.0,0.0,0.0,-1.977,-1.9542,-1.9497,-1.9497,-1.9497,-1.9497,-1.9497,-1.9497,-1.9563,-1.9144,-1.8194,-1.8255,-1.7635,-1.6375,-1.6375,-1.636,-1.6359,-1.6359,-1.6486,-1.6707,-1.6707,-1.674,-1.6794,-1.6794,-1.7101,-1.7582,-1.7582,-1.7582,-1.7582,-1.7582,-1.7582,-1.7582,-0.7095,0.0,0.0,0.0,0.0,0.0,0.0,-1.2217,-1.3864,-1.3294,-1.373,-1.4088,-1.4088,-1.4088,-1.4142,-1.4289,-1.4436,-1.4583,-1.473,-1.4928,-1.5075,-1.517,-1.5177,-1.5251,-1.5391,-1.5538,-1.5611,0.0,0.0,0.0,0.0,0.0,0.0,0.0,0.0,0.0,0.0,0.0,-1.5784,-1.5784,-1.5784,0.0,-1.573,-1.5099,-1.4854,-1.474,-1.4022,-1.4084,-1.4572,-1.5041,-1.5129,0.0,0.0,-1.4743,-1.4683,0.0,-1.4302,-1.4269,0.0,0.0,0.0,-1.4088,0.0,0.0,0.0,-1.4088,0.0,0.0,0.0,0.0,0.0,0.0,0.0,0.0,0.0,0.0,0.0,0.0,0.0,0.0,0.0,0.0,0.0,0.0,-1.7951,-1.7499,-1.7572,-1.7662,-1.7662,-1.7662,-1.7662,-1.7662,-1.7662,-1.7343,-1.6763,-1.6763,-1.6433,-1.5784,-1.5784,-1.5905,-1.6052,-1.6052,-1.6132,-1.6266,-1.6266,-1.6353,-1.6486,-1.6486,-1.6747,-1.7141,-1.7141,-1.7141,-1.7141,-1.7141,-1.7141,-1.7141,-0.7095,0.0,0.0,0.0,0.0,0.0,0.0,0.0,-1.3167,-1.2413,-1.3336,-1.3997,-1.3779,-1.3737,-1.3736,-1.3746,-1.3817,-1.4058,-1.4623,-1.4695,-1.4988,-1.5464,-1.5478,-1.5591,-1.5778,-1.5784,-1.5784,-1.5784,0.0,0.0,0.0,0.0,0.0,0.0,0.0,0.0,0.0,0.0,0.0,-1.5432,0.0,-1.5542,-1.5676,-1.4357,-1.3856,-1.3677,-1.2188,-1.2145,-1.2999,-1.4187,0.0,-1.4471,-1.4422,-1.4436,0.0,0.0,0.0,0.0,0.0,0.0,0.0,0.0,0.0,-1.4088,0.0,0.0,0.0,0.0,0.0,0.0,0.0,0.0,0.0,0.0,0.0,0.0,0.0,0.0,0.0,0.0,0.0,0.0,0.0,0.0,-1.6136,-1.5382,-1.5531,-1.5691,-1.5745,-1.5698,-1.5772,-1.5784,-1.5784,-1.5784,-1.5784,-1.5784,-1.5784,-1.5784,-1.5784,-1.5784,-1.5784,-1.5784,-1.5784,-1.5784,-1.5784,-1.5965,-1.6186,-1.6186,-1.6326,-1.6547,-1.666,-1.6707,-1.6707,-1.6707,-1.6707,-1.6707,-0.7095,-0.7095,0.0,0.0,0.0,0.0,0.0,0.0,-1.13,-1.2194,-1.3336,-1.3688,-1.2632,-1.2498,-1.2126,-1.1122,0.0,0.0,-1.3335,0.0,-1.4434,-1.5718,-1.5731,-1.5751,-1.5784,-1.5784,-1.5784,-1.5784,0.0,0.0,0.0,0.0,0.0,0.0,-1.4561,0.0,0.0,0.0,-1.4118,0.0,-1.3973,-1.4694,0.0,-1.4256,-1.3743,-1.352,-1.2042,-1.1439,-1.1515,0.0,-1.2828,-1.2808,0.0,-1.4135,0.0,0.0,0.0,0.0,0.0,0.0,0.0,0.0,-1.4088,0.0,0.0,0.0,0.0,0.0,0.0,0.0,0.0,0.0,0.0,0.0,0.0,0.0,0.0,0.0,0.0,0.0,0.0,0.0,0.0,0.0,0.0,-1.5055,-1.5089,-1.517,-1.5431,-1.5444,-1.5565,-1.5771,-1.5784,-1.5784,-1.5784,-1.5784,-1.5784,-1.5784,-1.5784,-1.5784,-1.5784,-1.5784,-1.5784,-1.5784,-1.5784,-1.5798,-1.5879,-1.5879,-1.5851,-1.5979,-1.65,-1.6707,-1.6707,-1.6707,-1.6707,-1.6707,-0.7095,-0.7095,0.0,0.0,0.0,0.0,0.0,0.0,-1.0009,-1.1166,-1.1735,-1.1869,0.0,0.0,0.0,0.0,0.0,-1.1877,0.0,0.0,-1.4002,-1.4692,0.0,0.0,0.0,-1.4316,-1.4316,-1.3547,-1.3547,0.0,0.0,0.0,0.0,0.0,-1.4118,0.0,-1.343,0.0,0.0,0.0,0.0,0.0,0.0,-1.2108,-1.0784,-1.0071,-1.0072,-1.0006,-1.0011,0.0,-1.1856,0.0,0.0,0.0,0.0,0.0,0.0,0.0,0.0,0.0,0.0,0.0,0.0,0.0,0.0,0.0,-1.4088,0.0,0.0,0.0,0.0,0.0,0.0,0.0,0.0,0.0,0.0,0.0,0.0,0.0,0.0,0.0,0.0,0.0,0.0,0.0,0.0,-1.5062,-1.5137,-1.5189,-1.5277,-1.5571,-1.5578,-1.5658,-1.5784,-1.5784,-1.5784,-1.5784,-1.5784,-1.5784,-1.5784,-1.5784,-1.5784,-1.5784,-1.5784,-1.5784,-1.5784,-1.5784,-1.5784,-1.5804,-1.6099,-1.6199,-1.6199,-1.6199,-1.6199,-1.6047,-0.7095,0.0,0.0,0.0,0.0,0.0,0.0,-0.8101,-0.9192,-1.0009,0.0,0.0,-1.0183,-1.0236,0.0,0.0,0.0,-1.0827,0.0,0.0,-1.2772,0.0,0.0,0.0,0.0,0.0,-1.2861,-1.1896,0.0,0.0,0.0,0.0,0.0,0.0,0.0,-1.2921,-1.2283,0.0,0.0,-1.2549,-1.2529,-1.2232,-1.1697,-1.0076,-0.8566,-0.7441,-0.8237,-0.8468,-0.8584,-0.9749,-1.0697,0.0,-1.0783,0.0,0.0,0.0,0.0,0.0,-1.3512,0.0,0.0,0.0,0.0,0.0,0.0,0.0,0.0,0.0,0.0,0.0,0.0,0.0,0.0,0.0,0.0,0.0,0.0,0.0,0.0,0.0,0.0,0.0,0.0,0.0,0.0,0.0,-1.4603,0.0,-1.4836,-1.4843,-1.4977,-1.5271,-1.5277,-1.5418,-1.5705,-1.5712,-1.5752,-1.5784,-1.5784,-1.5784,-1.5784,-1.5784,-1.5784,-1.5784,-1.5784,-1.5784,-1.5784,-1.5784,-1.5784,-1.5784,-1.5439,-1.5289,-1.5289,-1.5289,-1.5289,-1.5099,-0.7095,-0.7095,0.0,0.0,0.0,0.0,0.0,0.0,0.0,0.0,0.0,0.0,0.0,0.0,0.0,0.0,0.0,-0.7879,-0.9349,0.0,-1.0223,0.0,0.0,-1.194,0.0,0.0,0.0,-1.1896,0.0,0.0,0.0,0.0,0.0,0.0,0.0,-1.2592,-1.3561,-1.2283,-1.0923,-0.9604,-0.9477,-0.8584,-0.7439,0.0,-0.8389,-0.7102,-0.7146,0.0,0.0,-0.854,-0.8978,0.0,0.0,0.0,0.0,0.0,0.0,0.0,0.0,0.0,0.0,-1.3822,0.0,0.0,0.0,0.0,-1.4088,0.0,0.0,0.0,0.0,0.0,-1.4088,-1.4088,0.0,0.0,0.0,0.0,0.0,0.0,0.0,0.0,0.0,0.0,0.0,0.0,-1.4108,0.0,-1.4522,-1.4536,-1.4669,-1.5015,-1.5022,-1.5162,-1.5404,-1.5411,-1.5551,-1.5784,-1.5784,-1.5784,-1.5784,-1.5784,-1.5784,-1.5784,-1.5784,-1.5784,-1.5784,-1.5784,-1.5784,-1.5683,-1.4459,-1.3968,-1.3968,-1.3968,-1.3968,-1.3776,0.0,0.0,0.0,0.0,0.0,0.0,0.0,-0.7445,0.0,0.0,0.0,0.0,0.0,0.0,-0.7696,0.0,0.0,-0.7851,-0.9206,-0.9417,0.0,0.0,0.0,-1.1018,0.0,0.0,0.0,0.0,0.0,0.0,0.0,0.0,0.0,0.0,0.0,-1.0649,0.0,0.0,0.0,0.0,0.0,-0.8877,-0.8241,0.0,0.0,-0.7095,-0.7095,-0.7095,0.0,-0.7577,-0.8237,-0.8846,-0.8404,-0.9353,-1.0438,-0.971,-1.0009,0.0,0.0,0.0,-1.1472,-1.2638,0.0,0.0,0.0,0.0,0.0,0.0,0.0,0.0,0.0,0.0,-1.2893,-1.2893,-1.3561,-1.4088,0.0,0.0,0.0,0.0,0.0,0.0,0.0,0.0,0.0,-1.4088,-1.4088,-1.4128,0.0,-1.4235,-1.4369,-1.4663,-1.4669,-1.481,-1.511,-1.5297,-1.5444,-1.5545,-1.5738,-1.5784,-1.5784,-1.5784,-1.5784,-1.5784,-1.5784,-1.5784,-1.5784,-1.5784,-1.5784,-1.5683,-1.4411,-1.3926,-1.3776,-1.2909,-1.2576,-1.2382,-0.7095,0.0,0.0,0.0,0.0,0.0,0.0,0.0,0.0,0.0,-0.7095,0.0,-0.7095,0.0,-0.7248,0.0,-0.7231,-0.7645,-0.8442,-0.8645,0.0,-0.8649,-0.9738,0.0,0.0,0.0,0.0,0.0,0.0,-0.8317,0.0,0.0,0.0,0.0,0.0,0.0,0.0,0.0,-0.9092,0.0,0.0,-0.8419,0.0,0.0,-0.736,-0.7665,0.0,-0.7095,-0.7095,-0.7095,-0.7621,-0.8101,-0.736,-0.8137,-0.9226,-0.8492,-0.8794,-0.944,-0.9879,-1.0009,0.0,0.0,-1.1681,0.0,-1.1681,0.0,0.0,0.0,0.0,0.0,0.0,0.0,-1.1681,-1.1681,-1.2681,-1.3603,0.0,-1.4088,0.0,0.0,0.0,0.0,0.0,0.0,-1.3646,-1.4088,-1.3688,-1.3646,0.0,0.0,-1.4175,-1.4362,-1.4362,-1.4509,-1.4803,-1.499,-1.519,-1.5398,-1.5585,-1.5732,-1.5784,-1.5784,-1.5784,-1.5784,-1.5784,-1.5784,-1.5778,-1.5289,-1.5099,-1.4949,-1.3199,-1.2517,-1.242,-1.1556,-1.0921,-1.0386,0.0,0.0,0.0,0.0,-0.7095,0.0,0.0,0.0,-0.7095,0.0,-0.7095,-0.7095,-0.7095,-0.7095,-0.7095,-0.7095,-0.7095,0.0,-0.7095,-0.7285,0.0,0.0,-0.7434,-0.7529,-0.7419,-0.7519,0.0,0.0,0.0,0.0,0.0,0.0,0.0,0.0,-0.9418,0.0,-0.9206,-0.9197,-0.8382,-0.7095,-0.7095,-0.7139,-0.7183,-0.7139,0.0,-0.8759,-0.7533,-0.7095,-0.7095,-0.7095,-0.7095,-0.7095,-0.7095,-0.7095,-0.7095,-0.7095,-0.7095,-0.7356,-0.8496,-0.8803,-0.9104,-1.0226,0.0,0.0,0.0,0.0,-1.0481,0.0,0.0,0.0,0.0,0.0,0.0,-1.0524,-1.1466,-1.2638,-1.3779,0.0,0.0,0.0,0.0,0.0,0.0,-1.3069,-1.2851,-1.3997,-1.3033,0.0,0.0,0.0,0.0,-1.4088,-1.4088,-1.4222,-1.4496,-1.4466,-1.4803,-1.5351,-1.5384,-1.5538,-1.5758,-1.5724,-1.573,-1.5683,-1.5635,-1.5635,-1.5486,-1.4316,-1.3776,-1.3536,-1.1019,-0.9948,-0.9899,-0.9899,-0.9118,-0.7988,-0.7095,-0.7095,-0.7095,0.0,-0.7095,-0.7095,0.0,0.0,0.0,0.0,-0.7095,-0.7095,-0.7095,-0.7095,-0.7095,-0.7095,-0.7095,0.0,0.0,0.0,0.0,-0.7102,-0.7434,-0.7529,-0.7419,-0.7519,0.0,-0.76,0.0,0.0,-0.76,0.0,0.0,0.0,0.0,0.0,-0.7856,-0.7733,-0.7439,-0.7095,-0.7095,-0.7621,0.0,0.0,-0.7841,-0.8759,-0.7533,-0.7095,-0.7095,-0.7095,-0.7095,-0.7095,-0.7095,-0.7095,-0.7095,-0.7095,-0.7095,-0.7183,-0.7492,-0.7577,-0.7841,-0.9061,-0.9323,-0.9323,0.0,0.0,0.0,0.0,0.0,0.0,0.0,0.0,0.0,-0.9323,-1.0308,-1.1128,0.0,0.0,0.0,0.0,0.0,0.0,-1.3913,-1.3822,-1.3779,-1.4088,-1.3822,0.0,0.0,0.0,0.0,-1.4088,-1.4088,-1.4122,-1.4202,-1.4409,-1.4596,-1.475,-1.519,-1.5438,-1.5471,-1.4712,-1.4411,-1.4316,-1.3349,-1.2915,-1.2866,-1.2528,-1.2431,-1.2237,-1.0632,-0.941,-0.8531,-0.8531,-0.8287,-0.7988,-0.7095,0.0,0.0,-0.7095,0.0,0.0,-0.7095,0.0,0.0,-0.7234,-0.7139,0.0,-0.7234,-0.7241,-0.7241,-0.7241,-0.7302,0.0,0.0,0.0,0.0,-0.7102,-0.726,-0.7356,-0.7272,-0.7353,0.0,-0.7397,0.0,0.0,-0.7397,0.0,0.0,0.0,0.0,-0.7272,0.0,-0.7132,-0.7095,-0.7095,-0.7095,0.0,0.0,-0.736,-0.7536,-0.8013,-0.736,-0.7095,-0.7095,-0.7095,-0.7095,-0.7095,-0.7095,-0.7095,-0.7095,-0.7095,-0.7095,-0.7095,-0.7095,-0.7095,-0.7272,-0.7929,-0.8101,-0.8101,-0.8101,-0.8101,-0.7929,0.0,0.0,0.0,0.0,0.0,0.0,0.0,0.0,0.0,0.0,0.0,0.0,0.0,0.0,0.0,-1.3118,-1.2863,-1.2778,-1.3294,0.0,0.0,0.0,0.0,0.0,-1.3336,-1.3294,-1.3082,-1.2559,-1.2708,-1.2883,-1.2997,-1.3342,-1.3606,-1.3742,-1.3218,-1.2955,-1.2958,-1.2237,-1.1896,-1.1848,-1.1317,-1.1072,-1.0925,-0.9657,-0.8676,-0.7988,-0.7988,-0.7988,-0.7988,0.0,0.0,0.0,0.0,0.0,0.0,0.0,-0.7095,0.0,-0.7353,0.0,-0.7227,-0.7387,-0.7446,-0.7446,-0.7446,0.0,-0.7543,-0.7456,-0.7446,-0.7333,-0.7132,-0.7125,-0.7119,-0.7095,-0.7095,0.0,0.0,0.0,0.0,0.0,0.0,0.0,0.0,0.0,0.0,0.0,-0.7095,-0.7095,0.0,-0.7095,-0.7095,-0.7095,-0.7095,-0.7095,-0.7095,-0.7095,-0.7095,-0.7095,-0.7095,-0.7095,-0.7095,-0.7095,-0.7095,-0.7095,-0.7095,-0.7095,-0.7095,-0.7095,-0.7095,-0.7095,-0.7095,-0.7095,-0.7095,-0.7095,-0.7095,-0.7095,-0.7095,-0.7095,0.0,0.0,0.0,0.0,0.0,0.0,0.0,0.0,0.0,0.0,0.0,0.0,0.0,0.0,0.0,0.0,0.0,0.0,0.0,0.0,0.0,0.0,0.0,-1.2285,0.0,-1.0611,0.0,-1.075,-1.1032,-1.1062,-1.1298,-1.166,-1.1502,-1.1542,-1.1653,-1.1458,-1.1409,-1.1312,-1.0194,-0.9756,-0.9608,-0.8432,-0.7988,-0.7988,-0.7988,-0.7988,-0.7988,0.0,0.0,0.0,0.0,0.0,-0.7095,-0.7095,-0.7095,-0.7149,-0.7353,-0.735,0.0,-0.7543,-0.756,-0.756,-0.756,-0.7584,0.0,0.0,0.0,0.0,-0.7336,-0.7329,-0.7272,-0.7098,-0.7095,-0.7095,0.0,0.0,0.0,0.0,0.0,0.0,0.0,0.0,0.0,-0.7095,-0.7095,0.0,-0.7095,-0.7095,-0.7095,-0.7095,-0.7095,-0.7095,-0.7095,-0.7095,-0.7095,-0.7095,-0.7095,-0.7095,-0.7095,-0.7095,-0.7095,-0.7095,-0.7095,-0.7095,-0.7095,-0.7095,-0.7095,-0.7095,-0.7095,-0.7095,-0.7095,-0.7095,-0.7095,-0.7095,-0.7095,-0.7095,-0.7095,-0.7095,0.0,0.0,0.0,0.0,0.0,0.0,0.0,0.0,0.0,0.0,0.0,0.0,0.0,0.0,0.0,0.0,0.0,0.0,0.0,0.0,0.0,0.0,0.0,0.0,0.0,0.0,-1.0671,-1.0986,-1.1171,-1.1344,-1.049,-1.0202,-1.0293,-0.9164,-0.8676,-0.8676,-0.8432,-0.8333,-0.8333,-0.8088,-0.7988,-0.7988,-0.7988,-0.7988,-0.7988,0.0,0.0,0.0,0.0,0.0,0.0,0.0,-0.7329,0.0,-0.7482,-0.7489,-0.7546,-0.7692,-0.7709,-0.7709,-0.7709,-0.7784,-0.7794,-0.7712,-0.7709,-0.7645,-0.7495,-0.746,0.0,-0.7261,-0.7136,-0.7095,-0.7095,0.0,0.0,0.0,0.0,0.0,0.0,0.0,-0.7095,0.0,0.0,0.0,-0.7095,-0.7095,-0.7095,-0.7095,-0.7095,-0.7095,-0.7095,-0.7095,-0.7095,-0.7095,-0.7095,-0.7095,-0.7095,-0.7095,-0.7095,-0.7095,-0.7095,-0.7095,-0.7095,-0.7095,-0.7095,-0.7095,-0.7095,-0.7095,-0.7095,-0.7095,-0.7095,-0.7095,-0.7095,-0.7095,-0.7095,-0.7095,-0.7095,0.0,0.0,0.0,0.0,0.0,0.0,0.0,0.0,0.0,0.0,0.0,0.0,0.0,0.0,0.0,0.0,0.0,0.0,0.0,0.0,0.0,0.0,0.0,0.0,0.0,-0.879,-0.897,-0.9165,-0.9355,-0.8887,-0.8779,-0.892,-0.8283,-0.7988,-0.7988,-0.7988,-0.7988,-0.7988,-0.7988,-0.7988,-0.7988,-0.7988,-0.7988,-0.7988,0.0,-0.5018,0.0,0.0,-0.7319,0.0,0.0,-0.7546,-0.7645,-0.7645,-0.7645,-0.7699,-0.7845,-0.7862,-0.7862,-0.7862,-0.7921,-0.7938,-0.7868,-0.7862,-0.7794,-0.7651,-0.7499,-0.745,-0.7415,-0.7221,-0.7095,0.0,0.0,0.0,0.0,0.0,0.0,0.0,0.0,0.0,0.0,0.0,-0.7095,-0.7095,-0.7095,-0.7095,-0.7095,-0.7095,-0.7095,-0.7095,-0.7095,-0.7095,-0.7095,-0.7095,-0.7095,-0.7095,-0.7095,-0.7095,-0.7095,-0.7095,-0.7095,-0.7095,-0.7095,-0.7095,-0.7095,-0.7095,-0.7095,-0.7095,-0.7095,-0.7095,-0.7095,-0.7095,-0.7095,-0.7095,-0.7095,-0.7095,0.0,0.0,0.0,0.0,0.0,0.0,0.0,0.0,0.0,0.0,0.0,0.0,0.0,0.0,0.0,0.0,0.0,0.0,0.0,0.0,0.0,-0.8321,-0.7095,0.0,-0.7095,0.0,-0.7095,-0.7257,-0.76,-0.76,-0.776,-0.7988,-0.7988,-0.7988,-0.7988,-0.7988,-0.7988,-0.7988,-0.7988,-0.7988,-0.7988,-0.7988,-0.7988,-0.7988,0.0,0.0,0.0,0.0,0.0,0.0,0.0,-0.7699,-0.779,-0.779,-0.779,-0.7848,-0.7951,-0.7968,-0.7968,-0.7968,-0.7982,-0.7985,-0.7968,-0.7968,-0.7901,-0.7797,-0.7655,-0.7512,-0.7419,-0.7221,-0.7095,0.0,0.0,0.0,0.0,0.0,0.0,0.0,0.0,0.0,0.0,-0.7095,-0.7095,-0.7095,-0.7095,-0.7095,-0.7095,-0.7095,-0.7095,-0.7095,-0.7095,-0.7095,-0.7095,-0.7095,-0.7095,-0.7095,-0.7095,-0.7095,-0.7095,-0.7095,-0.7095,-0.7095,-0.7095,-0.7095,-0.7095,-0.7095,-0.7095,-0.7095,-0.7095,-0.7095,-0.7095,-0.7095,-0.7095,-0.7095,-0.7095,-0.7095,-0.7095,0.0,0.0,0.0,0.0,0.0,0.0,0.0,0.0,0.0,0.0,0.0,0.0,0.0,0.0,0.0,0.0,0.0,0.0,-0.8934,0.0,-0.8321,-0.7095,-0.7095,0.0,-0.7095,-0.7095,-0.7257,-0.76,-0.76,-0.776,-0.7988,-0.7988,-0.7988,-0.7988,-0.7988,-0.7988,-0.7988,-0.7988,-0.7988,-0.7988,-0.7988,-0.7988,-0.7988,0.0,0.0,0.0,0.0,0.0,0.0,0.0,-0.7164,-0.7002,-0.7799,-0.7897,-0.7921,-0.7982,-0.7988,-0.7988,-0.7988,-0.7988,-0.7988,-0.7988,-0.7988,-0.7961,-0.7901,-0.7804,-0.7658,-0.7512,-0.736,-0.7234,0.0,0.0,0.0,0.0,0.0,0.0,0.0,0.0,-0.7095,-0.7095,-0.7095,-0.7095,-0.7095,-0.7095,-0.7095,-0.7095,-0.7095,-0.7095,-0.7095,-0.7095,-0.7095,-0.7095,-0.7095,-0.7095,-0.7095,-0.7095,-0.7095,-0.7095,-0.7095,-0.7095,-0.7095,-0.7095,-0.7095,-0.7095,-0.7095,-0.7095,-0.7095,-0.7095,-0.7095,-0.7095,-0.7095,-0.7095,-0.7095,-0.7095,-0.7095,-0.7095,0.0,0.0,0.0,0.0,0.0,0.0,0.0,0.0,0.0,0.0,0.0,0.0,0.0,0.0,0.0,0.0,0.0,0.0,-0.7841,0.0,-0.7577,-0.7095,-0.7095,-0.7095,-0.7095,-0.7095,-0.7257,-0.76,-0.76,-0.776,-0.7988,-0.7988,-0.7988,-0.7988,-0.7988,-0.7988,-0.7988,-0.7988,-0.7988,-0.7988,-0.7988,-0.7988,-0.7988,-0.421,0.0,-0.507,0.0,-0.5833,-0.5611,-0.6542,-0.6275,-0.6331,-0.7285,-0.7736,-0.7988,-0.7988,-0.7988,-0.7988,-0.7988,-0.7988,-0.7988,-0.7988,-0.7988,-0.7988,-0.7988,-0.7892,0.0,-0.7604,-0.7451,-0.7295,-0.7095,-0.7095,0.0,0.0,0.0,0.0,0.0,-0.7095,-0.7095,-0.7095,-0.7095,-0.7095,-0.7095,-0.7095,-0.7095,-0.7095,-0.7095,-0.7095,-0.7095,-0.7095,-0.7095,-0.7095,-0.7095,-0.7095,-0.7095,-0.7095,-0.7095,-0.7095,-0.7095,-0.7095,-0.7095,-0.7095,-0.7095,-0.7095,-0.7095,-0.7095,-0.7095,-0.7095,-0.7095,-0.7095,-0.7095,-0.7095,-0.7095,-0.7095,-0.7095,-0.7095,-0.7095,0.0,0.0,0.0,0.0,0.0,0.0,0.0,-0.7095,-0.7095,0.0,0.0,0.0,0.0,0.0,0.0,0.0,0.0,0.0,0.0,0.0,0.0,-0.7095,-0.7095,-0.7095,-0.7095,-0.7257,-0.7604,-0.7689,-0.7841,-0.7988,-0.7988,-0.7988,-0.7988,-0.7988,-0.7988,-0.7988,-0.7988,-0.7988,-0.7988,-0.7988,-0.7988,-0.7988,-0.1618,-0.1931,-0.2444,-0.3616,-0.3968,-0.4014,-0.4064,-0.517,-0.6029,-0.6029,-0.7185,-0.7988,-0.7988,-0.7988,-0.7988,-0.7988,-0.7988,-0.7988,-0.7988,-0.7988,-0.7988,0.0,0.0,-0.7743,-0.7604,-0.7451,-0.7295,-0.7095,0.0,0.0,-0.7095,0.0,-0.7095,-0.7095,-0.7095,-0.7095,-0.7095,-0.7095,-0.7095,-0.7095,-0.7095,-0.7095,-0.7095,-0.7095,-0.7095,-0.7095,-0.7095,-0.7095,-0.7095,-0.7095,-0.7095,-0.7095,-0.7095,-0.7095,-0.7095,-0.7095,-0.7095,-0.7095,-0.7095,-0.7095,-0.7095,-0.7095,-0.7095,-0.7095,-0.7095,-0.7095,-0.7095,-0.7095,-0.7095,-0.7095,-0.7095,-0.7095,-0.7095,-0.7095,0.0,0.0,0.0,0.0,0.0,0.0,-0.7095,-0.7095,-0.7095,0.0,0.0,0.0,0.0,0.0,0.0,0.0,0.0,-0.7095,-0.7095,0.0,-0.7095,-0.7095,-0.7095,-0.7095,-0.7095,-0.7257,-0.7611,-0.785,-0.7985,-0.7988,-0.7988,-0.7988,-0.7988,-0.7988,-0.7988,-0.7988,-0.7988,-0.7988,-0.7988,-0.7988,-0.7988,-0.7988,-0.3053,-0.3322,-0.3483,-0.3882,-0.3203,-0.2966,-0.3865,-0.3566,-0.3618,-0.4518,-0.5018,-0.5268,-0.5268,-0.6927,-0.7988,0.0,-0.7988,-0.7988,0.0,-0.7988,-0.7988,-0.7988,-0.7941,-0.7896,-0.7746,-0.76,-0.7451,-0.7299,0.0,0.0,0.0,-0.7095,-0.7095,-0.7095,-0.7095,-0.7095,-0.7095,-0.7095,-0.7095,-0.7095,-0.7095,-0.7095,-0.7095,-0.7095,-0.7095,-0.7095,-0.7095,-0.7095,-0.7095,-0.7095,-0.7095,-0.7095,-0.7095,-0.7095,-0.7095,-0.7095,-0.7095,-0.7095,-0.7095,-0.7095,-0.7095,-0.7095,-0.7095,-0.7095,-0.7095,-0.7095,-0.7095,-0.7095,-0.7095,-0.7095,-0.7095,-0.7095,-0.683,-0.6071,0.0,0.0,0.0,0.0,0.0,0.0,0.0,-0.4727,0.0,-0.4727,0.0,0.0,0.0,0.0,0.0,0.0,0.0,0.0,-0.7095,0.0,-0.7095,-0.7095,-0.7095,-0.7095,-0.7095,-0.7257,-0.7611,-0.7857,-0.7988,-0.7988,-0.7988,-0.7988,-0.7988,-0.7988,-0.7988,-0.7988,-0.7988,-0.7988,-0.7988,-0.7988,-0.7988,-0.7875,-0.2308,-0.2514,-0.2514,-0.2514,-0.1812,-0.1511,-0.2363,-0.2213,-0.2314,-0.3115,-0.3665,-0.4016,-0.4016,-0.547,0.0,-0.6476,-0.6476,-0.6476,-0.6476,-0.698,-0.7235,-0.7235,-0.7739,-0.7917,-0.7814,0.0,0.0,-0.7415,-0.7217,-0.7095,-0.7095,-0.7095,-0.7095,-0.7095,-0.7095,-0.7095,-0.7095,-0.7095,-0.7095,-0.7095,-0.7095,-0.7095,-0.7095,-0.7095,-0.7095,-0.7095,-0.7095,-0.7095,-0.7095,-0.7095,-0.7095,-0.7095,-0.7095,-0.7095,-0.7095,-0.7095,-0.7095,-0.7095,-0.7095,-0.7095,-0.7095,-0.7095,-0.7095,-0.7007,-0.6561,-0.6113,-0.5797,-0.5797,-0.5797,-0.5797,-0.5797,-0.5797,-0.5531,-0.4821,-0.4732,-0.4463,0.0,0.0,0.0,0.0,0.0,0.0,0.0,-0.3614,0.0,0.0,0.0,0.0,0.0,0.0,0.0,-0.7095,-0.7095,0.0,-0.7095,-0.7095,-0.7095,-0.7098,-0.7213,-0.7441,-0.7689,-0.788,-0.7988,-0.7988,-0.7988,-0.7988,-0.7988,-0.7988,-0.7988,-0.7988,-0.7988,-0.7686,-0.7235,-0.7235,-0.693,-0.6357,0.0,0.0,0.0,0.0,0.0,0.0,0.0,-0.1058,-0.1862,-0.1862,-0.2966,-0.3715,-0.3715,-0.3715,-0.3715,-0.3715,0.0,0.0,0.0,-0.5322,-0.6029,-0.6129,-0.7335,-0.7924,-0.7831,-0.7678,-0.7473,-0.7262,-0.7166,-0.7007,-0.6871,-0.6962,-0.6918,-0.6871,-0.6871,-0.6871,-0.6871,-0.6871,-0.6871,-0.6871,-0.6871,-0.6871,-0.6871,-0.6871,-0.6871,-0.6871,-0.6871,-0.6871,-0.6871,-0.6871,-0.6871,-0.6871,-0.6871,-0.6871,-0.6871,-0.7051,-0.7051,-0.6962,-0.6962,-0.6918,-0.6871,-0.6871,-0.6871,-0.6558,-0.5536,-0.4419,-0.3614,-0.3614,-0.3614,-0.3614,-0.3614,-0.3614,-0.357,-0.3481,-0.3481,-0.3436,-0.3349,0.0,0.0,0.0,0.0,0.0,0.0,-0.3349,-0.3392,0.0,0.0,0.0,0.0,0.0,-0.6915,-0.6962,-0.7051,-0.7095,-0.7095,-0.7095,-0.7102,-0.7115,-0.7458,-0.7675,-0.7818,-0.7921,-0.7988,-0.7988,-0.7988,-0.7988,-0.7988,-0.7889,-0.7839,-0.7839,-0.7736,-0.6983,-0.5879,-0.5879,-0.5068,-0.3999,0.0,0.0,0.0,0.0,0.0,0.0,0.0,-0.0252,-0.0454,-0.0454,-0.0756,-0.0958,-0.0958,-0.0958,-0.0958,-0.0958,-0.2815,-0.4418,-0.5475,-0.5827,-0.6481,-0.7484,-0.7839,-0.7971,-0.7938,-0.7733,-0.7049,-0.5894,-0.671,-0.6201,-0.4461,-0.5356,-0.5309,-0.4417,-0.4417,-0.4417,-0.4417,-0.4417,-0.4417,-0.4417,-0.4417,-0.4417,-0.4417,-0.4417,-0.4417,-0.4417,-0.4417,-0.4417,-0.4417,-0.4417,-0.4417,-0.4417,-0.4417,-0.4417,-0.4772,-0.6558,-0.6473,-0.5802,-0.5802,-0.5132,-0.4417,-0.4417,-0.4417,-0.4372,-0.4105,-0.3794,-0.3614,-0.3614,-0.3614,-0.3614,-0.3614,-0.3614,-0.3303,-0.237,-0.2236,-0.1924,-0.0986,-0.0852,0.0,0.0,-0.0852,-0.0852,-0.0852,-0.0852,-0.1254,0.0,0.0,0.0,0.0,-0.4148,-0.4863,-0.5758,-0.665,-0.7095,-0.7095,-0.7095,-0.72,-0.7319,-0.7509,-0.7675,-0.7818,-0.7921,-0.7988,-0.7988,-0.7988,-0.7988,-0.7939,-0.6883,-0.6481,-0.6381,-0.537,-0.4768,-0.4468,-0.4468,-0.4281,-0.3876,0.0,0.0,0.0,0.0,0.0,0.0,0.0,0.0,0.0,0.0,0.0,0.0,0.0,0.0,0.0,0.0,-0.131,-0.2765,-0.4069,-0.4722,-0.5422,-0.6124,-0.6781,-0.6781,-0.6174,-0.5952,-0.5444,-0.4599,-0.5218,-0.4861,-0.3614,-0.4283,-0.4241,-0.3614,-0.3614,-0.3614,-0.3614,-0.3614,-0.3614,-0.3614,-0.3614,-0.3614,-0.3614,-0.3614,-0.3614,-0.3614,-0.3614,-0.3614,-0.3614,-0.3614,-0.3614,-0.3614,-0.3614,-0.3614,-0.3837,-0.5129,-0.5041,-0.4599,-0.4599,-0.4105,-0.3614,-0.3614,-0.317,-0.2769,-0.2769,-0.237,-0.1969,-0.1969,-0.1969,-0.1969,-0.1969,-0.1969,-0.1746,-0.1076,-0.0986,-0.0763,-0.009,0.0,0.0,0.0,0.0,0.0,0.0,0.0,-0.0269,-0.0942,0.0,0.0,-0.1924,-0.2458,-0.3349,-0.4552,-0.5176,-0.5487,-0.5487,-0.5487,-0.557,-0.5743,-0.5805,-0.5923,-0.608,-0.6145,-0.6174,-0.6174,-0.6174,-0.6174,-0.6124,-0.5372,-0.5072,-0.5022,-0.4268,-0.3615,-0.3061,-0.3085,-0.2712,-0.2048,0.0,0.0,0.0,0.0,0.0,0.0,0.0,0.0,0.0,0.0,0.0,0.0,0.0,0.0,0.0,0.0,0.0,-0.0555,-0.1913,-0.3065,-0.3765,-0.4016,-0.5072,-0.5172,-0.4016,-0.3873,-0.363,-0.3347,-0.3525,-0.3392,-0.3081,-0.326,-0.3215,-0.3037,-0.3037,-0.3037,-0.3037,-0.3037,-0.3037,-0.3037,-0.3037,-0.3037,-0.3037,-0.3037,-0.3037,-0.3037,-0.3037,-0.3037,-0.3037,-0.3037,-0.3037,-0.3037,-0.3037,-0.3037,-0.3037,-0.3037,-0.3037,-0.3081,-0.326,-0.3213,-0.3037,-0.3037,-0.2281,-0.1522,-0.1522,-0.0718,0.0,0.0,0.0,0.0,0.0,0.0,0.0,0.0,0.0,0.0,0.0,0.0,0.0,0.0,0.0,0.0,0.0,0.0,0.0,0.0,0.0,0.0,0.0,-0.0986,-0.2013,-0.3037,-0.3392,-0.3614,-0.3614,-0.3582,-0.3658,-0.3798,-0.3808,-0.3885,-0.4016,-0.4016,-0.4016,-0.4016,-0.4016,-0.4016,-0.3966,-0.3765,-0.3715,-0.3665,-0.3465,-0.2715,-0.1708,-0.1675,-0.0978,0.0,0.0,0.0,0.0,0.0,0.0,0.0,0.0,0.0,0.0,0.0,0.0,0.0,0.0,0.0,0.0,0.0,0.0,-0.0555,-0.1913,-0.2213,-0.2815,-0.3966,-0.4216,-0.4216,-0.4016,-0.3873,-0.3212,-0.2057,-0.3081,-0.2547,-0.0584,-0.1612,-0.1522,-0.0539,-0.0539,-0.0539,-0.0539,-0.0539,-0.0539,-0.0539,-0.0539,-0.0539,-0.0539,-0.0539,-0.0539,-0.0539,-0.0539,-0.0539,-0.0539,-0.0539,-0.0539,-0.0539,-0.0539,-0.0539,-0.0539,-0.0539,-0.0539,-0.0762,-0.179,-0.1344,-0.0539,-0.0539,-0.0404,-0.0269,-0.0269,-0.0135,0.0,0.0,0.0,0.0,0.0,0.0,0.0,0.0,0.0,0.0,0.0,0.0,0.0,0.0,0.0,0.0,0.0,0.0,0.0,0.0,0.0,0.0,0.0,-0.018,-0.0359,-0.0539,-0.2547,-0.3614,-0.3614,-0.3587,-0.3663,-0.3798,-0.3814,-0.3887,-0.4016,-0.4016,-0.4016,-0.4016,-0.4016,-0.4016,-0.3915,-0.2765,-0.2314,-0.2213,-0.1058,-0.0504,-0.0302,-0.0296,-0.0194,0.0,0.0,0.0,0.0,0.0,0.0,0.0,0.0,0.0,0.0,0.0,0.0,0.0,0.0,0.0,0.0,0.0,0.0,-0.0252,-0.0857,-0.1611,-0.2264,-0.2914,-0.2914,-0.2589,-0.1855,-0.1776,-0.1447,-0.0852,-0.1389,-0.1076,0.0,-0.0584,-0.0539,0.0,0.0,0.0,0.0,0.0,0.0,0.0,0.0,0.0,0.0,0.0,0.0,0.0,0.0,0.0,0.0,0.0,0.0,0.0,0.0,0.0,0.0,0.0,0.0,-0.0135,-0.0673,-0.0404,0.0,0.0,0.0,0.0,0.0,0.0,0.0,0.0,0.0,0.0,0.0,0.0,0.0,0.0,0.0,0.0,0.0,0.0,0.0,0.0,0.0,0.0,0.0,0.0,0.0,0.0,0.0,0.0,0.0,0.0,0.0,0.0,-0.1076,-0.1657,-0.1657,-0.1644,-0.1678,-0.176,-0.1747,-0.178,-0.1862,-0.1862,-0.1862,-0.1862,-0.1862,-0.1862,-0.1812,-0.1159,-0.0907,-0.0857,-0.0252,0.0,0.0,0.0,0.0,0.0,0.0,0.0,0.0,0.0,0.0,0.0,0.0,0.0,0.0,0.0,0.0,0.0,0.0,0.0,0.0,0.0,0.0,0.0,0.0,-0.0958,-0.1511,-0.1511,-0.1511,-0.104,0.0,0.0,0.0,0.0,0.0,0.0,0.0,0.0,0.0,0.0,0.0,0.0,0.0,0.0,0.0,0.0,0.0,0.0,0.0,0.0,0.0,0.0,0.0,0.0,0.0,0.0,0.0,0.0,0.0,0.0,0.0,0.0,0.0,0.0,0.0,0.0,0.0,0.0,0.0,0.0,0.0,0.0,0.0,0.0,0.0,0.0,0.0,0.0,0.0,0.0,0.0,0.0,0.0,0.0,0.0,0.0,0.0,0.0,0.0,0.0,0.0,0.0,0.0,0.0,0.0,0.0,0.0,0.0,0.0,0.0,0.0,0.0,0.0,0.0,0.0,0.0,0.0,0.0,0.0,0.0,0.0,0.0,0.0,0.0,0.0,0.0,0.0,0.0,0.0,0.0,0.0,0.0,0.0,0.0,0.0,0.0,0.0,0.0,0.0,0.0,0.0,0.0,0.0,0.0,0.0,0.0,0.0,0.0,0.0,0.0,0.0,-0.0101,-0.0151,-0.0151,-0.0151,-0.0099,0.0,0.0,0.0,0.0,0.0,0.0,0.0,0.0,0.0,0.0,0.0,0.0,0.0,0.0,0.0,0.0,0.0,0.0,0.0,0.0,0.0,0.0,0.0,0.0,0.0,0.0,0.0,0.0,0.0,0.0,0.0,0.0,0.0,0.0,0.0,0.0,0.0,0.0,0.0,0.0,0.0,0.0,0.0,0.0,0.0,0.0,0.0,0.0,0.0,0.0,0.0,0.0,0.0,0.0,0.0,0.0,0.0,0.0,0.0,0.0,0.0,0.0,0.0,0.0,0.0,0.0,0.0,0.0,0.0,0.0,0.0,0.0,0.0,0.0,0.0,0.0,0.0,0.0,0.0,0.0,0.0,0.0,0.0,0.0,0.0,0.0,0.0,0.0,0.0,0.0,0.0,0.0,0.0,0.0,0.0,0.0,0.0,0.0,0.0,0.0,0.0,0.0,0.0,0.0,0.0,0.0,0.0,0.0,0.0,0.0,0.0,0.0,0.0,0.0,0.0,0.0,0.0,0.0,0.0,0.0,0.0,0.0,0.0,0.0,0.0,0.0,0.0,0.0,0.0,0.0,0.0,0.0,0.0,0.0,0.0,0.0,0.0,0.0,0.0,0.0,0.0,0.0,0.0,0.0,0.0,0.0,0.0,0.0,0.0,0.0,0.0,0.0,0.0,0.0,0.0,0.0,0.0,0.0,0.0,0.0,0.0,0.0,0.0,0.0,0.0,0.0,0.0,0.0,0.0,0.0,0.0,0.0,0.0,0.0,0.0,0.0,0.0,0.0,0.0,0.0,0.0,0.0,0.0,0.0,0.0,0.0,0.0,0.0,0.0,0.0,0.0,0.0,0.0,0.0,0.0,0.0,0.0,0.0,0.0,0.0,0.0,0.0,0.0,0.0,0.0,0.0,0.0,0.0,0.0605,0.0958,0.126,0.126,0.0907,0.0605,0.0605,0.0252,0.0,0.0,0.0,0.0,0.0,0.0,0.0,0.0,0.0,0.0,0.0,0.0,0.0,0.0,0.0,0.0,0.0,0.0,0.0,0.0,0.0,0.0,0.0,0.0,0.0,0.0,0.0,0.0,0.0,0.0,0.0,0.0,0.0,0.0,0.0,0.0,0.0,0.0,0.0,0.0,0.0,0.0,0.0,0.0,0.0,0.0,0.009,0.0449,0.0584,0.0628,0.1031,0.1121,0.0941,0.018,0.0,0.0,0.0,0.0,0.009,0.0494,0.0584,0.0673,0.1076,0.1121,0.1121,0.1121,0.1121,0.1121,0.1121,0.1121,0.1121,0.1121,0.1121,0.0986,0.0583,0.0584,0.0404,0.0045,0.0,0.0,0.0,0.0,0.0,0.0,0.0,0.0,0.0,0.0,0.0,0.0,0.0,0.0,0.0,0.0,0.0,0.0,0.0,0.0,0.0,0.0,0.0,0.0,0.0,0.0,0.0,0.0,0.0,0.0,0.2013,0.3065,0.4016,0.4016,0.2914,0.2013,0.2013,0.0907,0.0051,0.0051,0.0051,0.0051,0.0051,0.0,0.0,0.0,0.0,0.0,0.0,0.0,0.0,0.0,0.0,0.0,0.0,0.0,0.0,0.0,0.0,0.0,0.0,0.0,0.0,0.0,0.0,0.0,0.0,0.0,0.0,0.0,0.0,0.0,0.0,0.0045,0.0045,0.0045,0.0045,0.0045,0.0045,0.0045,0.0045,0.0045,0.0045,0.0045,0.0269,0.1478,0.1835,0.2057,0.326,0.3614,0.3037,0.0628,0.0045,0.0045,0.0045,0.0045,0.0359,0.1567,0.1835,0.2191,0.3392,0.3614,0.3614,0.3614,0.3614,0.3614,0.3614,0.3614,0.3614,0.3614,0.3614,0.3126,0.1924,0.1835,0.1299,0.0135,0.0045,0.0045,0.0045,0.0045,0.0045,0.0045,0.0046,0.0047,0.0048,0.0,0.0,0.0,0.0,0.0,0.0,0.0,0.0,0.0,0.0,0.0,0.0,0.0,0.0,0.0,0.0,0.0,0.0,0.0,0.0,0.0045,0.3416,0.3715,0.4016,0.4016,0.3665,0.3416,0.3416,0.3065,0.2815,0.2815,0.2815,0.2815,0.2815,0.1962,0.141,0.141,0.0555,0.0,0.0,0.0,0.0,0.0,0.0,0.0,0.0,0.0,0.0,0.0,0.0,0.0,0.0,0.0,0.0,0.0,0.0,0.0,0.0,0.0,0.0,0.009,0.0942,0.1254,0.1344,0.2191,0.2547,0.2547,0.2547,0.2547,0.2547,0.2547,0.2547,0.2547,0.2547,0.2547,0.2592,0.2948,0.3081,0.3126,0.3481,0.3614,0.3436,0.2726,0.2547,0.2547,0.2547,0.2547,0.2637,0.2992,0.3081,0.317,0.3525,0.3614,0.3614,0.3614,0.3614,0.3614,0.3614,0.3614,0.3614,0.3614,0.3614,0.3436,0.3081,0.3081,0.2903,0.2547,0.2547,0.2547,0.2547,0.2547,0.2547,0.2547,0.2636,0.2645,0.266,0.0874,0.0,0.0,0.0,0.0,0.0,0.0,0.0,0.0,0.0,0.0,0.0,0.0,0.0,0.0,0.0,0.0522,0.1256,0.1275,0.1799,0.2547,0.477,0.522,0.557,0.557,0.512,0.477,0.477,0.4318,0.4016,0.4016,0.4016,0.4016,0.4016,0.3265,0.2815,0.2815,0.2063,0.1556,0.1496,0.1479,0.15,0.1412,0.141,0.0978,0.0,0.0,0.0,0.0,0.0,0.0,0.0,0.0494,0.0718,0.0718,0.121,0.1433,0.1433,0.1433,0.1433,0.1478,0.2236,0.2503,0.2592,0.3303,0.3614,0.3614,0.3614,0.3614,0.3614,0.3614,0.3614,0.3614,0.3614,0.3614,0.3703,0.415,0.433,0.4419,0.4863,0.4994,0.4994,0.4994,0.4281,0.3614,0.3614,0.3614,0.3748,0.4196,0.433,0.4461,0.4905,0.4994,0.4994,0.4994,0.4994,0.4994,0.4994,0.4994,0.4994,0.4994,0.4994,0.4816,0.4374,0.433,0.4105,0.3614,0.3614,0.3614,0.3614,0.3614,0.3628,0.3659,0.378,0.3811,0.389,0.2351,0.1295,0.0807,0.0252,0.0,0.0,0.0,0.0,0.0051,0.0555,0.0807,0.0857,0.136,0.1544,0.1515,0.1486,0.1925,0.253,0.2522,0.2992,0.3614,0.6179,0.7182,0.7988,0.7988,0.6983,0.6179,0.6179,0.512,0.4366,0.4366,0.4366,0.4366,0.4366,0.4266,0.4166,0.4166,0.4061,0.3929,0.3816,0.3799,0.3733,0.3597,0.3585,0.2553,0.0359,0.0314,0.0314,0.0314,0.0314,0.0314,0.0359,0.1433,0.1969,0.2013,0.3126,0.3614,0.3614,0.3614,0.3614,0.3614,0.3703,0.3748,0.3792,0.3881,0.3926,0.3926,0.3926,0.3926,0.3926,0.3926,0.3926,0.3926,0.3926,0.3926,0.415,0.5223,0.5536,0.5761,0.6827,0.7095,0.7095,0.7095,0.5487,0.3926,0.3926,0.3926,0.4239,0.5312,0.5536,0.5847,0.6918,0.7095,0.7095,0.7095,0.7095,0.7095,0.7095,0.7095,0.7095,0.7095,0.7095,0.6694,0.5669,0.5536,0.509,0.4014,0.3926,0.3926,0.3926,0.3926,0.3965,0.4095,0.4133,0.4216,0.4349,0.423,0.3516,0.2163,0.0958,0.0353,0.0353,0.0353,0.0353,0.0404,0.1662,0.2163,0.2264,0.3459,0.3915,0.3796,0.3769,0.3786,0.3756,0.3774,0.3837,0.3926,0.7587,0.7789,0.7988,0.7988,0.7736,0.7587,0.7587,0.7335,0.7132,0.7132,0.7132,0.7132,0.7132,0.6176,0.5575,0.5575,0.451,0.3829,0.3813,0.3703,0.3623,0.3592,0.3581,0.3363,0.2815,0.2815,0.2815,0.2815,0.2815,0.2815,0.2815,0.3081,0.3213,0.3215,0.3481,0.3614,0.3614,0.3614,0.3614,0.3703,0.4641,0.5001,0.509,0.598,0.6334,0.6334,0.6334,0.6334,0.6334,0.6334,0.6334,0.6334,0.6334,0.6334,0.6378,0.665,0.6738,0.6786,0.7051,0.7095,0.7095,0.7095,0.6735,0.6334,0.6334,0.6334,0.6422,0.6694,0.6738,0.6827,0.7051,0.7095,0.7095,0.7095,0.7095,0.7095,0.7095,0.7095,0.7095,0.7095,0.7095,0.7007,0.6738,0.6738,0.6605,0.6378,0.6334,0.6334,0.6334,0.6334,0.6442,0.6627,0.6718,0.6851,0.6979,0.602,0.487,0.3565,0.3265,0.3115,0.3115,0.3115,0.3115,0.3165,0.3416,0.3565,0.3562,0.3759,0.3841,0.3767,0.369,0.4211,0.5032,0.5008,0.5578,0.6334,0.7988,0.7988,0.7988,0.7988,0.7988,0.7988,0.7988,0.7988,0.7988,0.7988,0.7988,0.7988,0.7988,0.7385,0.6907,0.6845,0.6138,0.5668,0.5516,0.5449,0.536,0.526,0.5248,0.5262,0.5262,0.5262,0.4727,0.3614,0.3614,0.3614,0.3614,0.4194,0.4463,0.4463,0.5041,0.5262,0.5262,0.5262,0.5262,0.5307,0.5935,0.6204,0.6293,0.6874,0.7095,0.7095,0.7095,0.7095,0.7095,0.7095,0.7095,0.7095,0.7095,0.7095,0.7095,0.7095,0.7095,0.7095,0.7095,0.7095,0.7095,0.7095,0.7095,0.7095,0.7095,0.7095,0.7095,0.7095,0.7095,0.7095,0.7095,0.7095,0.7095,0.7095,0.7095,0.7095,0.7095,0.7095,0.7095,0.7095,0.7095,0.7095,0.7095,0.7095,0.7095,0.7095,0.7095,0.7095,0.7095,0.7095,0.721,0.7412,0.7519,0.7668,0.7811,0.7214,0.6578,0.5872,0.4616,0.4016,0.4016,0.4016,0.4016,0.4016,0.467,0.4895,0.4899,0.5489,0.5618,0.5513,0.5453,0.5727,0.6204,0.6204,0.6605,0.7095,0.7988,0.7988,0.7988,0.7988,0.7988,0.7988,0.7988,0.7988,0.7988,0.7988,0.7988,0.7988,0.7988,0.7968,0.7891,0.7787,0.775,0.7631,0.7433,0.7346,0.7275,0.7102,0.7095,0.7095,0.7095,0.7095,0.6154,0.4192,0.4192,0.4192,0.4239,0.522,0.5672,0.5714,0.6694,0.7095,0.7095,0.7095,0.7095,0.7095,0.7095,0.7095,0.7095,0.7095,0.7095,0.7095,0.7095,0.7095,0.7095,0.7095,0.7095,0.7095,0.7095,0.7095,0.7095,0.7095,0.7095,0.7095,0.7095,0.7095,0.7095,0.7095,0.7095,0.7095,0.7095,0.7095,0.7095,0.7095,0.7095,0.7095,0.7095,0.7095,0.7095,0.7095,0.7095,0.7095,0.7095,0.7095,0.7095,0.7095,0.7095,0.7095,0.7095,0.7095,0.7095,0.7095,0.7095,0.7095,0.7095,0.7095,0.721,0.7412,0.7495,0.7631,0.7773,0.785,0.7914,0.7914,0.5669,0.4638,0.4668,0.4668,0.466,0.4694,0.5847,0.6232,0.6168,0.726,0.759,0.7415,0.7343,0.7255,0.7095,0.7095,0.7095,0.7095,0.7988,0.7988,0.7988,0.7988,0.7988,0.7988,0.7988,0.7988,0.7988,0.7988,0.7988,0.7988,0.7988,0.7874,0.7784,0.7641,0.7506,0.746,0.7419,0.7244,0.7119,0.7098,0.7095,0.7095,0.7095,0.7095,0.6959,0.6647,0.6647,0.6647,0.6647,0.6782,0.6874,0.6874,0.7051,0.7095,0.7095,0.7095,0.7095,0.7095,0.7095,0.7095,0.7095,0.7095,0.7095,0.7095,0.7095,0.7095,0.7095,0.7095,0.7095,0.7095,0.7095,0.7095,0.7095,0.7095,0.7095,0.7095,0.7095,0.7095,0.7095,0.7095,0.7095,0.7095,0.7095,0.7095,0.7095,0.7095,0.7095,0.7095,0.7095,0.7095,0.7095,0.7095,0.7095,0.7095,0.7095,0.7095,0.7095,0.7095,0.7095,0.7095,0.7095,0.7095,0.7095,0.7095,0.7095,0.7095,0.7095,0.7095,0.721,0.7412,0.7436,0.7475,0.7628,0.7648,0.7658,0.7658,0.7276,0.7253,0.7484,0.7484,0.7418,0.7301,0.7498,0.7468,0.7378,0.7439,0.7453,0.7405,0.7224,0.7112,0.7095,0.7095,0.7095,0.7095,0.7988,0.7988,0.7988,0.7988,0.7988,0.7988,0.7988,0.7988,0.7988,0.7988,0.7917,0.7913,0.7913,0.778,0.7634,0.7485,0.7456,0.7333,0.7248,0.7132,0.7095,0.7095,0.7095,0.7095,0.7095,0.7095,0.7095,0.7095,0.7095,0.7095,0.7095,0.7095,0.7095,0.7095,0.7095,0.7095,0.7095,0.7095,0.7095,0.7095,0.7095,0.7095,0.7095,0.7095,0.7095,0.7095,0.7095,0.7095,0.7095,0.7095,0.7095,0.7095,0.7095,0.7095,0.7095,0.7095,0.7095,0.7095,0.7095,0.7095,0.7095,0.7095,0.7095,0.7095,0.7095,0.7095,0.7095,0.7095,0.7095,0.7095,0.7095,0.7095,0.7095,0.7095,0.7095,0.7095,0.7095,0.7095,0.7095,0.7095,0.7095,0.7095,0.7095,0.7095,0.7095,0.7095,0.7095,0.7095,0.7095,0.7095,0.7129,0.7241,0.7326,0.745,0.7472,0.7556,0.76,0.76,0.76,0.7668,0.7794,0.7794,0.7756,0.7692,0.7692,0.7607,0.7465,0.7446,0.7319,0.7238,0.7122,0.7095,0.7095,0.7095,0.7095,0.7095]}]]